     2              OBSERVATION DATA    GPS                 RINEX VERSION / TYPE
teqc 1997Sep10 19971024 17:03:34UTC                         PGM / RUN BY / DATE
                                                            COMMENT
Original Marker Name: CRAF                                  COMMENT
Campaign Name: Intercounty 1992                             COMMENT
4-Character Station Name: 6004                              COMMENT
6-Character Antenna Code: TRMSST                            COMMENT
Vertical Measurement Point: TGP                             COMMENT
Vertical Offset to Rinex Ref. Point: 0.0629                 COMMENT
Radial Measurement Point: IGP                               COMMENT
Radial Offset to Rinex Ref. Point: 0.2403                   COMMENT
Antenna Height from Field Measurement: 1.5900 m             COMMENT
Original XYZ: -2408730.0958 -4710017.6601 3552602.3930      COMMENT
New XYZ position is based on association with SCEC monument COMMENT
E1D0R9V2+0011. Position of that monument is believed to be  COMMENT
valid to within 1 m horizontally; vertical accuracy         COMMENT
should be no worse than 3-times this value.                 COMMENT
                                                            COMMENT
Revised Rinex header created by UCSD GPS archive for        COMMENT
GSAC on 18-Apr-1999 (1999:108) 21:34:53 GMT                 COMMENT
For assistance contact dagnew@ucsd.edu or hjohnson@ucsd.edu COMMENT
                                                            COMMENT
CRAFTON 1929 1972                                           MARKER NAME
unknown CALIF INSTIT OF TECHNOLOGY                          OBSERVER / AGENCY
438 TRIMBLE 4000 SST NP 4.53 / SP 4.20                      REC # / TYPE / VERS
29 TR 4000SST L1/L2 GEO                                     ANT # / TYPE
 -2408726.0000 -4710011.0000  3552601.0000                  APPROX POSITION XYZ
        1.5088        0.0000        0.0000                  ANTENNA: DELTA H/E/N
     1     1     0                                          WAVELENGTH FACT L1/2
     3    C1    L1    L2                                    # / TYPES OF OBSERV
     0                                                      INTERVAL
  1992     4    17    18    50   45.000000                  TIME OF FIRST OBS
  1992     4    18     0    49   45.000000                  TIME OF LAST OBS
     0                                                      # OF SATELLITES
                                                            END OF HEADER
 92  4 17 18 50 45.0000000  0  4G18G11G19G 2
  20376223.1484         -0.57558
  24603588.5474         -0.45155
  21168921.1884         -0.03957
  24832914.3444         -0.35655
 92  4 17 18 51  0.0000000  0  4G18G11G19G 2
  20374575.3834      -8655.05848        -0.28472
  24595172.6254     -44217.61645
  21165876.7424     -16017.50547        -0.16972
  24822639.9924     -53985.38345
 92  4 17 18 51 15.0000000  0  4G18G11G19G 2
  20372947.0554     -17214.04548     -6669.63662
  24586763.828      -88404.663 5
  21162832.258      -32010.913 7    -12462.55222
  24812368.898     -107951.626 5
 92  4 17 18 51 30.0000000  0  4G18G11G19G 2
  20371337.7274     -25675.30548    -13262.83462
  24578362.930     -132559.029 5        -0.23131
  21159792.7584     -47976.44947    -24903.21862
  24802102.719     -161898.294 5        -0.14031
 92  4 17 18 51 45.0000000  0  4G18G11G19G 2
  20369746.0394     -34038.16348    -19779.35662
  24569966.0474    -176682.40545    -34381.89461
  21156759.000      -63914.403 7    -37322.38922
  24791840.5164    -215830.94145    -42025.42561
 92  4 17 18 52  0.0000000  0  4G18G11G19G 2
  20368172.4924     -42305.72148    -26221.61762
  24561574.9534    -220779.28545    -68742.88761
  21153734.242      -79827.243 6    -49721.99222
  24781575.953     -269756.603 5    -84045.22721
 92  4 17 18 52 15.0000000  0  4G18G11G19G 2
  20366617.7034     -50476.41648    -32588.39862
  24553188.5864    -264848.94745   -103082.68961
  21150707.0864     -95713.22547    -62100.67162
  24771316.7584    -323673.60345   -126058.28661
 92  4 17 18 52 30.0000000  0  4G18G11G19G 2
  20365082.3674     -58547.51048    -38877.56762
  24544810.3364    -308888.93045   -137399.35661
  21147691.1334    -111571.03247    -74457.39162
  24761060.164     -377579.564 5   -168062.73921
 92  4 17 18 52 45.0000000  0  4G18G11G19G 2
  20363564.7114     -66517.02448    -45087.58762
  24536432.5394    -352898.96345   -171692.68861
  21144680.7504    -127396.42247    -86788.85362
  24750801.5864    -431476.34345   -210060.06961
 92  4 17 18 53  0.0000000  0  4G18G11G19G 2
  20362069.3834     -74375.60448    -51211.16062
  24528062.5314    -396872.31245   -205957.46261
  21141677.0314    -143182.38347    -99089.59462
  24740550.6804    -485354.59545   -252042.93161
 92  4 17 18 53 15.0000000  0  4G18G11G19G 2
  20360593.117      -82132.842 8    -57255.77422
  24519704.1174    -440818.00745   -240200.65761
  21138677.4844    -158939.73647   -111368.04062
  24730298.086     -539221.510 5   -294016.97721
 92  4 17 18 53 30.0000000  0  4G18G11G19G 2
  20359137.6254     -89786.01348    -63219.29062
  24511346.531     -484728.405 5   -274416.38321
  21135684.5474    -174658.94047   -123616.76562
  24720054.883     -593067.716 5   -335974.87321
 92  4 17 18 53 45.0000000  0  4G18G11G19G 2
  20357699.9384     -97342.42448    -69107.41362
  24502996.4384    -528607.40845   -308607.62661
  21132700.8364    -190342.39547   -135837.62862
  24709809.453     -646898.337 5   -377920.64621
 92  4 17 18 54  0.0000000  0  4G18G11G19G 2
  20356279.2584    -104802.23148    -74920.26162
  24494651.5944    -572454.04145   -342773.64861
  21129727.4534    -205990.81347   -148031.19762
  24699571.0164    -700709.63445   -419851.34061
 92  4 17 18 54 15.0000000  0  4G18G11G19G 2
  20354880.1954    -112160.51748    -80653.99862
  24486313.531     -616261.683 5   -376909.31221
  21126752.3054    -221597.11247   -160191.94162
  24689335.422     -754492.667 5   -461760.02921
 92  4 17 18 54 30.0000000  0  4G18G11G19G 2
  20353497.2194    -119429.92548    -86318.47962
  24477982.719     -660040.846 5   -411022.73721
  21123789.4064    -237174.51547   -172330.17462
  24679105.680     -808255.834 5   -503653.23321
 92  4 17 18 54 45.0000000  0  4G18G11G19G 2
  20352129.5234    -126609.99948    -91913.34862
  24469658.273     -703787.760 5   -445111.10321
  21120831.9144    -252718.47447   -184442.33962
  24668877.7194    -861997.07745   -545529.35761
 92  4 17 18 55  0.0000000  0  4G18G11G19G 2
  20350780.8984    -133699.50048    -97437.64262
  24461340.7664    -747499.24745   -479171.82361
  21117882.6954    -268227.60646   -196527.36962
  24658655.422     -915714.290 5   -587386.75821
 92  4 17 18 55 15.0000000  0  4G18G11G19G 2
  20349447.5394    -140706.23248   -102897.43962
  24453028.461     -791179.315 5   -513208.10221
  21114935.4694    -283708.67547   -208590.52862
  24648437.656     -969415.197 5   -629231.44421
 92  4 17 18 55 30.0000000  0  4G18G11G19G 2
  20348130.2974    -147632.28048   -108294.36562
  24444721.133     -834827.404 5   -547219.42021
  21111993.0864    -299161.41246   -220631.61062
  24638218.7584   -1023104.12145   -671066.80861
 92  4 17 18 55 45.0000000  0  4G18G11G19G 2
  20346827.4924    -154476.56548   -113627.58162
  24436423.109     -878441.104 5   -581203.96221
  21109057.9304    -314585.95947   -232650.72962
  24628003.9144   -1076782.48945   -712893.93061
 92  4 17 18 56  0.0000000  0  4G18G11G19G 2
  20345541.7344    -161233.10148   -118892.42262
  24428130.078     -922018.537 5   -615160.24221
  21106129.7814    -329983.84647   -244649.07762
  24617791.883    -1130450.846 5   -754713.26421
 92  4 17 18 56 15.0000000  0  4G18G11G19G 2
  20344274.7814    -167895.63848   -124084.01462
  24419847.1484    -965554.79245   -649084.45161
  21103202.0164    -345350.73847   -256623.27062
  24607583.109    -1184104.394 5   -796521.06021
 92  4 17 18 56 30.0000000  0  4G18G11G19G 2
  20343023.3984    -174465.08248   -129203.07162
  24411568.2114   -1009049.84345   -682976.51661
  21100289.570     -360689.184 6   -268575.29022
  24597372.508    -1237745.661 5   -838319.29621
 92  4 17 18 56 45.0000000  0  4G18G11G19G 2
  20341792.3674    -180933.35248   -134243.29162
  24403301.930    -1052495.360 5   -716829.99521
  21097374.0944    -375992.80747   -280500.18162
  24587169.688    -1291367.884 5   -880102.67521
 92  4 17 18 57  0.0000000  0  4G18G11G19G 2
  20340577.6804    -187323.56548   -139222.68562
  24395038.6644   -1095915.76545   -750663.92761
  21094461.9304    -391287.37847   -292418.01862
  24576963.8754   -1344998.11445   -921892.32461
 92  4 17 18 57 15.0000000  0  4G18G11G19G 2
  20339380.672     -193611.751 8   -144122.58722
  24386784.4384   -1139291.10845   -784462.75861
  21091555.3204    -406556.94147   -304316.37062
  24566761.820    -1398614.834 5   -963671.42321
 92  4 17 18 57 30.0000000  0  4G18G11G19G 2
  20338204.141     -199795.814 8   -148941.34622
  24378537.836    -1182620.267 5   -818225.56121
  21088656.6884    -421799.05146   -316193.32962
  24556561.797    -1452213.804 5  -1005436.69921
 92  4 17 18 57 45.0000000  0  4G18G11G19G 2
  20337047.8834    -205869.16148   -153673.83462
  24370302.484    -1225899.260 5   -851949.32021
  21085759.0474    -437012.01847   -328047.58562
  24546367.234    -1505788.627 5  -1047183.16221
 92  4 17 18 58  0.0000000  0  4G18G11G19G 2
  20335913.8284    -211831.00048   -158319.43362
  24362078.2664   -1269129.20445   -885634.84161
  21082869.8134    -452198.21447   -339880.97362
  24536179.7504   -1559338.04445  -1088909.81861
 92  4 17 18 58 15.0000000  0  4G18G11G19G 2
  20334801.2344    -217675.61148   -162873.68762
  24353860.586    -1312303.643 5   -919277.13421
  21079988.625     -467350.107 7   -351687.62822
  24525993.6174   -1612853.98645  -1130610.40961
 92  4 17 18 58 30.0000000  0  4G18G11G19G 2
  20333712.102     -223399.455 8   -167333.83822
  24345657.766    -1355416.485 5   -952871.39021
  21077113.4774    -482459.99046   -363461.55362
  24515818.680    -1666328.781 5  -1172278.93621
 92  4 17 18 58 45.0000000  0  5G18G11G19G 2G 6
  20332647.3524    -228998.15948   -171696.47462
  24337465.203    -1398464.110 5   -986414.85821
  21074245.5784    -497524.98947   -375200.50262
  24505648.547    -1719758.396 5  -1213912.25221
  24985064.078          -0.32913
 92  4 17 18 59  0.0000000  0  5G18G11G19G 2G 6
  20331604.656     -234473.480 8   -175962.96922
  24329284.398    -1441449.680 5  -1019909.96921
  21071387.7734    -512545.19247   -386904.54562
  24495491.844    -1773144.562 5  -1255511.69921
  24977374.266      -40403.396 3
 92  4 17 18 59 15.0000000  0  5G18G11G19G 2G 6
  20330587.2734    -239819.22948   -180128.50162
  24321118.047    -1484368.177 5  -1053352.79821
  21068540.3204    -527513.65847   -398568.27762
  24485340.1414   -1826482.54845  -1297073.59361
  24969686.086      -80768.299 3
 92  4 17 18 59 30.0000000  0  5G18G11G19G 2G 6
  20329595.234     -245038.871 8   -184195.76922
  24312964.242    -1527220.574 5  -1086744.14921
  21065700.8524    -542427.93447   -410189.78262
  24475198.938    -1879771.434 5  -1338597.26721
  24962020.6094    -121096.45443
 92  4 17 18 59 45.0000000  0  5G18G11G19G 2G 6
  20328625.250     -250131.187 8   -188163.81822
  24304822.3594   -1570004.35145  -1120082.02961
  21062875.047     -557284.741 7   -421766.50122
  24465069.180    -1933010.994 5  -1380082.48721
  24954350.7344    -161385.82743
 92  4 17 19  0  0.0000000  0  5G18G11G19G 2G 6
  20327678.117     -255104.494 8   -192039.13722
  24296690.8674   -1612727.97645  -1153373.03361
  21060057.500     -572092.221 7   -433304.78422
  24454943.9304   -1986213.87245  -1421539.12661
  24946689.789     -201645.425 3
 92  4 17 19  0 15.0000000  0  5G18G11G19G 2G 6
  20326755.875     -259952.202 8   -195816.58522
  24288574.7664   -1655383.31745  -1186610.81161
  21057249.500     -586839.388 7   -444796.07022
  24444827.3754   -2039370.76045  -1462959.91761
  24939039.031     -241867.532 3        -0.48331
 92  4 17 19  0 30.0000000  0  5G18G11G19G 2G 6
  20325856.242     -264675.119 8   -199496.79222
  24280471.3364   -1697968.43445  -1219793.89661
  21054455.961     -601521.976 7   -456237.03422
  24434723.125    -2092479.829 5  -1504343.46521
  24931391.4614    -282050.68943    -31312.02661
 92  4 17 19  0 45.0000000  0  5G18G11G19G 2G 6
  20324983.664     -269271.235 8   -203078.19322
  24272381.508    -1740482.047 5  -1252921.26221
  21051673.5394    -616141.30747   -467628.71262
  24424625.625    -2145541.242 5  -1545689.87721
  24923754.6484    -322193.85043    -62592.37061
 92  4 17 19  1  0.0000000  0  5G18G11G19G 2G 6
  20324132.492     -273741.259 8   -206561.34222
  24264304.7274   -1782924.30345  -1285993.03161
  21048903.898     -630700.058 7   -478973.18322
  24414533.7034   -2198557.74745  -1587001.28461
  24916117.9384    -362297.90143    -93842.21161
 92  4 17 19  1 15.0000000  0  5G18G11G19G 2G 6
  20323305.133     -278089.373 8   -209949.49822
  24256239.7974   -1825298.36745  -1319011.67461
  21046143.656     -645202.552 7   -490273.81222
  24404453.734    -2251534.199 5  -1628281.49921
  24908493.539     -402366.329 3   -125064.36621
 92  4 17 19  1 30.0000000  0  5G18G11G19G 2G 6
  20322501.453     -282312.078 8   -213239.93122
  24248190.6094   -1867599.49445  -1351973.47461
  21043395.664     -659647.634 7   -501529.70722
  24394380.2424   -2304466.77445  -1669527.51461
  24900877.352     -442394.706 3   -156255.20421
 92  4 17 19  1 45.0000000  0  5G18G11G19G 2G 6
  20321721.211     -286408.070 8   -216431.62822
  24240155.6954   -1909825.84145  -1384877.00661
  21040657.945     -674035.084 7   -512740.69222
  24384316.688    -2357354.119 5  -1710738.30421
  24893268.992     -482381.932 3   -187414.08621
 92  4 17 19  2  0.0000000  0  5G18G11G19G 2G 6
  20320967.0634    -290377.72948   -219524.87762
  24232133.3754   -1951977.76645  -1417722.54061
  21037930.0704    -688367.27247   -523908.62562
  24374259.9304   -2410199.04045  -1751916.00061
  24885666.6564    -522328.65743   -218541.34461
 92  4 17 19  2 15.0000000  0  5G18G11G19G 2G 6
  20320236.0234    -294219.48948   -222518.46662
  24224127.1644   -1994052.16645  -1450507.68561
  21035212.1484    -702640.80547   -535030.84662
  24364211.5394   -2462995.48245  -1793055.96361
  24878069.8984    -562232.23142   -249634.98461
 92  4 17 19  2 30.0000000  0  5G18G11G19G 2G 6
  20319527.5944    -297938.63848   -225416.51362
  24216134.7734   -2036053.26045  -1483235.69761
  21032507.5474    -716861.56947   -546111.95462
  24354174.5784   -2515745.64245  -1834159.84561
  24870481.8524    -602097.42942   -280698.74461
 92  4 17 19  2 45.0000000  0  5G18G11G19G 2G 6
  20318844.5004    -301529.75148   -228214.79562
  24208156.4774   -2077978.26045  -1515904.42861
  21029811.6334    -731031.22447   -557153.23062
  24344148.328    -2568449.643 5  -1875227.75921
  24862907.0944    -641921.80142   -311730.60861
 92  4 17 19  3  0.0000000  0  5G18G11G19G 2G 6
  20318187.3984    -304982.45348   -230905.22162
  24200193.6094   -2119819.40845  -1548507.78161
  21027126.0704    -745143.72347   -568149.98262
  24334130.195    -2621099.630 5  -1916253.57321
  24855343.0784    -681698.12643   -342725.07361
 92  4 17 19  3 15.0000000  0  5G18G11G19G 2G 6
  20317556.555     -308296.328 8   -233487.47422
  24192248.5784   -2161577.40645  -1581046.36861
  21024452.8524    -759197.14847   -579100.69462
  24324117.891    -2673694.460 5  -1957236.43321
  24847778.883     -721427.460 3   -373682.93321
 92  4 17 19  3 30.0000000  0  5G18G11G19G 2G 6
  20316954.102     -311463.949 8   -235955.76022
  24184318.742    -2203242.694 5  -1613512.72521
  21021791.2034    -773181.83647   -589997.84862
  24314120.680    -2726222.037 5  -1998166.87621
  24840227.703     -761100.658 3   -404597.04721
 92  4 17 19  3 45.0000000  0  5G18G11G19G 2G 6
  20316378.563     -314487.446 8   -238311.74522
  24176407.484    -2244816.369 5  -1645907.68721
  21019142.4534    -787097.48747   -600841.21262
  24304141.852    -2778681.292 5  -2039044.09021
  24832696.0944    -800719.46843   -435468.73461
 92  4 17 19  4  0.0000000  0  5G18G11G19G 2G 6
  20315831.648     -317362.212 8   -240551.83122
  24168516.5634   -2286292.88845  -1678226.92561
  21016509.2114    -800938.13047   -611626.12562
  24294173.8594   -2831065.46745  -2079862.78561
  24825161.016     -840278.719 3   -466294.03021
 92  4 17 19  4 15.0000000  0  5G18G11G19G 2G 6
  20315314.906     -320080.704 8   -242670.15022
  24160642.641    -2327664.165 5  -1710464.19221
  21013890.2114    -814696.65147   -622347.04462
  24284220.164    -2883365.852 5  -2120616.22021
  24817647.938     -879770.684 3   -497066.95521
 92  4 17 19  4 30.0000000  0  5G18G11G19G 2G 6
  20314828.8754    -322632.59148   -244658.64262
  24152792.7734   -2368919.83645  -1742611.34761
  21011292.2344    -828362.55946   -632995.80462
  24274284.672    -2935573.114 5  -2161297.06621
  24810148.3054    -919185.72043   -527779.81161
 92  4 17 19  4 45.0000000  0  5G18G11G19G 2G 6
  20314373.102     -325023.951 8   -246522.05222
  24144962.9774   -2410063.31745  -1774671.10161
  21008706.4064    -841939.27347   -643575.05762
  24264367.250    -2987692.646 5  -2201909.55821
  24802660.5314    -958527.50143   -558435.68561
 92  4 17 19  5  0.0000000  0  5G18G11G19G 2G 6
  20313951.195     -327245.107 8   -248252.83522
  24137156.0704   -2451082.16945  -1806633.73161
  21006142.9224    -855412.94747   -654074.02362
  24254469.2034   -3039711.90345  -2242443.92161
  24795187.422     -997784.099 3   -589025.15821
 92  4 17 19  5 15.0000000  0  5G18G11G19G 2G 6
  20313560.680     -329298.533 8   -249852.92022
  24129374.617    -2491974.407 5  -1838497.70321
  21003598.2894    -868781.68047   -664491.21062
  24244588.297    -3091628.981 5  -2282898.64621
  24787735.969    -1036953.963 3   -619547.01121
 92  4 17 19  5 30.0000000  0  5G18G11G19G 2G 6
  20313200.539     -331185.875 8   -251323.58722
  24121618.1484   -2532737.24945  -1870260.84561
  21001076.4844    -882042.94747   -674824.65862
  24234729.469    -3143441.675 5  -2323272.04821
  24780297.852    -1076034.754 3   -649999.48521
 92  4 17 19  5 45.0000000  0  5G18G11G19G 2G 6
  20312873.391     -332909.592 8   -252666.75722
  24113886.3594   -2573373.13045  -1901925.04161
  20998570.7894    -895201.56447   -685078.11762
  24224887.4224   -3195153.85045  -2363567.11461
  24772881.047    -1115029.285 3   -680384.75421
 92  4 17 19  6  0.0000000  0  5G18G11G19G 2G 6
  20312574.961     -334475.260 8   -253886.77322
  24106175.070    -2613889.579 5  -1933496.17721
  20996085.4454    -908265.90947   -695258.12062
  24215066.172    -3246775.577 5  -2403791.69321
  24765473.664    -1153945.681 3   -710709.13521
 92  4 17 19  6 15.0000000  0  6G18G11G19G 2G 6G16
  20312305.500     -335894.991 8   -254993.07022
  24098481.609    -2654299.765 5  -1964984.53821
  20993612.9924    -921250.75947   -705376.17962
  24205255.625    -3298322.115 5  -2443957.69921
  24758076.406    -1192797.460 3   -740983.13021
  24830891.3054         -0.17954
 92  4 17 19  6 30.0000000  0  6G18G11G19G 2G 6G16
  20312060.977     -337177.524 8   -255992.46122
  24090811.6254   -2694614.55745  -1996398.54261
  20991158.5634    -934167.44746   -715441.12662
  24195460.398    -3349806.960 5  -2484075.61321
  24750695.773    -1231596.032 3   -771215.69621
  24823256.9144     -40113.82844
 92  4 17 19  6 45.0000000  0  6G18G11G19G 2G 6G16
  20311840.648     -338336.681 8   -256895.71122
  24083155.8834   -2734846.95445  -2027748.33161
  20988707.7424    -947030.30147   -725464.12762
  24185672.6644   -3401242.42345  -2524155.05161
  24743319.734    -1270354.681 3   -801417.15821
  24815646.070      -80121.741 4
 92  4 17 19  7  0.0000000  0  6G18G11G19G 2G 6G16
  20311643.547     -339370.771 8   -257701.51422
  24075516.031    -2774996.935 5  -2059033.91321
  20986271.1954    -959843.17247   -735448.18362
  24175892.430    -3452626.705 5  -2564194.60921
  24735951.6804   -1309073.99443   -831587.95161
  24808044.5084    -120023.62544        -0.12671
 92  4 17 19  7 15.0000000  0  6G18G11G19G 2G 6G16
  20311469.1024    -340282.18348   -258411.71562
  24067888.813    -2815070.977 5  -2090260.32921
  20983840.0944    -972614.96447   -745400.22362
  24166123.6254   -3503967.58045  -2604200.34261
  24728590.7894   -1347760.93043   -861733.53561
  24800478.391     -159827.485 4    -31016.04921
 92  4 17 19  7 30.0000000  0  6G18G11G19G 2G 6G16
  20311318.211     -341078.988 8   -259032.61822
  24060277.641    -2855079.940 5  -2121436.01821
  20981418.9304    -985356.94646   -755329.04162
  24156357.5164   -3555276.33645  -2644181.05261
  24721231.953    -1386426.792 3   -891862.65821
  24792917.3524    -199546.67444    -61966.00961
 92  4 17 19  7 45.0000000  0  6G18G11G19G 2G 6G16
  20311190.313     -341759.180 8   -259562.65122
  24052677.094    -2895024.604 5  -2152561.60721
  20978996.0004    -998068.10247   -765233.83462
  24146602.6024   -3606552.17245  -2684136.09261
  24713879.7814   -1425072.74843   -921976.34661
  24785374.930     -239179.574 4    -92848.75421
 92  4 17 19  8  0.0000000  0  6G18G11G19G 2G 6G16
  20311084.031     -342324.056 8   -260002.82422
  24045086.9304   -2934907.67045  -2183639.21061
  20976583.9924   -1010750.66447   -775116.35062
  24136848.1804   -3657799.10845  -2724068.61361
  24706527.8134   -1463701.89343   -952076.91061
  24777850.789     -278726.599 4   -123664.51021
 92  4 17 19  8 15.0000000  0  6G18G11G19G 2G 6G16
  20310993.797     -342781.304 8   -260359.13622
  24037505.977    -2974735.252 5  -2214673.56321
  20974174.8134   -1023407.46347   -784978.78462
  24127099.3524   -3709024.35445  -2763984.22961
  24699175.0864   -1502320.94943   -982169.59461
  24770341.7894    -318194.32244   -154418.55761
 92  4 17 19  8 30.0000000  0  6G18G11G19G 2G 6G16
  20310926.242     -343131.444 8   -260631.99722
  24029937.5084   -3014506.95045  -2245664.37061
  20971771.4384   -1036037.00447   -794819.98162
  24117358.0164   -3760228.05045  -2803883.06161
  24691831.875    -1540929.892 3  -1012254.41621
  24762845.2974    -357580.68044   -185109.14461
 92  4 17 19  8 45.0000000  0  6G18G11G19G 2G 6G16
  20310879.445     -343379.268 8   -260825.11322
  24022381.8054   -3054223.77845  -2276612.44261
  20969372.9144   -1048638.70947   -804639.48562
  24107618.594    -3811409.874 5  -2843764.85021
  24684484.8204   -1579530.31343  -1042332.59061
  24755369.531     -396884.359 5   -215735.35121
 92  4 17 19  9  0.0000000  0  6G18G11G19G 2G 6G16
  20310850.930     -343527.963 8
  24014833.8284   -3093888.12745  -2307519.61861
  20966978.1334   -1061215.19547   -814439.33762
  24097882.703    -3862570.186 5  -2883629.85621
  24677140.852    -1618124.756 3  -1072406.11921
  24747901.805     -436107.815 5   -246299.01721
 92  4 17 19  9 15.0000000  0  6G18G11G19G 2G 6G16
  20310839.711     -343576.275 8
  24007294.219    -3133499.989 5  -2338385.89121
  20964591.4534   -1073764.42947   -824217.95862
  24088150.4614   -3913711.42545  -2923480.02161
  24669799.055    -1656713.992 3  -1102475.59721
  24740449.7114    -475252.75945   -276801.52561
 92  4 17 19  9 30.0000000  0  6G18G11G19G 2G 6G16
  20310853.563     -343527.004 8
  23999768.383    -3173060.082 5  -2369211.82221
  20962210.3524   -1086284.32247   -833973.71662
  24078421.531    -3964836.573 5  -2963317.64121
  24662456.7664   -1695298.93843  -1132541.69361
  24733015.359     -514320.464 4   -307243.83621
 92  4 17 19  9 45.0000000  0  6G18G11G19G 2G 6G16
  20310878.273     -343382.284 8
  23992249.289    -3212567.387 5  -2399996.63021
  20959832.2274   -1098772.81147   -843704.99862
  24068695.156    -4015943.051 5  -3003140.70721
  24655113.7274   -1733879.18043  -1162604.17261
  24725598.008     -553308.722 4   -337624.23121
 92  4 17 19 10  0.0000000  0  6G18G11G19G 2G 6G16
  20310925.297     -343139.948 8
  23984741.6334   -3252018.38345  -2430737.56261
  20957464.9454   -1111228.61246   -853410.81962
  24058973.695    -4067028.347 5  -3042947.26621
  24647773.438    -1772451.708 3  -1192660.60121
  24718194.2034    -592211.85244   -367938.34161
 92  4 17 19 10 15.0000000  0  6G18G11G19G 2G 6G16
  20310988.703     -342805.538 8   -260378.15722
  23977243.4064   -3291417.64845  -2461438.18761
  20955096.9144   -1123659.46547   -863097.19562
  24049255.7034   -4118099.41645  -3082742.74161
  24640430.273    -1811021.449 3  -1222714.91221
  24710801.6024    -631036.45444   -398191.22461
 92  4 17 19 10 30.0000000  0  6G18G11G19G 2G 6G16
  20311070.570     -342378.365 8   -260045.31222
  23969756.898    -3330764.272 5  -2492097.78621
  20952735.7344   -1136068.93047   -872766.90462
  24039537.8984   -4169153.94445  -3122525.33661
  24633096.0554   -1849587.80443  -1252766.55661
  24703438.8444    -669782.67145   -428383.03861
 92  4 17 19 10 45.0000000  0  6G18G11G19G 2G 6G16
  20311170.813     -341854.262 8   -259636.94322
  23962281.633    -3370054.230 5  -2522713.24121
  20950376.9924   -1148457.77947   -882420.54462
  24029827.602    -4220185.587 5  -3162290.08921
  24625758.430    -1888147.468 3
  24696077.5084    -708447.81745
 92  4 17 19 11  0.0000000  0  6G18G11G19G 2G 6G16
  20311287.453     -341236.592 8   -259155.65922
  23954814.2274   -3409292.04246  -2553288.06561
  20948024.6484   -1160833.09847   -892063.64562
  24020119.7194   -4271198.21745  -3202040.02261
  24618417.477    -1926705.182 3
  24688729.9534    -747039.67244
 92  4 17 19 11 15.0000000  0  6G18G11G19G 2G 6G16
  20311426.406     -340516.517 8   -258594.58322
  23947358.2504   -3448469.61345  -2583815.93561
  20945672.4224   -1173186.49547   -901689.65962
  24010417.469    -4322185.623 5  -3241770.30021
  24611085.063    -1965253.584 3
  24681402.1484    -785553.13744
 92  4 17 19 11 30.0000000  0  6G18G11G19G 2G 6G16
  20311579.648     -339702.460 8   -257960.27122
  23939912.289    -3487593.005 5  -2614301.58421
  20943323.8914   -1185526.30747   -911305.09462
  24000720.883    -4373155.576 5  -3281487.00821
  24603750.367    -2003798.916 3  -1372930.84221
  24674089.039     -823993.191 4   -548546.87521
 92  4 17 19 11 45.0000000  0  6G18G11G19G 2G 6G16
  20311754.852     -338790.043 8   -257249.32022
  23932480.625    -3526657.958 6  -2644741.70221
  20940979.1094   -1197849.87747   -920907.86262
  23991024.242    -4424102.333 5  -3321185.61521
  24596416.3524   -2042337.40144  -1402960.77761
  24666787.1724    -862355.22644   -578439.32761
 92  4 17 19 12  0.0000000  0  6G18G11G19G 2G 6G16
  20311946.047     -337774.179 8   -256457.75922
  23925057.4694   -3565659.90645  -2675132.72361
  20938637.8524   -1210154.27947   -930495.70762
  23981336.2034   -4475021.20745  -3360862.50161
  24589084.3284   -2080865.09144  -1432982.29461
  24659502.172     -900631.925 4   -608265.28421
 92  4 17 19 12 15.0000000  0  6G18G11G19G 2G 6G16
  20312159.008     -336660.095 8   -255589.66222
  23917646.742    -3604603.461 5  -2705478.24921
  20936298.9924   -1222445.54247   -940073.30662
  23971648.2034   -4525918.28845  -3400522.42561
  24581752.5784   -2119386.87943  -1462999.22361
  24652238.8524    -938830.31444   -638030.22961
 92  4 17 19 12 30.0000000  0  6G18G11G19G 2G 6G16
  20312391.250     -335443.591 8   -254641.75322
  23910248.680    -3643485.408 5  -2735775.76321
  20933963.2584   -1234720.53447   -949638.23062
  23961968.2194   -4576789.98745  -3440162.54661
  24574426.7974   -2157900.08143  -1493009.48161
  24644982.414     -976948.696 4   -667732.81121
 92  4 17 19 12 45.0000000  0  6G18G11G19G 2G 6G16
  20312642.305     -334125.142 8   -253614.41222
  23902861.8594   -3682305.68445  -2766025.21761
  20931630.0474   -1246977.37547   -959189.00962
  23952293.789    -4627634.521 5  -3479781.52721
  24567097.8674   -2196405.03543  -1523013.29361
  24637744.1564   -1014985.71345   -697372.00961
 92  4 17 19 13  0.0000000  0  6G18G11G19G 2G 6G16
  20312914.203     -332698.578 8   -252502.82822
  23895486.6954   -3721057.68445  -2796221.46761
  20929303.4774   -1259208.22347   -968719.53162
  23942624.5394   -4678447.88945  -3519376.20661
  24559770.719    -2234895.788 3  -1553006.04921
  24630521.1644   -1052933.12144   -726941.38061
 92  4 17 19 13 15.0000000  0  6G18G11G19G 2G 6G16
  20313207.047     -331154.826 8   -251299.92222
  23888128.438    -3759731.328 5  -2826356.68021
  20926981.9534   -1271401.53747   -978220.80962
  23932961.969    -4729221.079 5  -3558939.58121
  24552453.4924   -2273362.46044  -1582980.03361
  24623323.0704   -1090779.35244   -756431.88461
 92  4 17 19 13 30.0000000  0  6G18G11G19G 2G 6G16
  20313521.844     -329502.439 8   -250012.36922
  23880783.164    -3798335.807 5  -2856437.97821
  20924668.2504   -1283567.73747   -987700.95962
  23923305.680    -4779965.610 5  -3598480.64621
  24545136.4144   -2311814.62744  -1612942.73161
  24616133.945    -1128530.541 4   -785848.36921
 92  4 17 19 13 45.0000000  0  6G18G11G19G 2G 6G16
  20313855.109     -327748.117 8   -248645.38822
  23873447.1414   -3836878.43145
  20922355.8674   -1295714.91647   -997166.28562
  23913652.8524   -4830688.35945  -3638004.72861
  24537818.5234   -2350260.36243
  24608965.539    -1166193.676 4   -815196.22121
 92  4 17 19 14  0.0000000  0  6G18G11G19G 2G 6G16
  20314211.266     -325885.091 8   -247193.70222
  23866125.734    -3875352.037 5
  20920047.8524   -1307837.81147  -1006612.69062
  23904007.430    -4881380.157 5  -3677504.69321
  24530508.2034   -2388692.65443
  24601819.4924   -1203760.88344   -844469.35561
 92  4 17 19 14 15.0000000  0  6G18G11G19G 2G 6G16
  20314585.891     -323913.612 8   -245657.50822
  23858817.063    -3913753.298 5
  20917747.1644   -1319933.43647  -1016037.84262
  23894368.359    -4932037.496 5  -3716977.80921
  24523198.5944   -2427108.80844
  24594689.7034   -1241229.85544   -873665.87861
 92  4 17 19 14 30.0000000  0  6G18G11G19G 2G 6G16
  20314981.688     -321830.586 8   -244034.39422
  23851523.984    -3952079.319 5  -2976237.65121
  20915451.6414   -1331997.45247  -1025438.37062
  23884735.164    -4982657.877 5  -3756422.13321
  24515887.672    -2465506.188 3  -1732702.17921
  24587575.680    -1278600.279 4   -902785.67021
 92  4 17 19 14 45.0000000  0  6G18G11G19G 2G 6G16
  20315399.977     -319637.694 8   -242325.66922
  23844243.6954   -3990330.47345  -3006043.62161
  20913163.5784   -1344029.15247  -1034813.71162
  23875109.9144   -5033240.73245  -3795837.21461
  24508587.7504   -2503885.74843  -1762608.28661
  24580487.734    -1315870.249 4   -931827.15621
 92  4 17 19 15  0.0000000  0  6G18G11G19G 2G 6G16
  20315836.945     -317340.198 8   -240535.43522
  23836979.5944   -4028509.53745  -3035793.42361
  20910877.9144   -1356030.85347  -1044165.68162
  23865488.0394   -5083790.47345  -3835226.50061
  24501284.3364   -2542250.68943  -1792502.99661
  24573409.2584   -1353042.94444   -960792.86461
 92  4 17 19 15 15.0000000  0  6G18G11G19G 2G 6G16
  20316294.367     -314936.864 8   -238662.72822
  23829727.023    -4066614.322 5  -3065485.33121
  20908600.2974   -1367997.60647  -1053490.41662
  23855876.0944   -5134306.39445  -3874589.43361
  24493989.289    -2580599.261 3  -1822384.91021
  24566356.336    -1390117.513 4   -989682.09621
 92  4 17 19 15 30.0000000  0  6G18G11G19G 2G 6G16
  20316772.758     -312423.853 8   -236704.55922
  23822491.516    -4104640.421 5  -3095115.92021
  20906334.5314   -1379923.33046  -1062783.18662
  23846270.813    -5184784.222 5  -3913922.68521
  24486697.031    -2618927.531 3  -1852251.04321
  24559324.195    -1427089.109 4  -1018491.10521
 92  4 17 19 15 45.0000000  0  6G18G11G19G 2G 6G16
  20317270.039     -309807.265 8   -234665.67922
  23815268.781    -4142593.899 5  -3124689.93921
  20904069.3754   -1391813.89247  -1072048.55662
  23836671.477    -5235228.346 5  -3953229.68021
  24479400.625    -2657242.035 3  -1882106.43321
  24552302.008    -1463963.225 4  -1047224.13621
 92  4 17 19 16  0.0000000  0  6G18G11G19G 2G 6G16
  20317787.383     -307086.690 8   -232545.76922
  23808060.492    -4180472.323 5  -3154205.47721
  20901813.8524   -1403664.96947  -1081283.16362
  23827079.0864   -5285633.98445  -3992506.69461
  24472116.4304   -2695540.71544  -1911949.50861
  24545303.4924   -1500738.09944  -1075879.84161
 92  4 17 19 16 15.0000000  0  6G18G11G19G 2G 6G16
  20318325.078     -304262.544 8   -230345.16022
  23800868.328    -4218274.940 6  -3183661.93521
  20899567.1334   -1415474.65747  -1090485.51762
  23817494.289    -5336000.793 5  -4031753.45321
  24464827.133    -2733823.434 4  -1941780.12421
  24538332.4534   -1537414.70644  -1104458.99561
 92  4 17 19 16 30.0000000  0  6G18G11G19G 2G 6G16
  20318882.734     -301333.406 8   -228062.73422
  23793687.742    -4256002.119 6  -3213059.60621
  20897327.7034   -1427239.92147  -1099653.25762
  23807917.0164   -5386331.88645  -4070972.37261
  24457546.977    -2772090.823 3  -1971598.79721
  24531364.9694   -1573994.12244  -1132962.39561
 92  4 17 19 16 45.0000000  0  6G18G11G19G 2G 6G16
  20319460.438     -298297.004 8   -225696.73522
  23786523.7814   -4293651.69546  -3242396.81861
  20895097.2194   -1438958.07447  -1108784.28162
  23798344.9384   -5436624.64645  -4110161.44961
  24450270.734    -2810341.025 3  -2001404.07621
  24524422.4224   -1610473.57044  -1161387.93861
 92  4 17 19 17  0.0000000  0  6G18G11G19G 2G 6G16
  20320059.570     -295150.386 8   -223244.84522
  23779374.6414   -4331220.21846  -3271670.86561
  20892879.5944   -1450627.02446  -1117876.96862
  23788782.0704   -5486875.43745  -4149317.80961
  24442997.703    -2848571.226 4  -2031193.75721
  24517499.063    -1646850.043 4  -1189733.21121
 92  4 17 19 17 15.0000000  0  6G18G11G19G 2G 6G16
  20320679.109     -291893.032 8   -220706.66922
  23772239.0474   -4368709.57946  -3300883.22461
  20890665.4774   -1462248.40547  -1126932.58862
  23779226.664    -5537087.715 5  -4188444.15021
  24435721.891    -2886784.019 3  -2060969.88221
  24510603.445    -1683125.660 5  -1217999.89321
 92  4 17 19 17 30.0000000  0  6G18G11G19G 2G 6G16
  20321320.680     -288526.187 8   -218083.17822
  23765120.6484   -4406122.24146  -3330035.82561
  20888462.1094   -1473828.07147  -1135955.70462
  23769679.609    -5587263.385 5  -4227541.98821
  24428452.2504   -2924981.85243  -2090734.32761
  24503713.2194   -1719301.04944  -1246188.52561
 92  4 17 19 17 45.0000000  0  6G18G11G19G 2G 6G16
  20321981.570     -285046.515 8   -215371.76922
  23758015.3914   -4443455.09646  -3359126.25861
  20886266.6564   -1485366.99147  -1144947.06962
  23760140.273    -5637398.624 5  -4266608.30621
  24421190.375    -2963162.240 3  -2120485.21521
  24496850.9924   -1755375.58145  -1274298.50461
 92  4 17 19 18  0.0000000  0  6G18G11G19G 2G 6G16
  20322665.953     -281456.435 8   -212574.33022
  23750928.5314   -4480708.89546  -3388155.05561
  20884078.9844   -1496867.85246  -1153908.77362
  23750607.9304   -5687492.82245  -4305642.65861
  24413926.188    -3001326.475 4  -2150223.46521
  24490003.5234   -1791353.86944  -1302333.53661
 92  4 17 19 18 15.0000000  0  6G18G11G19G 2G 6G16
  20323370.102     -277750.479 8   -209686.59722
  23743855.1564   -4517876.13246  -3417116.43761
  20881897.1174   -1508326.14547  -1162837.31262
  23741082.7344   -5737540.54945  -4344640.79861
  24406667.609    -3039467.337 3  -2179943.51621
  24483179.883    -1827230.132 5  -1330289.03721
 92  4 17 19 18 30.0000000  0  6G18G11G19G 2G 6G16
  20324097.000     -273929.505 8   -206709.24122
  23736797.563    -4554959.162 6  -3446012.19521
  20879726.4844   -1519746.16146  -1171736.02562
  23731566.859    -5787545.712 5  -4383605.76921
  24399415.648    -3077587.636 3  -2209647.54921
  24476368.523    -1863005.800 5  -1358166.16421
 92  4 17 19 18 45.0000000  0  6G18G11G19G 2G 6G16
  20324847.9454    -269987.87948   -203637.87162
  23729758.445    -4591952.070 6  -3474837.73421
  20877558.8914   -1531124.39947  -1180602.17962
  23722061.9064   -5837502.90845  -4422533.37461
  24392168.766    -3115681.942 3  -2239331.31321
  24469582.8524   -1898673.20645  -1385958.94161
 92  4 17 19 19  0.0000000  0  6G18G11G19G 2G 6G16
  20325620.281     -265928.704 8   -200474.90422
  23722735.1724   -4628856.48346  -3503594.30061
  20875401.1334   -1542467.14346  -1189440.68062
  23712563.039    -5887413.899 5  -4461424.97421
  24384920.3594   -3153752.47343  -2268996.56561
  24462813.0234   -1934231.96744  -1413667.05761
 92  4 17 19 19 15.0000000  0  6G18G11G19G 2G 6G16
  20326415.344     -261752.583 8   -197220.80822
  23715729.883    -4665673.486 6  -3532282.76421
  20873247.3984   -1553778.51447  -1198254.73062
  23703073.0944   -5937282.86845  -4500283.82161
  24377678.758    -3191800.455 4  -2298644.26421
  24456068.281    -1969682.610 4  -1441290.92421
 92  4 17 19 19 30.0000000  0  6G18G11G19G 2G 6G16
  20327233.5634    -257451.40148   -193869.26562
  23708742.336    -4702393.638 6  -3560895.76221
  20871106.9224   -1565050.31746  -1207037.95962
  23693593.914    -5987099.715 5  -4539102.06521
  24370442.773    -3229817.100 4  -2328267.51021
  24449349.7034   -2005016.08345  -1468823.48561
 92  4 17 19 19 45.0000000  0  6G18G11G19G 2G 6G16
  20328074.3444    -253032.76748   -190426.20362
  23701770.1804   -4739022.39345  -3589437.54161
  20868965.9064   -1576288.24447  -1215794.77962
  23684123.7584   -6036866.75945  -4577881.49661
  24363218.164    -3267808.146 4  -2357870.80821
  24442643.7734   -2040240.36345  -1496270.96661
 92  4 17 19 20  0.0000000  0  6G18G11G19G 2G 6G16
  20328938.461     -248490.577 8   -186886.85822
  23694818.9614   -4775554.46046  -3617903.99761
  20866837.0474   -1587487.13146  -1224521.18562
  23674663.5164   -6086577.25645  -4616616.85561
  24355990.6094   -3305768.78644  -2387450.44161
  24435964.992    -2075350.802 5  -1523629.72421
 92  4 17 19 20 15.0000000  0  6G18G11G19G 2G 6G16
  20329825.820     -243829.760 8   -183255.07922
  23687884.1954   -4811995.06046  -3646299.18061
  20864708.4064   -1598652.91147  -1233221.78862
  23665212.6024   -6136239.64845  -4655314.76561
  24348774.672    -3343704.737 4  -2417010.80621
  24429300.5784   -2110351.37945  -1550902.91261
 92  4 17 19 20 30.0000000  0  6G18G11G19G 2G 6G16
  20330736.5394    -239046.07248   -179527.56162
  23680968.5474   -4848341.48946  -3674620.98161
  20862593.3364   -1609779.97047  -1241892.22362
  23655772.594    -6185853.834 5  -4693975.07821
  24341558.773    -3381613.728 4  -2446550.17721
  24422668.7894   -2145237.66745  -1578086.98361
 92  4 17 19 20 45.0000000  0  6G18G11G19G 2G 6G16
  20331671.070     -234138.401 8   -175703.42822
  23674069.430    -4884593.266 6  -3702869.01721
  20860482.0314   -1620866.33047  -1250530.94662
  23646340.234    -6235419.973 6  -4732597.97021
  24334349.1094   -3419495.60544  -2476068.42361
  24416048.266    -2180008.600 5  -1605181.22521
 92  4 17 19 21  0.0000000  0  6G18G11G19G 2G 6G16
  20332626.9144    -229109.97948   -171785.20762
  23667188.719    -4920751.953 5  -3731044.53021
  20858380.3834   -1631913.14347  -1259138.84762
  23636916.555    -6284939.787 6  -4771184.75621
  24327146.3204   -3457352.32944  -2505567.06261
  24409449.016    -2214669.094 5  -1632189.35821
 92  4 17 19 21 15.0000000  0  6G18G11G19G 2G 6G16
  20333606.5704    -223958.12048   -167770.80162
  23660325.0084   -4956816.92645  -3759147.01161
  20856285.5474   -1642919.35947  -1267715.11562
  23627502.242    -6334412.051 6  -4809734.48921
  24319946.2584   -3495184.11144  -2535046.25561
  24402869.9614   -2249221.26545  -1659113.13661
 92  4 17 19 21 30.0000000  0  6G18G11G19G 2G 6G16
  20334611.367     -218679.692 8   -163657.76822
  23653480.430    -4992787.009 5  -3787175.56021
  20854200.0004   -1653882.07147  -1276257.48662
  23618097.313    -6383833.699 6  -4848244.78421
  24312752.2034   -3532989.78344  -2564505.12661
  24396323.8444   -2283668.38045  -1685955.04361
 92  4 17 19 21 45.0000000  0  6G18G11G19G 2G 6G16
  20335640.3984    -213276.91348   -159447.83862
  23646651.5084   -5028664.90646  -3815132.27061
  20852120.2274   -1664803.09547  -1284767.36762
  23608703.586    -6433204.432 6  -4886715.40121
  24305565.367    -3570772.708 4  -2593946.25421
  24389784.516    -2318013.100 5  -1712717.13121
 92  4 17 19 22  0.0000000  0  6G18G11G19G 2G 6G16
  20336691.4694    -207752.05248   -155142.77962
  23639843.7664   -5064453.24546  -3843019.20761
  20850052.1564   -1675686.43747  -1293247.88762
  23599317.4694   -6482529.23346  -4925150.22361
  24298374.1884   -3608535.97344  -2623372.08061
  24383266.938    -2352257.935 5  -1739401.41421
 92  4 17 19 22 15.0000000  0  6G18G11G19G 2G 6G16
  20337767.6954    -202096.70848   -150736.04562
  23633052.273    -5100143.557 6  -3870829.75021
  20847987.7424   -1686522.77347  -1301691.78262
  23589939.1564   -6531804.66046  -4963546.56961
  24291194.0474   -3646271.34144  -2652776.16261
  24376773.9774   -2386393.13445  -1766000.23861
 92  4 17 19 22 30.0000000  0  6G18G11G19G 2G 6G16
  20338867.5314    -196320.94448   -146235.47962
  23626276.375    -5135744.417 6  -3898570.58721
  20845934.8834   -1697318.77847  -1310104.24362
  23580570.0554   -6581039.93746  -5001911.63061
  24284019.578    -3683987.857 4  -2682165.53821
  24370297.0784   -2420426.95145  -1792520.09161
 92  4 17 19 22 45.0000000  0  6G18G11G19G 2G 6G16
  20339988.4844    -190424.25248   -141640.68362
  23619519.9224   -5171256.62346  -3926242.35861
  20843886.6334   -1708075.23647  -1318485.89062
  23571209.3674   -6630231.67946  -5040242.77061
  24276842.7114   -3721686.95844  -2711541.37661
  24363839.2894   -2454357.91345  -1818959.78961
 92  4 17 19 23  0.0000000  0  6G18G11G19G 2G 6G16
  20341134.7974    -184402.04048   -136948.08062
  23612780.125    -5206674.956 6  -3953840.95121
  20841847.7814   -1718791.95647  -1326836.57162
  23561859.2974   -6679371.94446  -5078533.79761
  24269670.7034   -3759363.62744  -2740899.71561
  24357403.7504   -2488182.19145  -1845316.35661
 92  4 17 19 23 15.0000000  0  6G18G11G19G 2G 6G16
  20342304.2734    -178258.34248   -132160.81262
  23606054.7194   -5242003.12946  -3981369.30961
  20839815.9534   -1729471.00447  -1335157.89762
  23552516.3674   -6728463.33246  -5116786.73361
  24262510.2194   -3797022.11244  -2770243.86961
  24350987.4694   -2521902.05745  -1871591.55861
 92  4 17 19 23 30.0000000  0  6G18G11G19G 2G 6G16
  20343496.9064    -171983.34648   -127271.23362
  23599352.031    -5277230.204 6  -4008818.89021
  20837793.7034   -1740102.78047  -1343442.39062
  23543185.086    -6777493.570 6  -5154992.00621
  24255343.414    -3834651.912 4  -2799565.69121
  24344591.4144   -2555504.29145  -1897775.08761
 92  4 17 19 23 45.0000000  0  6G18G11G19G 2G 6G16
  20344714.5554    -165589.95648   -122289.40762
  23592667.688    -5312364.801 6  -4036196.40221
  20835776.9844   -1750694.18647  -1351695.42862
  23533865.3054   -6826471.01546  -5193156.15161
  24248192.0084   -3872261.96644  -2828872.14161
  24338220.250    -2588995.931 5  -1923872.47121
 92  4 17 19 24  0.0000000  0  6G18G11G19G 2G 6G16
  20345954.3364    -159073.52848   -117211.70062
  23585998.961    -5347400.161 6  -4063496.58221
  20833771.1334   -1761237.85547  -1359911.26762
  23524554.7894   -6875390.25046  -5231274.93961
  24241039.2114   -3909846.02443  -2858158.28461
  24331867.1094   -2622368.16245  -1949876.76861
 92  4 17 19 24 15.0000000  0  6G18G11G19G 2G 6G16
  20347218.0704    -152433.49448   -112037.67462
  23579352.766    -5382335.726 6  -4090719.03321
  20831773.8284   -1771732.47147  -1368088.88762
  23515259.7274   -6924252.38146  -5269349.23261
  24233892.000    -3947403.839 4  -2887424.03921
  24325536.977    -2655622.102 5  -1975788.91021
 92  4 17 19 24 30.0000000  0  6G18G11G19G 2G 6G16
  20348504.9844    -145672.74848   -106769.59162
  23572721.2034   -5417172.30546  -4117864.32461
  20829783.8204   -1782177.74147  -1376228.05062
  23505971.664    -6973056.688 6  -5307378.44621
  24226751.555    -3984936.933 4  -2916670.49521
  24319231.289    -2688758.396 5  -2001609.36721
 92  4 17 19 24 45.0000000  0  6G18G11G19G 2G 6G16
  20349813.9064    -138794.03348   -101409.58662
  23566112.180    -5451909.505 6  -4144932.20021
  20827806.2504   -1792575.30747  -1384330.04762
  23496697.164    -7021798.705 6  -5345359.13621
  24219612.4534   -4022445.19044  -2945897.60261
  24312955.0004   -2721776.69145  -2027337.90161
 92  4 17 19 25  0.0000000  0  6G18G11G19G 2G 6G16
  20351144.2274    -131799.51548    -95959.34362
  23559521.1024   -5486546.52446  -4171921.99361
  20825838.2734   -1802925.70447  -1392395.28962
  23487431.148    -7070479.903 6  -5383292.43221
  24212476.8984   -4059928.25744  -2975105.09761
  24306690.695    -2754677.371 5  -2052974.77021
 92  4 17 19 25 15.0000000  0  6G18G11G19G 2G 6G16
  20352497.8364    -124694.27348    -90422.82362
  23552948.6804   -5521085.27446  -4198835.21961
  20823875.7194   -1813230.99147  -1400425.37162
  23478178.047    -7119106.126 6  -5421182.88721
  24205348.5944   -4097388.28344  -3004294.62261
  24300449.375    -2787465.241 5  -2078523.75021
 92  4 17 19 25 30.0000000  0  6G18G11G19G 2G 6G16
  20353870.6884    -117477.08248    -84799.06862
  23546395.539    -5555525.301 6  -4225671.50321
  20821926.3284   -1823490.89846  -1408420.10362
  23468936.2814   -7167679.33646  -5459032.02761
  24198224.3134   -4134825.25544  -3033466.21161
  24294232.8444   -2820139.27845  -2103984.00261
 92  4 17 19 25 45.0000000  0  6G18G11G19G 2G 6G16
  20355265.7664    -110145.97748    -79086.54862
  23539858.3134   -5589863.84546  -4252428.71861
  20819979.984    -1833705.354 7  -1416379.39423
  23459701.844    -7216198.138 6  -5496838.77721
  24191106.7344   -4172237.15644  -3062618.25561
  24288036.430    -2852698.755 5  -2129354.99421
 92  4 17 19 26  0.0000000  0  6G18G11G19G 2G 6G16
  20356680.9064    -102706.02948    -73289.22162
  23533345.0634   -5624106.17946  -4279110.97461
  20818044.0634   -1843879.03347  -1424306.93663
  23450477.6334   -7264671.67146  -5534610.24861
  24183986.875    -4209629.407 4  -3091754.96521
  24281866.5864   -2885147.41145  -2154639.63861
 92  4 17 19 26 15.0000000  0  6G18G11G19G 2G 6G16
  20358119.3444     -95152.50648    -67403.39262
  23526846.9534   -5658248.83446  -4305715.54361
  20816116.2504   -1854013.68547  -1432204.06463
  23441260.930    -7313098.351 6  -5572345.20921
  24176880.336    -4246999.053 4  -3120874.10221
  24275709.3204   -2917481.06545  -2179834.65361
 92  4 17 19 26 30.0000000  0  6G18G11G19G 2G 6G16
  20359578.0314     -87485.38048    -61429.04162
  23520370.4304   -5692290.56246  -4332241.46061
  20814193.9534   -1864109.56347  -1440070.98263
  23432055.289    -7361478.161 6  -5610043.66321
  24169771.766    -4284345.354 4  -3149975.04621
  24269580.6094   -2949697.86245  -2204938.63361
 92  4 17 19 26 45.0000000  0  6G18G11G19G 2G 6G16
  20361058.6724     -79703.99348    -55365.65862
  23513909.9064   -5726229.17346  -4358687.04461
  20812281.1804   -1874167.46647  -1447908.31163
  23422860.1644   -7409807.86846  -5647703.06061
  24162671.5234   -4321666.49144  -3179056.35961
  24263471.7344   -2981795.83845  -2229950.03361
 92  4 17 19 27  0.0000000  0  6G18G11G19G 2G 6G16
  20362561.5864     -71804.27548    -49210.07062
  23507471.1564   -5760063.38446  -4385051.27361
  20810372.9454   -1884187.12547  -1455715.83863
  23413672.1414   -7458089.74346  -5685325.18261
  24155570.094    -4358961.349 4  -3208117.18421
  24257381.250    -3013772.916 5  -2254867.17621
 92  4 17 19 27 15.0000000  0  6G18G11G19G 2G 6G16
  20364088.5704     -63781.69848    -42958.74562
  23501050.9844   -5793792.66146  -4411333.73661
  20808472.7894   -1894168.83546  -1463493.79463
  23404491.563    -7506324.523 6  -5722910.61421
  24148483.0634   -4396230.04544  -3237157.64061
  24251322.0704   -3045628.74045  -2279689.88261
 92  4 17 19 27 30.0000000  0  6G18G11G19G 2G 6G16
  20365638.4844     -55634.36248    -36610.21262
  23494653.891    -5827418.263 6  -4437535.42321
  20806581.8524   -1904114.31147  -1471243.51763
  23395320.3364   -7554512.21746  -5760459.36661
  24141394.898    -4433474.185 4  -3266179.01621
  24245285.898    -3077363.342 5  -2304418.12221
 92  4 17 19 27 45.0000000  0  6G18G11G19G 2G 6G16
  20367213.7504     -47359.56648    -30162.35262
  23488277.750    -5860936.807 6  -4463653.68221
  20804697.5474   -1914019.89247  -1478962.15163
  23386162.2584   -7602647.53346  -5797967.29461
  24134310.586    -4470690.888 4  -3295178.95021
  24239269.508    -3108972.661 5  -2329048.72521
 92  4 17 19 28  0.0000000  0  6G18G11G19G 2G 6G16
  20368812.2584     -38957.42148    -23615.25862
  23481916.805    -5894346.718 6  -4489687.30221
  20802822.3984   -1923881.81446  -1486646.76963
  23377013.6644   -7650728.27846  -5835432.69761
  24127237.5314   -4507878.91844  -3324156.55261
  24233280.172    -3140455.240 5  -2353580.59021
 92  4 17 19 28 15.0000000  0  6G18G11G19G 2G 6G16
  20370436.8204     -30427.67148    -16968.73762
  23475583.2974   -5927647.61646  -4515635.95661
  20800952.5164   -1933697.83947  -1494295.62263
  23367873.7034   -7698752.54046  -5872854.09461
  24120162.6954   -4545038.22744  -3353111.81561
  24227310.844    -3171812.371 5  -2378014.68121
 92  4 17 19 28 30.0000000  0  6G18G11G19G 2G 6G16
  20372082.2664     -21773.14848    -10224.98362
  23469265.2344   -5960843.92146  -4541503.11661
  20799091.3524   -1943472.08047  -1501911.92163
  23358746.070    -7746722.973 6  -5910233.54321
  24113096.9694   -4582173.82144  -3382048.53561
  24221368.797    -3203051.645 5  -2402356.93021
 92  4 17 19 28 45.0000000  0  6G18G11G19G 2G 6G16
  20373754.6644     -12991.72148     -3382.35062
  23462966.445    -5993932.984 6  -4567286.70821
  20797241.3444   -1953199.41747  -1509491.66663
  23349628.719    -7794635.447 6  -5947567.83421
  24106036.602    -4619283.447 4  -3410965.07421
  24215442.930    -3234170.652 5  -2426605.48421
 92  4 17 19 29  0.0000000  0  6G18G11G19G 2G 6G16
  20375448.3054      -4086.82048      3556.49962
  23456689.977    -6026919.152 6  -4592990.13421
  20795397.6254   -1962884.36947  -1517038.38863
  23340521.3834   -7842494.71246  -5984860.67161
  24098976.2034   -4656371.78144  -3439864.99061
  24209547.1644   -3265174.37845  -2450764.20361
 92  4 17 19 29 15.0000000  0  6G18G11G19G 2G 6G16
  20377166.0784       4942.14248     10592.02462
  23450431.1644   -6059801.62646  -4618612.75361
  20793564.8364   -1972524.62847  -1524550.28263
  23331424.727    -7890300.734 6  -6022112.01121
  24091923.2974   -4693438.53444  -3468748.13261
  24203667.133    -3296062.604 5  -2474832.92821
 92  4 17 19 29 30.0000000  0  6G18G11G19G 2G 6G16
  20378908.2344      14098.79848     17727.04762
  23444196.383    -6092574.653 6  -4644150.10121
  20791742.8914   -1982112.95146  -1532021.70763
  23322341.3284   -7938045.84046  -6059315.88861
  24084874.0864   -4730478.36444  -3497610.24361
  24197813.1174   -3326833.15845  -2498809.94361
 92  4 17 19 29 45.0000000  0  6G18G11G19G 2G 6G16
  20380674.2734      23375.57748     24955.67363
  23437981.008    -6125243.300 6  -4669606.10421
  20789923.9064   -1991653.42347  -1539455.84963
  23313263.406    -7985735.268 6  -6096476.37621
  24077833.398    -4767496.576 4  -3526455.54021
  24191978.148    -3357492.776 5  -2522700.54321
 92  4 17 19 30  0.0000000  0  6G18G11G19G 2G 6G16
  20382463.3984      32773.52248     32278.71462
  23431782.5944   -6157806.02846  -4694979.58261
  20788118.3594   -2001144.61147  -1546851.58563
  23304199.8204   -8033368.43246  -6133593.03561
  24070792.2114   -4804492.18644  -3555283.22461
  24186166.750    -3388039.529 5  -2546503.17221
 92  4 17 19 30 15.0000000  0  6G18G11G19G 2G 6G16
  20384274.1724      42294.89948     39697.93763
  23425605.6954   -6190260.87546  -4720269.00161
  20786320.6484   -2010585.20247  -1554207.89263
  23295147.344    -8080943.674 6  -6170664.54521
  24063756.1884   -4841463.60345  -3584092.03561
  24180373.852    -3418471.069 5  -2570216.02621
 92  4 17 19 30 30.0000000  0  6G18G11G19G 2G 6G16
  20386110.3984      51939.24548     47212.97862
  23419450.2584   -6222608.55646  -4745474.91261
  20784535.4454   -2019979.41547  -1561528.07063
  23286102.3674   -8128461.89546  -6207691.63761
  24056724.5704   -4878411.87844  -3612882.84161
  24174605.250    -3448787.551 5  -2593839.24121
 92  4 17 19 30 45.0000000  0  6G18G11G19G 2G 6G16
  20387969.6174      61707.51648     54824.58362
  23413314.992    -6254847.971 6  -4770596.45621
  20782753.5234   -2029329.13447  -1568813.56263
  23277071.5784   -8175923.28446  -6244674.44261
  24049700.0784   -4915336.55845  -3641655.25261
  24168862.125    -3478983.996 5  -2617368.90721
 92  4 17 19 31  0.0000000  0  6G18G11G19G 2G 6G16
  20389851.4304      71604.18048     62536.24263
  23407202.2274   -6286973.12946  -4795628.98461
  20780987.1644   -2038628.75546  -1576060.02763
  23268052.5944   -8223320.99946  -6281607.63661
  24042679.906    -4952231.795 4  -3670404.70721
  24163136.594    -3509054.421 5  -2640800.38221
 92  4 17 19 31 15.0000000  0  6G18G11G19G 2G 6G16
  20391759.7504      81624.60748     70344.33562
  23401109.5474   -6318988.54146  -4820575.99661
  20779222.9844   -2047883.55747  -1583271.56763
  23259042.9924   -8270659.67146  -6318494.82961
  24035664.586    -4989102.648 4  -3699135.18021
  24157435.6564   -3539003.65645  -2664137.41861
 92  4 17 19 31 30.0000000  0  6G18G11G19G 2G 6G16
  20393690.2344      91773.64048     78252.64462
  23395040.7584   -6350888.92746  -4845433.35261
  20777475.3914   -2057088.13546  -1590443.97063
  23250045.8914   -8317933.05246  -6355331.13961
  24028652.3444   -5025944.08244  -3727842.70861
  24151767.398    -3568827.338 5  -2687376.63721
 92  4 17 19 31 45.0000000  0  6G18G11G19G 2G 6G16
  20395644.7424     102045.21848     86256.43962
  23388990.9384   -6382681.01246  -4870206.35661
  20775729.0634   -2066249.44047  -1597582.64963
  23241060.9694   -8365146.16646  -6392120.49161
  24021643.102    -5062763.333 4  -3756532.96921
  24146110.8524   -3598529.70945  -2710521.32061
 92  4 17 19 32  0.0000000  0  6G18G11G19G 2G 6G16
  20397624.2664     112446.58548     94361.37062
  23382963.1724   -6414357.36246  -4894889.14761
  20773996.9694   -2075363.04446  -1604684.16363
  23232091.055    -8412291.918 6  -6428857.35721
  24014642.648    -5099553.386 4  -3785200.44921
  24140480.516    -3628099.558 5  -2733562.74521
 92  4 17 19 32 15.0000000  0  6G18G11G19G 2G 6G16
  20399628.5554     122977.45348    102567.20962
  23376955.8204   -6445918.10746  -4919481.86661
  20772268.7504   -2084430.85947  -1611749.99263
  23223131.1804   -8459372.79746  -6465543.67161
  24007648.445    -5136314.850 4  -3813845.70121
  24134881.8754   -3657537.48045  -2756501.36061
 92  4 17 19 32 30.0000000  0  6G18G11G19G 2G 6G16
  20401654.3914     133628.83448    110866.95362
  23370971.9224   -6477371.75046  -4943991.13561
  20770553.2734   -2093462.83746  -1618787.89963
  23214184.992    -8506397.436 6  -6502186.15921
  24000657.836    -5173056.488 5  -3842475.45721
  24129302.688    -3686854.867 5  -2779346.07421
 92  4 17 19 32 45.0000000  0  6G18G11G19G 2G 6G16
  20403706.5084     144410.23448    119268.01062
  23365009.500    -6508708.297 6  -4968409.15221
  20768840.6024   -2102449.69647  -1625790.64963
  23205247.3754   -8553358.01846  -6538778.73661
  23993673.109    -5209768.757 5  -3871082.34721
  24123747.797    -3716042.771 5  -2802089.87421
 92  4 17 19 33  0.0000000  0  6G18G11G19G 2G 6G16
  20405782.8284     155317.63148    127767.24663
  23359066.1094   -6539929.59546  -4992737.37461
  20767140.1644   -2111390.53346  -1632757.53763
  23196324.5394   -8600257.36846  -6575323.59261
  23986691.078    -5246453.829 5  -3899668.00221
  24118213.4534   -3745104.65545  -2824735.47361
 92  4 17 19 33 15.0000000  0  6G18G11G19G 2G 6G16
  20407882.5864     166349.50548    136363.47862
  23353145.633    -6571036.358 6  -5016976.32521
  20765445.9924   -2120284.42747  -1639687.84463
  23187409.359    -8647096.965 6  -6611821.89821
  23979710.828    -5283112.820 4  -3928233.38621
  24112710.867    -3774045.079 5  -2847286.44521
 92  4 17 19 33 30.0000000  0  6G18G11G19G 2G 6G16
  20410005.3134     177505.20748    145056.20162
  23347251.125    -6602028.490 6  -5041125.97521
  20763762.7584   -2129132.36347  -1646582.34263
  23178508.4774   -8693877.22546  -6648273.95861
  23972742.586    -5319746.274 4  -3956778.84321
  24107225.508    -3802863.115 5  -2869742.03621
 92  4 17 19 33 45.0000000  0  6G18G11G19G 2G 6G16
  20412150.9924     188783.57948    153844.50662
  23341373.7814   -6632907.07946  -5065187.14061
  20762086.4454   -2137936.24147  -1653442.50463
  23169616.078    -8740601.732 6  -6684682.58521
  23965775.781    -5356355.398 5  -3985305.34621
  24101762.219    -3831559.679 5  -2892102.97321
 92  4 17 19 34  0.0000000  0  6G18G11G19G 2G 6G16
  20414320.9454     200184.07148    162727.96862
  23335516.6094   -6663672.47346  -5089160.10061
  20760419.2664   -2146697.36147  -1660269.35163
  23160733.5864   -8787273.92546  -6721050.43961
  23958813.9694   -5392940.99745  -4013813.51061
  24096326.9144   -3860133.76245  -2914368.48361
 92  4 17 19 34 15.0000000  0  6G18G11G19G 2G 6G16
  20416513.7504     211707.26048    171707.04562
  23329689.4224   -6694323.00746  -5113043.55361
  20758762.1884   -2155414.20147  -1667061.69563
  23151862.4774   -8833894.20846  -6757377.84861
  23951855.5004   -5429501.95345  -4042302.48661
  24090913.8754   -3888586.10445  -2936539.12461
 92  4 17 19 34 30.0000000  0  6G18G11G19G 2G 6G16
  20418728.1254     223349.44848    180778.84762
  23323875.0864   -6724862.05446  -5136840.15261
  20757113.1724   -2164088.34046  -1673820.76663
  23142999.2504   -8880464.72046  -6793666.46861
  23944900.8134   -5466041.79145  -4070774.99561
  24085521.109    -3916922.402 5  -2958619.36021
 92  4 17 19 34 45.0000000  0  6G18G11G19G 2G 6G16
  20420966.8524     235113.00348    189945.21862
  23318084.086    -6755286.708 6  -5160547.58921
  20755468.2114   -2172715.29147  -1680543.06463
  23134149.2344   -8926981.87146  -6829913.50861
  23937953.0704   -5502558.11545  -4099229.16661
  24080151.1804   -3945137.86645  -2980605.39861
 92  4 17 19 35  0.0000000  0  6G18G11G19G 2G 6G16
  20423228.2504     246995.00948    199203.89062
  23312316.5944   -6785599.25346  -5184167.69261
  20753838.2034   -2181298.69746  -1687231.43463
  23125308.2504   -8973448.45946  -6866121.15061
  23931005.5004   -5539053.59744  -4127667.10761
  24074804.484    -3973233.668 5  -3002498.23021
 92  4 17 19 35 15.0000000  0  6G18G11G19G 2G 6G16
  20425511.5554     258997.01648    208556.06962
  23306570.2424   -6815799.02046  -5207699.90261
  20752211.0164   -2189839.04847  -1693886.25363
  23116473.8204   -9019862.39946  -6902287.75861
  23924066.289    -5575528.045 5  -4156088.66421
  24069485.4304   -4001209.27645  -3024297.38361
 92  4 17 19 35 30.0000000  0  6G18G11G19G 2G 6G16
  20427820.2584     271125.18248    218006.55362
  23300846.031    -6845881.268 6  -5231140.54621
  20750594.1484   -2198334.08947  -1700505.76563
  23107653.2034   -9066217.37446  -6938408.42361
  23917132.250    -5611977.047 5  -4184490.37521
  24064187.1564   -4029056.82245  -3045996.75961
 92  4 17 19 35 45.0000000  0  6G18G11G19G 2G 6G16
  20430151.8594     283379.96548    227555.70262
  23295144.039    -6875846.549 6  -5254490.03721
  20748984.7664   -2206787.02447  -1707092.46863
  23098841.6724   -9112516.64046  -6974485.67861
  23910197.4224   -5648401.48145  -4212872.97861
  24058909.9534   -4056775.06145  -3067595.39361
 92  4 17 19 36  0.0000000  0  6G18G11G19G 2G 6G16
  20432507.8364     295760.52048    237202.84962
  23289464.586    -6905696.626 6  -5277749.77321
  20747386.5394   -2215199.88246  -1713647.94863
  23090042.3914   -9158762.25246  -7010521.12961
  23903273.1884   -5684803.43445  -4241238.05061
  24053657.3054   -4084365.33845  -3089094.28361
 92  4 17 19 36 15.0000000  0  6G18G11G19G 2G 6G16
  20434888.2504     308267.61848    246948.60962
  23283804.195    -6935428.693 6  -5300917.53621
  20745791.5164   -2223570.28747  -1720170.34163
  23081254.555    -9204947.258 6  -7046509.33921
  23896350.6414   -5721180.59744  -4269583.77861
  24048433.1174   -4111828.11245  -3110493.84061
 92  4 17 19 36 30.0000000  0  6G18G11G19G 2G 6G16
  20437291.4384     320897.53448    256790.06862
  23278168.7894   -6965045.21746  -5323995.27461
  20744205.6174   -2231901.31347  -1726662.05163
  23072476.1884   -9251072.25846  -7082450.80361
  23889432.422    -5757535.910 4  -4297912.50921
  24043230.602    -4139166.508 5  -3131796.48721
 92  4 17 19 36 45.0000000  0  6G18G11G19G 2G 6G16
  20439717.7114     333652.04348    266728.61262
  23272556.9224   -6994545.01646  -5346982.05461
  20742628.6884   -2240193.33047  -1733123.36363
  23063709.6094   -9297136.48746  -7118344.90361
  23882518.9064   -5793868.44645  -4326223.47961
  24038051.1484   -4166378.97145  -3153000.99861
 92  4 17 19 37  0.0000000  0  6G18G11G19G 2G 6G16
  20442169.6094     346533.75248    276766.27562
  23266965.3364   -7023923.60546  -5369874.38561
  20741059.1564   -2248441.71847  -1739550.68463
  23054955.9384   -9343135.48346  -7154188.17661
  23875607.7114   -5830174.10444  -4354513.50461
  24032900.6334   -4193459.81545  -3174102.94361
 92  4 17 19 37 15.0000000  0  6G18G11G19G 2G 6G16
  20444645.2274     359539.95748    286900.95062
  23261398.4384   -7053183.99046  -5392674.59961
  20739496.2894   -2256648.98747  -1745945.95863
  23046214.922    -9389071.270 6  -7189982.19021
  23868703.4924   -5866456.25545  -4382785.21161
  24027771.578    -4220412.158 5  -3195104.75221
 92  4 17 19 37 30.0000000  0  6G18G11G19G 2G 6G16
  20447143.7114     372670.77048    297132.72162
  23255852.734    -7082323.871 6  -5415380.91721
  20737943.4614   -2264809.15147  -1752304.53163
  23037486.313    -9434940.683 6  -7225724.48721
  23861807.3054   -5902713.02445  -4411037.13961
  24022666.3754   -4247235.14145  -3216005.77761
 92  4 17 19 37 45.0000000  0  6G18G11G19G 2G 6G16
  20449666.0164     385923.37548    307459.39662
  23250329.0084   -7111343.92446  -5437993.88161
  20736400.5554   -2272921.45547  -1758625.80963
  23028769.266    -9480744.929 6  -7261415.99721
  23854909.0004   -5938945.45045  -4439270.11961
  24017587.1884   -4273931.00945  -3236807.73561
 92  4 17 19 38  0.0000000  0  6G18G11G19G 2G 6G16
  20452210.5234     399299.54048    317882.34962
  23244829.266    -7140240.135 6  -5460510.33321
  20734870.6414   -2280979.80846  -1764905.05163
  23020065.492    -9526480.764 6  -7297054.20421
  23848021.0164   -5975149.91345  -4467481.29261
  24012531.8284   -4300499.07845  -3257510.13761
 92  4 17 19 38 15.0000000  0  6G18G11G19G 2G 6G16
  20454780.3834     412799.16548    328401.50962
  23239354.977    -7169008.889 6  -5482927.46121
  20733345.2114   -2288977.36347  -1771136.91763
  23011377.563    -9572140.770 6  -7332633.32421
  23841139.375    -6011323.157 5  -4495668.15521
  24007497.6174   -4326938.92845  -3278112.59461
 92  4 17 19 38 30.0000000  0  6G18G11G19G 2G 6G16
  20457371.1804     426416.53148    339012.41162
  23233907.414    -7197654.187 6  -5505248.39521
  20731834.5634   -2296915.52646  -1777322.50663
  23002703.523    -9617731.342 6  -7368158.33721
  23834256.578    -6047469.528 5  -4523834.07221
  24002491.914    -4353254.203 5  -3298617.99221
 92  4 17 19 38 45.0000000  0  6G18G11G19G 2G 6G16
  20459984.2974     440150.34548    349714.05362
  23228477.2734   -7226177.65946  -5527474.41561
  20730335.0394   -2304794.20947  -1783461.74763
  22994040.148    -9663255.771 6  -7403631.81421
  23827382.9454   -6083591.23045  -4551980.75461
  23997504.9384   -4379445.11545  -3319026.49461
 92  4 17 19 39  0.0000000  0  6G18G11G19G 2G 6G16
  20462621.0944     454004.28248    360509.29562
  23223071.7814   -7254575.21246  -5549602.30161
  20728848.188    -2312608.838 6  -1789551.07923
  22985390.742    -9708710.670 6  -7439051.10721
  23820515.3594   -6119684.38145  -4580105.20261
  23992549.773    -4405508.717 5  -3339335.77521
 92  4 17 19 39 15.0000000  0  6G18G11G19G 2G 6G16
  20465282.0084     467978.63448    371398.36962
  23217690.0704   -7282845.66846  -5571631.16461
  20727372.0634   -2320359.22147  -1795590.34463
  22976753.586    -9754096.378 6  -7474416.48321
  23813654.242    -6155748.110 5  -4608206.73421
  23987606.9534   -4431445.08545  -3359545.92961
 92  4 17 19 39 30.0000000  0  6G18G11G19G 2G 6G16
  20467962.0474     482072.86248    382380.85162
  23212334.8594   -7310989.69446  -5593561.51261
  20725909.4384   -2328048.45846  -1801581.96763
  22968128.141    -9799414.327 6  -7509729.06221
  23806793.711    -6191783.504 5  -4636286.16121
  23982699.5864   -4457257.97945  -3379659.85361
 92  4 17 19 39 45.0000000  0  6G18G11G19G 2G 6G16
  20470668.7504     496289.41748    393458.65062
  23207004.9534   -7339003.85146  -5615390.66061
  20724458.9224   -2335676.30447  -1807525.75363
  22959518.063    -9844661.471 6  -7544986.48021
  23799947.1024   -6227787.49445  -4664341.14661
  23977810.1724   -4482943.59245  -3399674.62461
 92  4 17 19 40  0.0000000  0  6G18G11G19G 2G 6G16
  20473395.4144     510622.00648    404626.86562
  23201699.2034   -7366898.32646  -5637126.55461
  20723016.461    -2343254.699 6  -1813431.00623
  22950919.648    -9889847.917 6  -7580196.59021
  23793098.125    -6263770.697 5  -4692379.93221
  23972946.258    -4508509.893 5  -3419596.40221
 92  4 17 19 40 15.0000000  0  6G18G11G19G 2G 6G16
  20476146.6024     525080.13948    415892.90262
  23196415.5084   -7394666.49146  -5658764.01561
  20721585.0394   -2350778.10547  -1819293.40863
  22942333.3834   -9934966.83746  -7615354.08461
  23786254.414    -6299726.797 5  -4720397.60421
  23968105.0704   -4533947.46245  -3439417.88361
 92  4 17 19 40 30.0000000  0  6G18G11G19G 2G 6G16
  20478922.7894     539668.89648    427260.73062
  23191156.6804   -7422303.44446  -5680299.24761
  20720164.6884   -2358244.71446  -1825111.55663
  22933761.789    -9980014.280 6  -7650455.88521
  23779418.6884   -6335651.10445  -4748390.47861
  23963291.891    -4559249.542 5  -3459133.77121
 92  4 17 19 40 45.0000000  0  6G18G11G19G 2G 6G16
  20481722.0164     554381.61248    438725.14462
  23185921.297    -7449818.217 6  -5701739.26721
  20718751.9924   -2365667.45046  -1830895.51063
  22925201.086   -10024999.843 6  -7685509.46521
  23772587.078    -6371553.189 5  -4776366.06221
  23958502.9224   -4584423.47845  -3478749.81861
 92  4 17 19 41  0.0000000  0  6G18G11G19G 2G 6G16
  20484547.6414     569226.42848    450292.49862
  23180709.680    -7477205.263 6  -5723079.76921
  20717346.492    -2373046.875 6  -1836645.72523
  22916653.6884  -10069916.99346  -7720509.74361
  23765761.0554   -6407427.87445  -4804320.27961
  23953736.7424   -4609464.72045  -3498262.45661
 92  4 17 19 41 15.0000000  0  6G18G11G19G 2G 6G16
  20487396.7034     584200.75748    461960.76462
  23175519.203    -7504466.890 6  -5744322.54421
  20715950.930    -2380387.693 6  -1842365.85323
  22908118.4224  -10114768.07446  -7755458.53461
  23758936.484    -6443277.946 5  -4832255.32021
  23948997.414    -4634373.949 5  -3517672.23721
 92  4 17 19 41 30.0000000  0  6G18G11G19G 2G 6G16
  20490270.5864     599305.97648    473731.03062
  23170355.4924   -7531601.97646  -5765466.71261
  20714560.836    -2387688.627 7  -1848054.90523
  22899596.977   -10159550.897 6  -7790354.14221
  23752121.6644   -6479102.56845  -4860170.53761
  23944278.680    -4659148.572 5  -3536977.13821
 92  4 17 19 41 45.0000000  0  6G18G11G19G 2G 6G16
  20493171.7734     614545.73748    485606.12662
  23165217.578    -7558608.184 6  -5786510.46021
  20713180.734    -2394946.125 7  -1853710.10823
  22891089.6414  -10204262.22946  -7825194.04061
  23745307.6024   -6514899.63745  -4888064.27961
  23939594.4694   -4683784.53045  -3556173.96061
 92  4 17 19 42  0.0000000  0  6G18G11G19G 2G 6G16
  20496098.7344     629924.66148    497589.66263
  23160102.5634   -7585483.56446  -5807452.25561
  20711810.461    -2402155.787 6  -1859328.04223
  22882595.094   -10248899.727 6  -7859976.41021
  23738501.648    -6550667.508 5  -4915935.27321
  23934931.9534   -4708280.70645  -3575261.87661
 92  4 17 19 42 15.0000000  0  6G18G11G19G 2G 6G16
  20499052.438      645448.695 8    509686.27123
  23155016.031    -7612220.119 6  -5828285.88621
  20710446.7424   -2409309.59846  -1864902.44963
  22874114.5634  -10293457.31246  -7894696.50561
  23731704.5314   -6586398.74745  -4943777.72461
  23930298.1094   -4732631.01945  -3594236.15561
 92  4 17 19 42 30.0000000  0  6G18G11G19G 2G 6G16
  20502030.2424     661100.01848    521882.06863
  23149952.5234   -7638830.00746  -5849020.81661
  20709094.961    -2416421.219 6  -1870443.98223
  22865648.6884  -10337948.80746  -7929365.10661
  23724910.4384   -6622105.76445  -4971601.30761
  23925688.063    -4756851.709 5  -3613109.40121
 92  4 17 19 42 45.0000000  0  6G18G11G19G 2G 6G16
  20505032.5394     676879.81748    534177.97663
  23144913.523    -7665310.105 6  -5869654.61621
  20707750.0704   -2423486.21046  -1875949.18063
  22857195.3054  -10382370.46346  -7963979.29161
  23718115.016    -6657785.693 5  -4999403.74021
  23921101.5554   -4780941.01045  -3631880.28561
 92  4 17 19 43  0.0000000  0  6G18G11G19G 2G 6G16
  20508061.2664     692792.86948    546577.71863
  23139900.305    -7691656.862 6  -5890184.50921
  20706415.4224   -2430499.98746  -1881414.47263
  22848755.8364  -10426718.30746  -7998535.95061
  23711331.773    -6693435.526 5  -5027182.75921
  23916546.4774   -4804895.34745  -3650546.00561
 92  4 17 19 43 15.0000000  0  6G18G11G19G 2G 6G16
  20511113.7894     708834.70548    559077.81363
  23134909.9614   -7717871.73046  -5910611.62561
  20705089.9924   -2437461.96246  -1886839.39663
  22840331.1564  -10470995.40746  -8033037.48961
  23704555.109    -6729056.884 5  -5054939.58921
  23912016.3594   -4828715.61845  -3669107.24461
 92  4 17 19 43 29.9990000  0  6G18G11G19G 2G 6G16
  20514189.0264     724994.02548    571669.45063
  23129945.5814   -7743959.36646  -5930939.61361
  20703777.0814   -2444373.14746  -1892224.74663
  22831916.847   -10515205.375 6  -8067486.71521
  23697781.675    -6764654.281 5  -5082677.73821
  23907504.7374   -4852405.11345  -3687566.60661
 92  4 17 19 43 44.9990000  0  6G18G11G19G 2G 6G16
  20517288.3004     741276.14248    584356.77463
  23125005.6754   -7769920.72946  -5951169.19161
  20702469.7064   -2451230.73246  -1897568.32663
  22823515.0034  -10559353.58046  -8101887.81761
  23691012.4804   -6800230.32245  -5110399.22761
  23903023.0814   -4875965.58345  -3705925.38661
 92  4 17 19 43 59.9990000  0  6G18G11G19G 2G 6G16
  20520408.8154     757678.74048    597137.97963
  23120089.347    -7795754.438 6  -5971299.31521
  20701176.3784   -2458036.59146  -1902871.60063
  22815128.073   -10603437.468 6  -8136238.80421
  23684246.2304   -6835783.24845  -5138102.73561
  23898563.4254   -4899396.39545  -3724183.18561
 92  4 17 19 44 14.9990000  0  6G18G11G19G 2G 6G16
  20523551.839      774194.982 8    610007.74023
  23115195.8554   -7821463.73246  -5991332.47761
  20699888.6284   -2464795.50046  -1908138.28363
  22806748.9404  -10647462.86046  -8170544.20361
  23677483.8704   -6871316.70845  -5165791.03561
  23894128.503    -4922699.784 5  -3742341.66621
 92  4 17 19 44 29.9990000  0  6G18G11G19G 2G 6G16
  20526717.5584     790829.47748    622969.64163
  23110329.847    -7847041.350 6  -6011263.04321
  20698615.1594   -2471502.97446  -1913364.89363
  22798384.355   -10691424.197 6  -8204799.69621
  23670726.558    -6906823.717 5  -5193458.75921
  23889720.9484   -4945867.29245  -3760394.26261
 92  4 17 19 44 44.9990000  0  6G18G11G19G 2G 6G16
  20529906.0264     807585.66848    636026.37663
  23105485.386    -7872487.137 6  -6031090.87021
  20697345.3234   -2478157.61146  -1918550.32563
  22790030.855   -10735319.963 6  -8239004.08121
  23663977.3004   -6942304.37445  -5221105.91661
  23885336.7844   -4968896.59445  -3778339.19061
 92  4 17 19 44 59.9990000  0  6G18G11G19G 2G 6G16
  20533118.6054     824465.66348    649179.57863
  23100669.3704   -7897802.76746  -6050817.28361
  20696090.7844   -2484762.62546  -1923697.09463
  22781688.4874  -10779151.92646  -8273158.76361
  23657230.456    -6977760.848 5  -5248734.24321
  23880980.0734   -4991786.45645  -3796175.44061
 92  4 17 19 45 14.9990000  0  6G18G11G19G 2G 6G16
  20536353.4874     841468.67848    662428.64363
  23095875.5894   -7922989.65946  -6070443.38361
  20694840.8314   -2491321.16746  -1928807.64663
  22773358.394   -10822923.180 6  -8307266.12621
  23650487.4804   -7013194.83845  -5276345.05061
  23876652.3394   -5014541.63045  -3813906.74761
 92  4 17 19 45 29.9990000  0  6G18G11G19G 2G 6G16
  20539614.198      858596.399 8    675774.87823
  23091110.144    -7948044.736 6  -6089966.76221
  20693603.9874   -2497829.95246  -1933879.42963
  22765042.9014  -10866630.58546  -8341323.75361
  23643746.9254   -7048603.69745  -5303936.27861
  23872347.620    -5037162.470 5  -3831533.37821
 92  4 17 19 45 44.9990000  0  6G18G11G19G 2G 6G16
  20542898.089      875853.757 8    689222.12423
  23086366.284    -7972966.087 6  -6109385.94921
  20692373.4254   -2504288.98946  -1938912.44763
  22756738.1754  -10910272.64846  -8375330.45161
  23637014.456    -7083985.747 5  -5331506.58521
  23868072.4644   -5059649.25545  -3849055.54561
 92  4 17 19 45 59.9990000  0  6G18G11G19G 2G 6G16
  20546205.331      893235.592 8    702766.37023
  23081649.190    -7997759.000 6  -6128705.03921
  20691151.9014   -2510706.40846  -1943913.03463
  22748444.0974  -10953854.95746  -8409290.59661
  23630284.1594   -7119346.70045  -5359060.48661
  23863813.690    -5082009.617 5  -3866479.22221
 92  4 17 19 46 14.9990000  0  6G18G11G19G 2G 6G16
  20549537.0974     910751.20548    716414.85563
  23076956.6834   -8022412.30946  -6147915.35661
  20689940.0504   -2517071.93246  -1948873.18863
  22740164.9334  -10997366.02946  -8443195.22761
  23623561.698    -7154675.622 5  -5386589.39321
  23859582.878    -5104233.571 5  -3883796.56821
 92  4 17 19 46 29.9990000  0  6G18G11G19G 2G 6G16
  20552895.808      928393.545 8    730162.09223
  23072290.2224   -8046934.50846  -6167023.49961
  20688736.1124   -2523391.68546  -1953797.66563
  22731896.456   -11040813.787 6  -8477050.52621
  23616843.8394   -7189981.38845  -5414100.28861
  23855380.0584   -5126329.99545  -3901014.56661
 92  4 17 19 46 44.9990000  0  6G18G11G19G 2G 6G16
  20556276.8784     946163.19748    744008.53063
  23067649.9334   -8071325.56146  -6186029.45661
  20687543.1124   -2529664.60446  -1958685.66563
  22723640.7614  -11084193.94946  -8510853.15361
  23610129.8864   -7225264.30645  -5441593.35861
  23851199.4724   -5148299.36145  -3918133.57561
 92  4 17 19 46 59.9990000  0  6G18G11G19G 2G 6G16
  20559684.269      964063.768 8    757956.98223
  23063033.1904   -8095583.03746  -6204931.31261
  20686359.4724   -2535887.96946  -1963535.04363
  22715399.6674  -11127503.47246  -8544600.73761
  23603415.3624   -7260522.38345  -5469067.06161
  23847042.4874   -5170140.29245  -3935152.46861
 92  4 17 19 47 14.9990000  0  6G18G11G19G 2G 6G16
  20563114.1834     982089.04548    772002.60963
  23058442.933    -8119708.881 6  -6223730.61021
  20685184.8314   -2542063.77346  -1968347.35163
  22707171.355   -11170743.307 6  -8578294.01621
  23596716.464    -7295757.745 5  -5496523.09221
  23842907.456    -5191855.623 5  -3952073.51321
 92  4 17 19 47 29.9990000  0  6G18G11G19G 2G 6G16
  20566566.276     1000234.141 8    786141.59923
  23053876.8084   -8143704.84646  -6242428.69361
  20684020.2144   -2548192.72846  -1973123.16363
  22698957.0194  -11213915.93146  -8611934.92761
  23590013.1984   -7330972.50845  -5523963.06161
  23838803.4874   -5213446.42645  -3968897.51261
 92  4 17 19 47 44.9990000  0  6G18G11G19G 2G 6G16
  20570042.667     1018500.096 8    800374.76523
  23049333.206    -8167567.510 6  -6261022.89721
  20682861.2454   -2554271.70046  -1977860.02463
  22690753.3704  -11257017.46546  -8645520.44461
  23583316.855    -7366163.529 5  -5551384.53821
  23834718.4254   -5234903.21545  -3985617.06961
 92  4 17 19 47 59.9990000  0  6G18G11G19G 2G 6G16
  20573540.362     1036883.782 8    814699.67123
  23044816.972    -8191299.844 6  -6279515.56421
  20681713.1984   -2560303.40046  -1982560.04663
  22682566.2614  -11300050.15646  -8679052.32061
  23576624.550    -7401334.323 5  -5578790.24821
  23830659.464    -5256226.293 5  -4002232.48521
 92  4 17 19 48 14.9990000  0  6G18G11G19G 2G 6G16
  20577061.730     1055384.080 8    829115.44123
  23040325.9174   -8214900.30246  -6297905.46561
  20680575.7764   -2566284.74446  -1987220.83263
  22674389.8554  -11343010.78546  -8712528.04561
  23569934.1594   -7436483.42045  -5606179.05661
  23826628.315    -5277414.586 5  -4018742.84721
 92  4 17 19 48 29.9990000  0  6G18G11G19G 2G 6G16
  20580604.995     1074004.104 8    843624.50223
  23035861.6364   -8238367.30646  -6316191.37361
  20679447.5734   -2572213.02746  -1991840.27363
  22666228.8704  -11385897.08946  -8745945.85461
  23563252.761    -7471609.744 5  -5633550.10321
  23822619.6904   -5298467.34945  -4035147.59961
 92  4 17 19 48 44.9990000  0  6G18G11G19G 2G 6G16
  20584170.144     1092742.976 8    858226.17723
  23031421.8314   -8261700.75746  -6334373.22161
  20678329.5504   -2578090.21346  -1996419.89063
  22658081.9954  -11428708.74346  -8779305.49161
  23556570.2694   -7506713.39545  -5660903.51361
  23818640.9644   -5319385.39345  -4051447.37861
 92  4 17 19 48 59.9990000  0  6G18G11G19G 2G 6G16
  20587757.4564    1111592.12448    872913.78163
  23027003.0034   -8284909.77046  -6352458.10061
  20677217.3624   -2583927.71746  -2000968.59363
  22649946.8004  -11471457.25146  -8812615.92761
  23549891.8394   -7541803.94045  -5688246.68761
  23814686.9094   -5340178.20645  -4067649.57461
 92  4 17 19 49 14.9990000  0  6G18G11G19G 2G 6G16
  20591366.573     1130556.860 8    887691.45223
  23022613.1754   -8307987.58146  -6370440.73561
  20676115.9014   -2589719.32646  -2005481.52763
  22641825.3554  -11514138.65946  -8845874.07561
  23543219.034    -7576874.794 5  -5715574.53421
  23810760.097    -5360840.078 5  -4083749.74521
 92  4 17 19 49 29.9990000  0  6G18G11G19G 2G 6G16
  20594997.315     1149639.284 8    902560.82723
  23018247.761    -8330930.560 6  -6388318.31621
  20675022.3944   -2595461.65046  -2009956.06663
  22633715.8314  -11556752.18946  -8879079.33561
  23536548.2064   -7611922.52745  -5742884.36361
  23806845.6674   -5381366.55945  -4099744.42261
 92  4 17 19 49 44.9990000  0  6G18G11G19G 2G 6G16
  20598651.878     1168841.902 8    917523.85323
  23013908.386    -8353737.983 6  -6406090.26821
  20673939.1284   -2601154.29146  -2014391.88463
  22625619.0654  -11599298.87546  -8912232.50761
  23529885.105    -7646946.991 5  -5770176.05521
  23802968.1904   -5401758.12445  -4115633.96961
 92  4 17 19 49 59.9990000  0  6G18G11G19G 2G 6G16
  20602328.706     1188160.973 8    932577.63623
  23009589.847    -8376413.140 6  -6423759.15221
  20672865.6444   -2606801.02146  -2018791.93463
  22617534.159   -11641780.792 6  -8945335.21621
  23523224.925    -7681951.830 5  -5797452.46321
  23799111.651    -5422020.748 5  -4131423.04121
 92  4 17 19 50 14.9990000  0  6G18G11G19G 2G 6G16
  20606027.081     1207600.388 8    947725.18623
  23005303.9564   -8398953.50546  -6441323.00261
  20671799.7534   -2612401.17246  -2023155.68563
  22609463.9874  -11684197.49246  -8978387.10461
  23516566.550    -7716934.610 5  -5824711.68221
  23795280.901    -5442156.162 5  -4147112.98621
 92  4 17 19 50 29.9990000  0  6G18G11G19G 2G 6G16
  20609750.448     1227168.908 8    962973.34423
  23001042.214    -8421351.081 6  -6458775.59421
  20670747.2614   -2617948.44946  -2027478.23863
  22601406.3004  -11726542.66046  -9011383.25061
  23509913.901    -7751887.670 5  -5851947.75521
  23791475.9404   -5462155.17645  -4162696.65261
 92  4 17 19 50 44.9990000  0  6G18G11G19G 2G 6G16
  20613498.659     1246863.453 8    978319.69723
  22996805.237    -8443607.930 6  -6476118.52421
  20669697.9724   -2623447.59746  -2031763.29063
  22593361.4254  -11768820.39446  -9044326.85561
  23503268.573    -7786813.490 5  -5879162.59121
  23787691.894    -5482017.131 5  -4178173.50021
 92  4 17 19 50 59.9990000  0  6G18G11G19G 2G 6G16
  20617269.269     1266678.638 8    993760.05523
  22992595.0034   -8465727.14046  -6493354.21161
  20668660.1364   -2628903.20846  -2036014.41663
  22585327.7924  -11811037.32346  -9077223.07861
  23496627.0974   -7821715.38845  -5906358.79061
  23783942.4404   -5501743.50645  -4193544.70361
 92  4 17 19 51 14.9990000  0  6G18G11G19G 2G 6G16
  20621065.222     1286624.915 8   1009302.56623
  22988416.1364   -8487699.34646  -6510475.35061
  20667632.6514   -2634302.63246  -2040221.75363
  22577306.9484  -11853184.30546  -9110064.79261
  23489990.870    -7856584.394 5  -5933529.35521
  23780212.269    -5521324.859 5  -4208802.91921
 92  4 17 19 51 29.9990000  0  6G18G11G19G 2G 6G16
  20624883.698     1306691.636 8   1024938.92923
  22984260.5974   -8509533.01046  -6527488.52961
  20666613.0974   -2639653.64646  -2044391.37763
  22569297.4874  -11895268.56946  -9142857.64061
  23483361.6364   -7891429.15745  -5960681.03761
  23776513.8864   -5540769.85345  -4223954.85761
 92  4 17 19 51 44.9990000  0  6G18G11G19G 2G 6G16
  20628727.190     1326885.696 8   1040674.51623
  22980132.4174   -8531222.30746  -6544389.22161
  20665606.9404   -2644950.84246  -2048519.05663
  22561301.855   -11937282.730 6  -9175595.87221
  23476734.331    -7926244.159 5  -5987809.53921
  23772839.792    -5560073.421 5  -4238996.61521
 92  4 17 19 51 59.9990000  0  6G18G11G19G 2G 6G16
  20632593.284     1347201.070 8   1056504.63523
  22976032.542    -8552773.438 6  -6561182.25221
  20664607.7764   -2650199.85946  -2052609.19563
  22553319.167   -11979230.009 6  -9208281.97621
  23470115.2764   -7961035.88845  -6014919.92061
  23769189.8624   -5579242.13945  -4253933.28961
 92  4 17 19 52 14.9990000  0  6G18G11G19G 2G 6G16
  20636482.1124    1367644.26248   1072434.35363
  22971959.292    -8574181.235 6  -6577863.60721
  20663618.3624   -2655396.05046  -2056658.17163
  22545350.948   -12021105.167 6  -9240911.89021
  23463501.3154   -7995799.51945  -6042008.39061
  23765573.8154   -5598270.70845  -4268760.74561
 92  4 17 19 52 29.9990000  0  6G18G11G19G 2G 6G16
  20640398.925     1388218.514 8   1088466.19123
  22967912.526    -8595443.032 6  -6594431.19221
  20662640.7924   -2660533.63246  -2060661.47963
  22537397.714   -12062903.821 6  -9273482.19421
  23456889.237    -8030532.855 5  -6069073.25621
  23761978.136    -5617155.613 5  -4283476.27821
 92  4 17 19 52 44.9990000  0  6G18G11G19G 2G 6G16
  20644337.362     1408922.028 8   1104598.75423
  22963892.683    -8616558.029 6  -6610884.38821
  20661674.9174   -2665609.74046  -2064616.88463
  22529458.370   -12104622.386 6  -9305990.08021
  23450286.4334   -8065235.12945  -6096113.93061
  23758413.253    -5635896.062 5  -4298079.24921
 92  4 17 19 52 59.9990000  0  6G18G11G19G 2G 6G16
  20648303.284     1429759.484 8   1120835.69123
  22959902.769    -8637522.260 6  -6627220.10821
  20660723.0194   -2670618.74546  -2068520.00463
  22521536.940   -12146254.962 6  -9338430.97621
  23443687.425    -8099902.604 5  -6123127.49221
  23754872.792    -5654491.171 5  -4312568.94221
 92  4 17 19 53 14.9990000  0  6G18G11G19G 2G 6G16
  20652292.581     1450728.184 8   1137174.89223
  22955941.808    -8658338.995 6  -6643440.89321
  20659780.4334   -2675562.54946  -2072372.32063
  22513628.448   -12187803.207 6  -9370806.15021
  23437099.558    -8134539.220 5  -6150116.99021
  23751361.6834   -5672945.81845  -4326949.21961
 92  4 17 19 53 29.9990000  0  6G18G11G19G 2G 6G16
  20656308.112     1471831.750 8   1153619.18523
  22952008.855    -8679004.199 6  -6659543.60521
  20658852.6124   -2680439.02346  -2076172.16963
  22505740.659   -12229259.136 6  -9403109.40221
  23430510.636    -8169141.013 5  -6177079.37521
  23747877.0734   -5691255.20845  -4341216.26561
 92  4 17 19 53 44.9990000  0  6G18G11G19G 2G 6G16
  20660351.331     1493070.364 8   1170168.70823
  22948109.4724   -8699516.15646  -6675526.88561
  20657937.3944   -2685247.27146  -2079918.85563
  22497870.6594  -12270621.34246  -9435339.61961
  23423938.644    -8203706.512 5  -6204013.46121
  23744422.2064   -5709417.24445  -4355368.51761
 92  4 17 19 53 59.9990000  0  6G18G11G19G 2G 6G16
  20664417.792     1514441.453 8   1186821.46023
  22944235.144    -8719877.395 6  -6691392.74421
  20657034.0654   -2689989.16946  -2083613.83863
  22490016.409   -12311893.262 6  -9467499.48321
  23417364.8084   -8238238.69745  -6230921.59561
  23740992.292    -5727434.298 5  -4369407.79721
 92  4 17 19 54 14.9990000  0  6G18G11G19G 2G 6G16
  20668508.964     1535938.645 8   1203572.47923
  22940385.300    -8740094.722 6  -6707146.45821
  20656144.1444   -2694671.07746  -2087262.07563
  22482177.011   -12353082.227 6  -9499594.70721
  23410799.8784   -8272744.47345  -6257809.14161
  23737589.9804   -5745312.39045  -4383338.77561
 92  4 17 19 54 29.9990000  0  6G18G11G19G 2G 6G16
  20672623.261     1557563.250 8   1220422.77423
  22936564.730    -8760164.340 6  -6722785.07821
  20655267.8624   -2699289.66646  -2090860.97463
  22474357.065   -12394185.146 6  -9531622.87821
  23404238.6444   -8307220.37445  -6284673.42261
  23734217.1834   -5763048.20145  -4397158.88361
 92  4 17 19 54 44.9990000  0  6G18G11G19G 2G 6G16
  20676762.862     1579313.760 8   1237371.18123
  22932773.433    -8780086.200 6  -6738308.55621
  20654397.2064   -2703846.80046  -2094411.98663
  22466550.7144  -12435203.97046  -9563585.52861
  23397683.542    -8341666.839 5  -6311514.75921
  23730869.487    -5780640.794 5  -4410867.40321
 92  4 17 19 54 59.9990000  0  6G18G11G19G 2G 6G16
  20680925.917     1601190.311 8   1254417.79723
  22929012.8474   -8799860.17446  -6753716.80261
  20653542.2454   -2708344.58646  -2097916.75963
  22458761.2924  -12476140.87046  -9595484.33961
  23391132.6204   -8376083.65945  -6338332.99661
  23727546.940    -5798091.306 5  -4424465.21321
 92  4 17 19 55 14.9990000  0  6G18G11G19G 2G 6G16
  20685112.144     1623192.580 8   1271562.37823
  22925276.175    -8819486.766 6  -6769010.20821
  20652696.3394   -2712784.45546  -2101376.39163
  22450986.120   -12516999.768 6  -9627322.36521
  23384591.5974   -8410471.90445  -6365128.95961
  23724253.4254   -5815399.88245  -4437952.42561
 92  4 17 19 55 29.9990000  0  6G18G11G19G 2G 6G16
  20689321.690     1645314.805 8   1288800.42723
  22921570.394    -8838970.976 6  -6784192.66421
  20651864.2614   -2717172.75046  -2104795.84863
  22443222.7764  -12557786.98046  -9659104.53761
  23378048.651    -8444836.773 5  -6391906.71521
  23720985.5424   -5832570.59245  -4451332.18561
 92  4 17 19 55 44.9990000  0  6G18G11G19G 2G 6G16
  20693554.183     1667553.727 8   1306129.40923
  22917888.8314   -8858315.99446  -6799266.66561
  20651037.1444   -2721511.22646  -2108176.47963
  22435473.8704  -12598507.32546  -9690834.60861
  23371513.690    -8479181.860 5  -6418669.04721
  23717743.6514   -5849606.63245  -4464607.03861
 92  4 17 19 55 59.9990000  0  6G18G11G19G 2G 6G16
  20697808.933     1689914.627 8   1323553.44123
  22914231.815    -8877517.932 6  -6814229.16721
  20650223.3004   -2725792.30246  -2111512.38563
  22427739.7454  -12639157.71546  -9722510.16561
  23364984.7064   -8513503.20945  -6445412.89661
  23714528.4644   -5866505.46445  -4477774.95661
 92  4 17 19 56 14.9990000  0  6G18G11G19G 2G 6G16
  20702086.769     1712393.650 8   1341069.51623
  22910605.8474   -8896580.81846  -6829083.32661
  20649416.5034   -2730020.98446  -2114807.46563
  22420017.1904  -12679742.56446  -9754134.65861
  23358456.1984   -8547805.46345  -6472141.86361
  23711338.1124   -5883270.60245  -4490838.71161
 92  4 17 19 56 29.9990000  0  6G18G11G19G 2G 6G16
  20706386.425     1734989.945 8   1358676.97323
  22907007.511    -8915503.807 6  -6843828.46621
  20648625.2764   -2734197.92146  -2118062.22863
  22412306.3154  -12720261.30046  -9785707.63161
  23351934.0584   -8582088.00245  -6498855.46261
  23708175.323    -5899903.186 5  -4503799.15521
 92  4 17 19 56 44.9990000  0  6G18G11G19G 2G 6G16
  20710708.644     1757698.767 8   1376372.11623
  22903430.1754   -8934290.96346  -6858467.77361
  20647836.4174   -2738328.37346  -2121280.76663
  22404606.5584  -12760717.33346  -9817231.74561
  23345411.3864   -8616354.91345  -6525556.89161
  23705032.886    -5916406.730 5  -4516659.07821
 92  4 17 19 56 59.9990000  0  6G18G11G19G 2G 6G16
  20715050.230     1780517.523 8   1394152.92223
  22899879.8004   -8952945.96246  -6873004.09861
  20647062.1984   -2742416.73246  -2124466.50763
  22396921.5584  -12801112.17546  -9848708.17961
  23338891.519    -8650610.398 5  -6552249.40821
  23701915.8944   -5932785.97845  -4529422.13161
 92  4 17 19 57 14.9990000  0  6G18G11G19G 2G 6G16
  20719413.753     1803447.109 8   1412020.08123
  22896353.4174   -8971468.65446  -6887437.32361
  20646288.2144   -2746462.02346  -2127618.68763
  22389245.2064  -12841444.25446  -9880135.70361
  23332377.2454   -8684854.34645  -6578932.93861
  23698824.6674   -5949040.57045  -4542088.03861
 92  4 17 19 57 29.9990000  0  6G18G11G19G 2G 6G16
  20723797.714     1826481.743 8   1429969.09723
  22892855.3234   -8989865.06546  -6901772.14761
  20645529.6054   -2750472.33346  -2130743.61063
  22381581.5424  -12881719.38546  -9911518.86261
  23325860.136    -8719093.249 5  -6605612.52521
  23695751.9404   -5965176.08845  -4554661.16961
 92  4 17 19 57 44.9990000  0  6G18G11G19G 2G 6G16
  20728199.761     1849622.297 8   1448000.65023
  22889380.2064   -9008133.21846  -6916007.03461
  20644770.8704   -2754443.94446  -2133838.37963
  22373926.5974  -12921934.39546  -9942855.16861
  23319345.323    -8753325.404 5  -6632286.86221
  23692705.3554   -5981191.96845  -4567141.09561
 92  4 17 19 57 59.9990000  0  6G18G11G19G 2G 6G16
  20732623.940     1872866.984 8   1466113.34323
  22885930.5654   -9026273.54046  -6930142.31261
  20644024.2374   -2758375.79746  -2136902.16763
  22366287.4954  -12962090.97946  -9974145.94761
  23312834.0114   -8787551.47445  -6658956.47961
  23689680.980    -5997089.266 5  -4579528.60821
 92  4 17 19 58 14.9990000  0  6G18G11G19G 2G 6G16
  20737067.120     1896215.953 8   1484307.29723
  22882499.5194   -9044284.69746  -6944176.94061
  20643280.2614   -2762270.41346  -2139936.93663
  22358656.7064  -13002188.82646 -10005390.96061
  23306320.628    -8821770.099 5  -6685620.25321
  23686676.886    -6012867.705 5  -4591823.49121
 92  4 17 19 58 29.9990000  0  6G18G11G19G 2G 6G16
  20741528.948     1919662.269 8   1502577.10423
  22879094.0504   -9062173.20946  -6958116.00661
  20642544.9254   -2766138.99246  -2142951.41863
  22351035.3004  -13042236.89946 -10036597.18361
  23299808.472    -8855988.486 5  -6712283.85421
  23683696.2064   -6028534.42945  -4604031.33661
 92  4 17 19 58 44.9990000  0  6G18G11G19G 2G 6G16
  20746009.581     1943205.901 8   1520922.73923
  22875714.2374   -9079939.66346  -6971959.96461
  20641813.5194   -2769982.05446  -2145946.01463
  22343424.5194  -13082234.71446 -10067764.25461
  23293300.6594   -8890207.19845  -6738947.71161
  23680737.7144   -6044089.49045  -4616152.16361
 92  4 17 19 58 59.9990000  0  6G18G11G19G 2G 6G16
  20750509.815     1966849.692 8   1539346.42423
  22872360.2844   -9097581.33746  -6985706.68161
  20641086.2764   -2773795.79646  -2148917.76963
  22335821.4484  -13122180.88246 -10098891.07261
  23286784.933    -8924423.916 5  -6765610.00721
  23677798.2534   -6059528.78245  -4628182.79861
 92  4 17 19 59 14.9990000  0  6G18G11G19G 2G 6G16
  20755027.542     1990594.760 7   1557849.02523
  22869025.3004   -9115097.71646  -6999355.76661
  20640368.1984   -2777578.41846  -2151865.26963
  22328231.2224  -13162080.45146 -10129981.59061
  23280276.5344   -8958638.26045  -6792270.46061
  23674881.4564   -6074851.99445  -4640122.95761
 92  4 17 19 59 29.9990000  0  6G18G11G19G 2G 6G16
  20759564.730     2014439.250 8   1576429.09623
  22865712.675    -9132488.342 6  -7012906.85821
  20639655.7144   -2781330.14246  -2154788.70063
  22320645.2454  -13201936.03546 -10161037.82361
  23273767.6984   -8992850.14645  -6818928.98661
  23671989.7064   -6090057.88345  -4651971.71561
 92  4 17 19 59 44.9990000  0  6G18G11G19G 2G 6G16
  20764122.112     2038382.102 8   1595085.81323
  22862427.105    -9149751.603 6  -7026358.71721
  20638946.2614   -2785049.78546  -2157687.12963
  22313069.6904  -13241745.89146 -10192058.42661
  23267256.331    -9027058.123 5  -6845584.46821
  23669115.6124   -6105144.76945  -4663727.72861
 92  4 17 19 59 59.9990000  0  6G18G11G19G 2G 6G16
  20768695.542     2062421.635 8   1613817.86723
  22859168.0894   -9166888.71146  -7039712.26361
  20638247.0264   -2788737.76346  -2160560.88563
  22305503.3704  -13281510.56446 -10223043.82561
  23260747.0504   -9061263.54745  -6872237.96161
  23666268.636    -6120111.944 5  -4675390.45721
 92  4 17 20  0 14.9990000  0  6G18G11G19G 2G 6G16
  20773288.776     2086559.189 7   1632626.30023
  22855932.112    -9183898.485 6  -7052966.58921
  20637549.1444   -2792395.94946  -2163411.42963
  22297943.6444  -13321227.79446 -10253992.25361
  23254238.7454   -9095465.86645  -6898889.03561
  23663445.831    -6134956.788 5  -4686957.87521
 92  4 17 20  0 29.9990000  0  6G18G11G19G 2G 6G16
  20777900.284     2110791.488 7   1651508.56023
  22852718.4484   -9200783.03446  -7066123.34361
  20636858.2764   -2796026.88446  -2166240.73063
  22290396.4254  -13360897.03346 -10284903.28661
  23247730.1204   -9129667.06845  -6925539.22561
  23660643.4254   -6149680.78845  -4698431.09961
 92  4 17 20  0 44.9990000  0  6G18G11G19G 2G 6G16
  20782529.159     2135117.403 7   1670463.77023
  22849528.144    -9217542.006 6  -7079182.24021
  20636172.0894   -2799628.31446  -2169047.04763
  22282857.4254  -13400516.04946 -10315775.18261
  23241222.901    -9163867.126 5  -6952188.53521
  23657865.9014   -6164282.92545  -4709809.39661
 92  4 17 20  0 59.9990000  0  6G18G11G19G 2G 6G16
  20787174.605     2159535.315 7   1689490.66323
  22846365.956    -9234174.872 6  -7092142.86821
  20635494.8004   -2803196.56146  -2171827.50463
  22275328.5264  -13440083.14646 -10346606.62661
  23234712.8944   -9198065.73745  -6978836.70661
  23655106.823    -6178762.154 5  -4721091.91021
 92  4 17 20  1 14.9990000  0  6G18G11G19G 2G 6G16
  20791840.667     2184045.250 7   1708589.26323
  22843224.901    -9250681.076 6  -7105004.79921
  20634820.5814   -2806731.13746  -2174581.72363
  22267807.3704  -13479597.83546 -10377397.22661
  23228207.1444   -9232262.70145  -7005483.61061
  23652376.550    -6193118.256 5  -4732278.47221
 92  4 17 20  1 29.9990000  0  6G18G11G19G 2G 6G16
  20796522.276     2208650.241 7   1727761.93423
  22840107.722    -9267059.083 6  -7117766.84121
  20634153.8394   -2810232.77846  -2177310.27763
  22260299.7144  -13519056.20946 -10408143.95161
  23221699.0894   -9266456.71745  -7032128.20061
  23649671.9254   -6207350.32045  -4743368.39961
 92  4 17 20  1 44.9990000  0  6G18G11G19G 2G 6G16
  20801222.980     2233351.494 7   1747009.61123
  22837016.198    -9283304.792 6  -7130425.79521
  20633495.4094   -2813698.23746  -2180010.63663
  22252802.2844  -13558450.83546 -10438841.00061
  23215192.3474   -9300643.76745  -7058767.35261
  23646986.5344   -6221455.66245  -4754359.57161
 92  4 17 20  1 59.9990000  0  6G18G11G19G 2G 6G16
  20805941.230     2258151.458 7   1766334.21123
  22833949.925    -9299417.712 6  -7142981.27421
  20632843.1124   -2817124.59346  -2182680.52563
  22245318.3624  -13597780.58746 -10469487.49161
  23208690.8704   -9334823.60345  -7085400.90061
  23644324.3394   -6235435.61045  -4765253.04361
 92  4 17 20  2 14.9990000  0  6G18G11G19G 2G 6G16
  20810681.433     2283057.175 7   1785741.21723
  22830911.034    -9315390.047 6  -7155427.20621
  20632200.3084   -2820503.68546  -2185313.58163
  22237848.4334  -13637038.95346 -10500078.36561
  23202187.839    -9368988.941 5  -7112023.13821
  23641688.3084   -6249285.92645  -4776045.49161
 92  4 17 20  2 29.9990000  0  6G18G11G19G 2G 6G16
  20815440.933     2308067.147 7   1805229.45923
  22827897.0034   -9331222.90846  -7167764.46661
  20631565.9564   -2823835.91246  -2187910.12163
  22230389.1834  -13676227.58746 -10530614.89761
  23195687.620    -9403140.805 5  -7138634.86221
  23639076.1674   -6263009.57345  -4786739.25161
 92  4 17 20  2 44.9990000  0  6G18G11G19G 2G 6G16
  20820219.940     2333181.700 7   1824799.18923
  22824908.8944   -9346916.95946  -7179993.55361
  20630940.7064   -2827122.56146  -2190471.14963
  22222945.4954  -13715347.80546 -10561098.12161
  23189194.6514   -9437280.28845  -7165236.97661
  23636491.6674   -6276609.41545  -4797336.52161
 92  4 17 20  2 59.9990000  0  6G18G11G19G 2G 6G16
  20825017.198     2358397.039 7   1844447.45723
  22821950.511    -9362477.620 6  -7192118.70021
  20630326.3394   -2830368.38046  -2193000.36063
  22215513.4644  -13754406.11946 -10591533.10461
  23182698.847    -9471412.808 5  -7191833.63521
  23633921.8944   -6290091.97745  -4807842.41661
 92  4 17 20  3 14.9990000  0  6G18G11G19G 2G 6G16
  20829836.175     2383721.016 7   1864180.37623
  22819014.456    -9377899.070 6  -7204135.37921
  20629712.8474   -2833570.79146  -2195495.74263
  22208094.3864  -13793395.64846 -10621914.48761
  23176204.3004   -9505533.03745  -7218420.73161
  23631383.472    -6303453.460 5  -4818253.96921
 92  4 17 20  3 29.9990000  0  6G18G11G19G 2G 6G16
  20834675.745     2409151.909 7   1883996.60523
  22816104.230    -9393183.076 6  -7216044.94821
  20629110.7144   -2836733.69146  -2197960.34263
  22200687.2064  -13832316.37646 -10652242.26261
  23169712.8474   -9539642.70645  -7244999.59661
  23628860.4724   -6316695.84445  -4828572.71761
 92  4 17 20  3 44.9990000  0  6G18G11G19G 2G 6G16
  20839535.855     2434685.287 7   1903892.69523
  22813223.9644   -9408331.06846  -7227848.53761
  20628517.5894   -2839857.04646  -2200394.12563
  22193292.6364  -13871169.63046 -10682517.45361
  23163221.9094   -9573743.64245  -7271571.64361
  23626364.0814   -6329822.68845  -4838801.41761
 92  4 17 20  3 59.9990000  0  6G18G11G19G 2G 6G16
  20844412.886     2460321.163 7   1923868.64923
  22810367.730    -9423344.096 6  -7239546.95721
  20627929.6364   -2842938.39746  -2202795.18063
  22185912.0194  -13909956.42446 -10712740.86261
  23156736.800    -9607837.083 5  -7298137.87921
  23623888.8704   -6342832.31245  -4848938.78961
 92  4 17 20  4 14.9990000  0  6G18G11G19G 2G 6G16
  20849313.308     2486064.225 7   1943928.13023
  22807535.3624   -9438219.71546  -7251138.31661
  20627353.1834   -2845974.16846  -2205160.71963
  22178545.5114  -13948674.60646 -10742910.80261
  23150249.7454   -9641920.77645  -7324696.48761
  23621439.472    -6355720.388 5  -4858981.45521
 92  4 17 20  4 29.9990000  0  6G18G11G19G 2G 6G16
  20854231.175     2511914.537 7   1964071.17823
  22804732.612    -9452956.565 6  -7262621.53021
  20626783.7694   -2848963.88846  -2207490.37163
  22171191.464   -13987320.986 6 -10773024.79621
  23143765.089    -9675993.642 5  -7351246.67921
  23619006.9014   -6368482.76245  -4868926.17261
 92  4 17 20  4 44.9990000  0  6G18G11G19G 2G 6G16
  20859171.589     2537872.630 7   1984298.21123
  22801952.370    -9467555.913 6  -7273997.60521
  20626223.3084   -2851909.64046  -2209785.76363
  22163849.948   -14025897.268 6 -10803084.16421
  23137282.987    -9710057.070 5  -7377789.50321
  23616598.7224   -6381118.56745  -4878772.25161
 92  4 17 20  4 59.9990000  0  6G18G11G19G 2G 6G16
  20864130.558     2563931.081 7   2004603.44723
  22799198.362    -9482025.287 6  -7285272.39921
  20625670.0424   -2854819.93146  -2212053.52663
  22156520.3474  -14064411.45246 -10833095.14461
  23130800.128    -9744118.924 5  -7404331.11021
  23614221.8234   -6393634.10145  -4888524.62061
 92  4 17 20  5 14.9990000  0  6G18G11G19G 2G 6G16
  20869109.597     2590096.179 7   2024991.78223
  22796473.3004   -9496357.26746  -7296440.13661
  20625124.2924   -2857685.05846  -2214286.09463
  22149204.425   -14102857.093 6 -10863052.71522
  23124323.8784   -9778171.86245  -7430865.75961
  23611863.3624   -6406020.21945  -4898176.14061
 92  4 17 20  5 29.9990000  0  6G18G11G19G 2G 6G16
  20874109.042     2616369.476 7   2045464.42823
  22793772.7304   -9510549.20646  -7307498.76161
  20624589.8154   -2860501.19846  -2216480.48563
  22141901.448   -14141233.669 6 -10892956.46322
  23117845.198    -9812213.471 5  -7457391.58621
  23609530.6904   -6418272.67345  -4907723.52761
 92  4 17 20  5 44.9990000  0  6G18G11G19G 2G 6G16
  20879128.667     2642744.467 7   2066016.31723
  22791096.6444   -9524607.09546  -7318452.92761
  20624061.8394   -2863270.19846  -2218638.15163
  22134610.183   -14179552.662 6 -10922815.34622
  23111368.089    -9846249.931 5  -7483913.40221
  23607223.1674   -6430396.17745  -4917170.41861
 92  4 17 20  5 59.9990000  0  6G18G11G19G 2G 6G16
  20884166.386     2669221.750 7   2086647.91323
  22788446.4484   -9538530.85346  -7329302.58361
  20623543.5114   -2865993.78546  -2220760.42963
  22127328.253   -14217816.692 6 -10952631.39522
  23104890.4334   -9880281.38545  -7510431.32361
  23604941.8234   -6442388.50845  -4926515.11661
 92  4 17 20  6 14.9990000  0  6G18G11G19G 2G 6G16
  20889225.495     2695807.185 7   2107363.78623
  22785824.5194   -9552315.64746  -7340043.94561
  20623033.3394   -2868671.31046  -2222846.81763
  22120057.198   -14256021.192 6 -10982401.05922
  23098416.5264   -9914303.20745  -7536941.73461
  23602685.605    -6454245.757 5  -4935754.53121
 92  4 17 20  6 29.9990000  0  6G18G11G19G 2G 6G16
  20894306.151     2722498.688 7   2128162.30623
  22783226.769    -9565960.622 6  -7350676.36721
  20622530.8474   -2871305.99146  -2224899.81763
  22112799.800   -14294164.458 6 -11012123.00622
  23091945.456    -9948314.750 5  -7563444.12321
  23600454.4564   -6465972.12645  -4944891.97061
 92  4 17 20  6 44.9990000  0  6G18G11G19G 2G 6G16
  20899404.284     2749294.387 7   2149042.01623
  22780656.9094   -9579466.46446  -7361200.37461
  20622037.7304   -2873901.23346  -2226922.08763
  22105553.222   -14332247.586 6 -11041798.09322
  23085475.3554   -9982316.97945  -7589939.28461
  23598249.433    -6477571.693 5  -4953930.59221
 92  4 17 20  6 59.9990000  0  6G18G11G19G 2G 6G16
  20904522.870     2776194.595 7   2170003.16123
  22778113.511    -9592832.793 6  -7371615.66721
  20621555.3154   -2876455.67846  -2228912.57263
  22098317.511   -14370271.383 6 -11071426.95022
  23079003.980   -10016309.483 5  -7616426.86021
  23596064.003    -6489046.299 5  -4962871.86921
 92  4 17 20  7 14.9990000  0  6G18G11G19G 2G 6G16
  20909662.159     2803200.204 7   2191046.43823
  22775594.980    -9606056.467 6  -7381919.81021
  20621075.4094   -2878964.59246  -2230867.57563
  22091094.206   -14408232.326 6 -11101006.82422
  23072538.347   -10050289.585 5  -7642904.76821
  23593906.136    -6500392.526 5  -4971713.09121
 92  4 17 20  7 29.9990000  0  6G18G11G19G 2G 6G16
  20914820.972     2830307.656 7   2212169.07423
  22773106.370    -9619138.638 6  -7392113.67921
  20620607.1364   -2881428.37446  -2232787.41163
  22083880.808   -14446132.429 6 -11130539.29522
  23066073.769   -10084258.348 5  -7669373.84621
  23591766.6594   -6511613.67045  -4980456.84661
 92  4 17 20  7 44.9990000  0  6G18G11G19G 2G 6G16
  20919999.089     2857522.279 7   2233375.21723
  22770645.0034   -9632073.93546  -7402193.10561
  20620145.9564   -2883843.17646  -2234669.08263
  22076682.112   -14483966.888 7 -11160020.60822
  23059616.3624  -10118210.92145  -7695830.30961
  23589656.3784   -6522706.79945  -4989100.84661
 92  4 17 20  7 59.9990000  0  6G18G11G19G 2G 6G16
  20925198.073     2884842.981 7   2254664.02023
  22768212.534    -9644865.478 6  -7412160.51821
  20619695.1124   -2886214.28146  -2236516.70163
  22069494.651   -14521735.845 7 -11189450.89222
  23053155.6054  -10152150.28845  -7722276.48361
  23587570.8394   -6533676.35345  -4997648.59061
 92  4 17 20  8 14.9990000  0  6G18G11G19G 2G 6G16
  20930417.761     2912276.634 7   2276040.83723
  22765806.0734   -9657506.43346  -7422010.59461
  20619253.6514   -2888536.23646  -2238326.02663
  22062321.800   -14559428.973 6 -11218822.08322
  23046700.534   -10186070.093 5  -7748707.41721
  23585509.089    -6544517.366 5  -5006096.13121
 92  4 17 20  8 29.9990000  0  6G18G11G19G 2G 6G16
  20935659.605     2939816.015 7   2297500.03923
  22763429.565    -9670002.957 6  -7431748.11521
  20618822.9644   -2890811.53146  -2240098.98663
  22055161.511   -14597053.507 6 -11248139.82722
  23040248.433   -10219976.571 5  -7775127.97021
  23583467.308    -6555239.203 5  -5014450.82821
 92  4 17 20  8 44.9990000  0  6G18G11G19G 2G 6G16
  20940922.3784    2967468.10747   2319047.06863
  22761079.7144   -9682347.55546  -7441367.26161
  20618399.0264   -2893029.49746  -2241827.27863
  22048016.214   -14634603.516 6 -11277399.50022
  23033799.644   -10253862.330 5  -7801532.37321
  23581452.222    -6565832.488 5  -5022705.35821
 92  4 17 20  8 59.9990000  0  6G18G11G19G 2G 6G16
  20946204.019     2995228.129 7   2340678.20323
  22758757.6754   -9694544.50446  -7450871.35261
  20617989.9874   -2895192.43346  -2243512.68663
  22040882.9094  -14672086.15746 -11306606.67962
  23027358.8624  -10287731.77545  -7827924.07161
  23579459.331    -6576298.760 5  -5030860.92021
 92  4 17 20  9 14.9990000  0  6G18G11G19G 2G 6G16
  20951506.901     3023104.057 7   2362399.64723
  22756466.862    -9706587.195 6  -7460255.24421
  20617587.1444   -2897293.90647  -2245150.20163
  22033763.769   -14709494.822 6 -11335756.21522
  23020915.253   -10321578.605 5  -7854298.13721
  23577494.394    -6586627.516 5  -5038909.31121
 92  4 17 20  9 29.9990000  0  6G18G11G19G 2G 6G16
  20956833.940     3051090.440 7   2384207.16223
  22754202.862    -9718480.141 6  -7469522.46021
  20617201.9174   -2899338.82246  -2246743.65063
  22026659.2614  -14746832.92446 -11364850.77062
  23014476.5344  -10355407.55845  -7880658.29061
  23575553.2924   -6596822.70445  -5046853.64761
 92  4 17 20  9 44.9990000  0  6G18G11G19G 2G 6G16
  20962181.120     3079189.773 7   2406102.69123
  22751969.261    -9730224.535 6  -7478673.91121
  20616820.3864   -2901330.10447  -2248295.30763
  22019568.2454  -14784099.14746 -11393889.31562
  23008044.487   -10389219.881 5  -7907005.46821
  23573639.4804   -6606886.22945  -5054695.37461
 92  4 17 20  9 59.9990000  0  6G18G11G19G 2G 6G16
  20967551.3004    3107405.24347   2428088.71563
  22749762.956    -9741818.715 6  -7487708.32321
  20616452.355    -2903269.087 6  -2249806.21223
  22012490.5034  -14821290.07446 -11422869.18862
  23001612.276   -10423014.191 5  -7933338.62321
  23571748.831    -6616813.524 5  -5062430.94221
 92  4 17 20 10 14.9990000  0  6G18G11G19G 2G 6G16
  20972941.026     3135732.871 7   2450162.13623
  22747585.315    -9753264.040 6  -7496626.74021
  20616091.948    -2905156.005 6  -2251276.55123
  22005426.0264  -14858406.93146 -11451791.34362
  22995185.901   -10456791.858 5  -7959658.80921
  23569886.784    -6626604.277 5  -5070060.11221
 92  4 17 20 10 29.9990000  0  6G18G11G19G 2G 6G16
  20978353.409     3164173.275 7   2472323.43523
  22745435.331    -9764556.809 6  -7505426.27621
  20615743.878    -2906986.839 6  -2252703.18523
  21998377.5584  -14895447.86946 -11480654.34362
  22988760.355   -10490549.515 5  -7985963.39021
  23568050.964    -6636255.264 5  -5077580.39221
 92  4 17 20 10 44.9990000  0  6G18G11G19G 2G 6G16
  20983785.565     3192720.706 7   2494568.13123
  22743312.667    -9775700.463 6  -7514109.62121
  20615404.542    -2908766.974 6  -2254090.31623
  21991344.4014  -14932415.44646 -11509460.19162
  22982338.940   -10524290.764 5  -8012255.20421
  23566242.745    -6645769.235 5  -5084993.89621
 92  4 17 20 10 59.9990000  0  6G18G11G19G 2G 6G16
  20989239.675     3221383.237 7   2516902.51323
  22741222.222    -9786687.967 6  -7522671.29821
  20615075.472    -2910491.973 6  -2255434.48023
  21984325.3624  -14969300.39846 -11538201.64962
  22975923.589   -10558008.622 5  -8038528.77921
  23564459.839    -6655137.373 5  -5092293.76621
 92  4 17 20 11 14.9990000  0  6G18G11G19G 2G 6G16
  20994715.440     3250156.666 7   2539323.31123
  22739163.0194   -9797522.95346  -7531114.11761
  20614757.386    -2912166.930 6  -2256739.65523
  21977322.5654  -15006105.00946 -11566880.50462
  22969509.5734  -10591706.88345  -8064787.08261
  23562702.1124   -6664362.97545  -5099482.57761
 92  4 17 20 11 29.9990000  0  6G18G11G19G 2G 6G16
  21000212.636     3279041.042 7   2561830.55923
  22737129.3864   -9808205.53746  -7539438.17961
  20614446.698    -2913790.505 7  -2258004.78723
  21970332.3154  -15042827.37546 -11595495.27162
  22963100.167   -10625385.753 5  -8091030.27821
  23560974.5264   -6673447.36145  -5106561.34861
 92  4 17 20 11 44.9990000  0  6G18G11G19G 2G 6G16
  21005730.409     3308035.607 7   2584423.67223
  22735126.2924   -9818734.83146  -7547642.79961
  20614149.839    -2915362.148 6  -2259229.45523
  21963360.3944  -15079468.31346 -11624046.58662
  22956695.323   -10659044.780 5  -8117258.00821
  23559270.589    -6682393.433 5  -5113532.33121
 92  4 17 20 11 59.9990000  0  6G18G11G19G 2G 6G16
  21011267.5034    3337142.46347   2607104.28063
  22733152.1984   -9829106.68246  -7555724.73261
  20613862.183    -2916879.907 6  -2260412.13523
  21956404.9644  -15116026.70346 -11652533.58662
  22950295.940   -10692679.812 5  -8143467.04421
  23557598.808    -6691199.078 5  -5120393.90221
 92  4 17 20 12 14.9990000  0  6G18G11G19G 2G 6G16
  21016827.2844    3366355.37747   2629867.53263
  22731206.0504   -9839323.17046  -7563685.60661
  20613580.714    -2918343.228 6  -2261552.40023
  21949461.6204  -15152507.26346 -11680959.93562
  22943898.909   -10726293.034 5  -8169659.08221
  23555948.0504   -6699867.59045  -5127148.61361
 92  4 17 20 12 29.9990000  0  6G18G11G19G 2G 6G16
  21022406.6834    3395669.58347   2652709.71263
  22729292.550    -9849387.264 6  -7571527.73821
  20613315.222    -2919753.417 6  -2262651.25823
  21942532.4174  -15188914.02746 -11709328.78562
  22937508.050   -10759887.615 5  -8195836.60621
  23554321.956    -6708405.378 5  -5133801.47121
 92  4 17 20 12 44.9990000  0  6G18G11G19G 2G 6G16
  21028004.8314    3425087.58047   2675632.77063
  22727406.542    -9859296.906 6  -7579249.51421
  20613056.0424   -2921110.10646  -2263708.43263
  21935620.456   -15225241.161 7 -11737635.58822
  22931115.6984  -10793461.69945  -8221998.15061
  23552725.3234   -6716811.68145  -5140351.86061
 92  4 17 20 12 59.9990000  0  6G18G11G19G 2G 6G16
  21033621.3084    3454609.20347   2698636.57163
  22725549.933    -9869052.651 6  -7586851.36421
  20612807.808    -2922412.064 6  -2264722.95623
  21928721.8394  -15261491.32747 -11765882.41362
  22924730.5814  -10827015.75245  -8248144.09361
  23551148.4644   -6725084.86445  -5146798.52861
 92  4 17 20 13 14.9990000  0  6G18G11G19G 2G 6G16
  21039259.3314    3484233.51647   2721720.39563
  22723721.6124   -9878656.33446  -7594334.73061
  20612569.901    -2923659.473 6  -2265694.97723
  21921838.1754  -15297669.20247 -11794072.90562
  22918348.847   -10860552.072 5  -8274276.21521
  23549601.862    -6733226.013 5  -5153142.29421
 92  4 17 20 13 29.9990000  0  6G18G11G19G 2G 6G16
  21044916.2374    3513963.33447   2744886.42763
  22721922.269    -9888105.139 6  -7601697.41121
  20612346.058    -2924848.393 6  -2266621.42023
  21914967.464   -15333772.086 7 -11822204.97422
  22911973.769   -10894067.927 5  -8300392.38721
  23548074.3944   -6741232.81245  -5159381.39261
 92  4 17 20 13 44.9990000  0  6G18G11G19G 2G 6G16
  21050593.5894    3543798.12947   2768134.26163
  22720155.8704   -9897400.03046  -7608940.15561
  20612126.901    -2925980.168 6  -2267503.33523
  21908111.7304  -15369801.79047 -11850280.00562
  22905596.659   -10927564.311 5  -8326493.38621
  23546574.8864   -6749109.12345  -5165518.80561
 92  4 17 20 13 59.9990000  0  6G18G11G19G 2G 6G16
  21056288.7764    3573730.37147   2791458.02463
  22718414.8704   -9906548.83446  -7616069.06861
  20611921.550    -2927065.571 6  -2268349.11623
  21901268.011   -15405765.648 7 -11878303.74322
  22899225.761   -10961049.255 5  -8352585.47521
  23545098.792    -6756861.494 5  -5171559.64121
 92  4 17 20 14 14.9990000  0  6G18G11G19G 2G 6G16
  21062004.7144    3603761.88147   2814859.14663
  22716700.956    -9915551.425 6  -7623084.05321
  20611726.097    -2928101.448 6  -2269156.30523
  21894436.948   -15441661.123 7 -11906274.19122
  22892855.917   -10994522.664 5  -8378668.57921
  23543647.120    -6764486.980 5  -5177501.61221
 92  4 17 20 14 29.9990000  0  6G18G11G19G 2G 6G16
  21067737.9804    3633895.88747   2838340.13063
  22715014.698    -9924405.894 6  -7629983.61521
  20611538.7374   -2929083.89846  -2269921.85763
  21887620.089   -15477485.749 7 -11934189.43322
  22886488.956   -11027982.919 5  -8404741.42621
  23542225.144    -6771981.521 5  -5183341.54421
 92  4 17 20 14 44.9990000  0  6G18G11G19G 2G 6G16
  21073494.1904    3664131.96647   2861900.64963
  22713358.8474   -9933113.46846  -7636768.70561
  20611360.9804   -2930016.02146  -2270648.19863
  21880814.855   -15513238.829 7 -11962048.91822
  22880123.245   -11061431.282 5  -8430805.01521
  23540824.050    -6779345.198 5  -5189079.49621
 92  4 17 20 14 59.9990000  0  6G18G11G19G 2G 6G16
  21079267.2144    3694473.77447   2885543.56063
  22711729.347    -9941671.432 6  -7643437.23121
  20611192.4644   -2930895.42146  -2271333.45263
  21874026.894   -15548920.615 7 -11989852.85022
  22873762.565   -11094865.276 5  -8456857.40021
  23539443.6364   -6786573.55545  -5194712.02361
 92  4 17 20 15 14.9990000  0  6G18G11G19G 2G 6G16
  21085061.5654    3724922.24147   2909269.57863
  22710128.245    -9950079.661 6  -7649989.07421
  20611036.5424   -2931720.13746  -2271976.09763
  21867249.3154  -15584533.47347 -12017603.07462
  22867401.4484  -11128284.70045  -8482898.43661
  23538100.058    -6793666.383 5  -5200238.93421
 92  4 17 20 15 29.9990000  0  6G18G11G19G 2G 6G16
  21090875.8314    3755475.83047   2933077.50663
  22708558.011    -9958339.605 6  -7656425.36621
  20610890.6444   -2932493.82246  -2272578.97663
  21860485.737   -15620076.416 7 -12045298.82122
  22861045.5034  -11161691.43445  -8508929.58061
  23536776.300    -6800628.851 5  -5205664.25421
 92  4 17 20 15 44.9990000  0  6G18G11G19G 2G 6G16
  21096709.8554    3786136.77047   2956969.08963
  22707017.0504   -9966448.01046  -7662743.58061
  20610750.784    -2933211.956 6  -2273138.57323
  21853736.073   -15655547.733 7 -12072938.75522
  22854690.558   -11195082.007 5  -8534948.13721
  23535473.3314   -6807459.62445  -5210986.95761
 92  4 17 20 15 59.9990000  0  6G18G11G19G 2G 6G16
  21102563.9804    3816902.60747   2980942.40563
  22705501.284    -9974407.560 6  -7668945.80221
  20610625.847    -2933877.967 6  -2273657.55323
  21846998.128   -15690951.146 7 -12100525.77622
  22848338.0194  -11228459.35045  -8560956.36961
  23534199.3624   -6814162.19045  -5216209.77461
 92  4 17 20 16 14.9990000  0  6G18G11G19G 2G 6G16
  21108437.6984    3847770.80747   3004995.48963
  22704013.847    -9982219.390 6  -7675032.92221
  20610509.237    -2934491.998 6  -2274136.03023
  21840273.823   -15726288.505 7 -12128061.32822
  22841992.253   -11261824.866 5  -8586955.40221
  23532947.659    -6820736.771 5  -5221332.85421
 92  4 17 20 16 29.9990000  0  6G18G11G19G 2G 6G16
  21114331.4644    3878741.35047   3029128.31863
  22702557.1834   -9989882.51346  -7681004.15761
  20610402.151    -2935051.034 6  -2274571.65723
  21833560.792   -15761560.448 7 -12155545.90322
  22835643.940   -11295177.610 5  -8612944.47821
  23531716.784    -6827183.535 5  -5226356.33721
 92  4 17 20 16 44.9990000  0  6G18G11G19G 2G 6G16
  21120243.4014    3909808.17847   3053336.17462
  22701123.644    -9997400.639 6  -7686862.41821
  20610305.8944   -2935563.06246  -2274970.65163
  21826861.136   -15796770.205 7 -12182982.02322
  22829296.831   -11328521.339 5  -8638926.52821
  23530517.894    -6833507.490 5  -5231284.11621
 92  4 17 20 16 59.9990000  0  6G18G11G19G 2G 6G16
  21126176.3314    3940980.14747   3077625.95462
  22699725.5034  -10004765.88546  -7692601.53561
  20610218.073    -2936021.433 6  -2275327.83723
  21820174.4564  -15831908.75747 -12210362.65662
  22822955.8864  -11361848.45845  -8664895.64361
  23529335.7694   -6839702.82445  -5236111.68761
 92  4 17 20 17 14.9990000  0  6G18G11G19G 2G 6G16
  21132128.4644    3972256.08447   3101996.75763
  22698350.5654  -10011982.23546  -7698224.64061
  20610139.448    -2936429.341 6  -2275645.70223
  21813501.1674  -15866978.20647 -12237689.44062
  22816616.362   -11395162.836 5  -8690854.82321
  23528181.1204   -6845773.58845  -5240842.18361
 92  4 17 20 17 29.9990000  0  6G18G11G19G 2G 6G16
  21138100.1284    4003636.19447   3126448.72062
  22697007.0814  -10019049.21046  -7703731.34961
  20610072.378    -2936787.718 6  -2275924.97023
  21806841.1364  -15901975.65347 -12264960.12362
  22810279.886   -11428464.063 5  -8716803.75821
  23527050.3864   -6851720.15945  -5245475.90161
 92  4 17 20 17 44.9990000  0  6G18G11G19G 2G 6G16
  21144090.6984    4035117.37047   3150979.44062
  22695690.5114  -10025967.24446  -7709121.98961
  20610012.776    -2937097.451 6  -2276166.33123
  21800195.0734  -15936899.46747 -12292173.42562
  22803946.362   -11461753.003 5  -8742743.11621
  23525942.011    -6857541.915 5  -5250012.38621
 92  4 17 20 17 59.9990000  0  6G18G11G19G 2G 6G16
  21150100.2534    4066701.99147   3175590.76563
  22694401.5654  -10032735.37446  -7714395.83261
  20609965.394    -2937356.953 6  -2276368.55123
  21793564.128   -15971745.871 7 -12319326.41422
  22797614.0584  -11495028.53645  -8768672.03961
  23524858.1444   -6863234.25545  -5254448.00261
 92  4 17 20 18 14.9990000  0  6G18G11G19G 2G 6G16
  21156128.6904    4098387.26047   3200280.52062
  22693141.800   -10039354.996 6  -7719553.95021
  20609924.190    -2937570.411 6  -2276534.89623
  21786949.1674  -16006512.00147 -12346416.85162
  22791282.5424  -11528292.28445  -8794591.78061
  23523801.894    -6868796.267 5  -5258782.06821
 92  4 17 20 18 29.9990000  0  6G18G11G19G 2G 6G16
  21162179.6514    4130175.93547   3225050.84962
  22691909.190   -10045821.253 6  -7724592.57321
  20609891.620    -2937730.885 6
  21780350.003   -16041191.062 7 -12373439.43922
  22784955.8624  -11561539.40945  -8820498.55561
  23522768.440    -6874223.180 5  -5263010.87121
 92  4 17 20 18 44.9990000  0  6G18G11G19G 2G 6G16
  21168247.3154    4162066.70147   3249900.72763
  22690709.7304  -10052137.74346  -7729514.48461
  20609871.870    -2937843.000 6
  21773767.1284  -16075785.14447 -12400395.81562
  22778631.003   -11594773.743 5  -8846395.37021
  23521758.386    -6879519.218 5  -5267137.66921
 92  4 17 20 18 59.9990000  0  6G18G11G19G 2G 6G16
  21174335.3474    4194056.19747   3274827.53862
  22689535.417   -10058306.509 6  -7734321.29221
  20609858.565    -2937908.444 6
  21767198.808   -16110295.505 7 -12427286.94922
  22772307.417   -11627997.444 5  -8872283.89621
  23520779.995    -6884687.225 5  -5271164.74521
 92  4 17 20 19 14.9990000  0  6G18G11G19G 2G 6G16
  21180442.3084    4226146.37447   3299832.80462
  22688390.4564  -10064326.00946  -7739011.78661
  20609857.519    -2937922.699 6
  21760647.753   -16144723.460 7 -12454113.87622
  22765988.823   -11661208.789 5  -8898162.79821
  23519816.5814   -6889722.61545  -5275088.45761
 92  4 17 20 19 29.9990000  0  6G18G11G19G 2G 6G16
  21186567.2694    4258338.44447   3324917.46663
  22687274.8864  -10070191.54146  -7743582.29661
  20609868.487    -2937881.018 6
  21754111.612   -16179067.680 7 -12480875.55522
  22759673.3864  -11694403.24745  -8924028.54261
  23518884.909    -6894620.736 5  -5278905.21721
 92  4 17 20 19 44.9990000  0  6G18G11G19G 2G 6G16
  21192712.3084    4290625.87947   3350076.43362
  22686189.3944  -10075907.79746  -7748036.50461
  20609881.855    -2937787.497 6
  21747590.956   -16213335.971 7 -12507578.06522
  22753358.0654  -11727585.88745  -8949885.08561
  23517977.2374   -6899387.33645  -5282619.48761
 92  4 17 20 19 59.9990000  0  6G18G11G19G 2G 6G16
  21198874.5504    4323007.90047   3375309.10762
  22685126.3944  -10081478.30846  -7752377.14061
  20609908.6514   -2937644.44046
  21741084.323   -16247533.021 7 -12534225.06322
  22747044.5264  -11760760.16845  -8975735.10761
  23517096.878    -6904026.275 5  -5286234.29521
 92  4 17 20 20 14.9990000  0  6G18G11G19G 2G 6G16
  21205055.081     4355486.088 7   3400616.71322
  22684094.3234  -10086900.97146  -7756602.55861
  20609946.956    -2937452.456 6
  21734589.198   -16281659.780 7 -12560817.28922
  22740735.355   -11793924.031 5  -9001577.00421
  23516238.8004   -6908537.69345  -5289749.71661
 92  4 17 20 20 29.9990000  0  6G18G11G19G 2G 6G16
  21211253.4094    4388057.99147   3425997.34762
  22683092.1674  -10092177.28846  -7760713.94561
  20609991.636    -2937212.238 6  -2276255.91823
  21728108.261   -16315722.114 7 -12587359.31922
  22734424.1284  -11827079.03945  -9027412.00561
  23515404.901    -6912926.641 5  -5293169.70821
 92  4 17 20 20 44.9990000  0  6G18G11G19G 2G 6G16
  21217469.237     4420722.020 7   3451449.76422
  22682112.7924  -10097309.98246  -7764713.42261
  20610046.378    -2936927.773 6  -2276034.26923
  21721637.987   -16349726.247 7 -12613855.99222
  22728117.230   -11860228.136 5  -9053242.41321
  23514587.2064   -6917196.32045  -5296496.76661
 92  4 17 20 20 59.9990000  0  6G18G11G19G 2G 6G16
  21223701.800     4453478.269 7   3476974.04222
  22681164.0974  -10102297.61746  -7768599.86661
  20610109.4874   -2936599.24146  -2275778.28163
  21715176.331   -16383672.190 7 -12640307.32422
  22721809.589   -11893369.980 5  -9079067.16421
  23513801.5894   -6921342.89445  -5299727.90661
 92  4 17 20 21 14.9990000  0  6G18G11G19G 2G 6G16
  21229950.2924    4486319.76347   3502564.74562
  22680242.690   -10107145.357 6  -7772377.29521
  20610178.847    -2936231.630 6  -2275491.84723
  21708727.011   -16417566.124 7 -12666718.12822
  22715504.7064  -11926509.53246  -9104890.13061
  23513032.5034   -6925372.42745  -5302867.83761
 92  4 17 20 21 29.9990000  0  6G18G11G19G 2G 6G16
  21236218.448     4519253.598 7   3528227.40122
  22679346.698   -10111847.244 6  -7776041.07821
  20610258.065    -2935819.953 6  -2275171.07423
  21702288.675   -16451402.633 7 -12693084.18822
  22709198.8234  -11959641.11445  -9130706.88361
  23512292.7064   -6929281.43145  -5305913.84861
 92  4 17 20 21 44.9990000  0  6G18G11G19G 2G 6G16
  21242504.042     4552279.995 7   3553962.17722
  22678481.589   -10116401.932 6  -7779590.16621
  20610341.987    -2935363.669 6  -2274815.54123
  21695861.183   -16485177.952 7 -12719402.56622
  22702896.8474  -11992763.53145  -9156516.49661
  23511570.5194   -6933071.98345  -5308867.58361
 92  4 17 20 21 59.9990000  0  6G18G11G19G 2G 6G16
  21248804.339     4585394.029 7   3579765.24822
  22677641.761   -10120813.025 6  -7783027.36521
  20610440.8864   -2934867.08146  -2274428.60063
  21689445.269   -16518893.633 7 -12745674.47622
  22696590.651   -12025880.202 5  -9182321.63221
  23510873.7304   -6936746.82745  -5311731.13861
 92  4 17 20 22 14.9990000  0  6G18G11G19G 2G 6G16
  21255122.815     4618593.447 7   3605634.85022
  22676828.675   -10125079.309 6  -7786351.72221
  20610540.9724   -2934331.60346  -2274011.35763
  21683040.964   -16552546.862 7 -12771897.72122
  22690293.3394  -12058990.28845  -9208121.63861
  23510193.386    -6940304.139 5  -5314503.10321
 92  4 17 20 22 29.9990000  0  6G18G11G19G 2G 6G16
  21261456.987     4651878.920 7   3631571.50422
  22676044.909   -10129201.286 6  -7789563.63521
  20610652.8704   -2933754.73846  -2273561.86163
  21676648.800   -16586137.509 7 -12798072.19722
  22683994.1674  -12092094.04645  -9233916.71461
  23509541.503    -6943744.859 5  -5317184.23121
 92  4 17 20 22 44.9990000  0  6G18G11G19G 2G 6G16
  21267807.151     4685248.873 7   3657573.98722
  22675288.198   -10133180.793 6  -7792664.53221
  20610768.3554   -2933135.90146  -2273079.66063
  21670269.253   -16619666.302 7 -12824198.47922
  22677693.659   -12125193.533 5  -9259708.45321
  23508906.3004   -6947068.89845  -5319774.41961
 92  4 17 20 22 59.9990000  0  6G18G11G19G 2G 6G16
  21274172.534     4718697.019 7   3683637.40122
  22674557.839   -10137021.294 6  -7795657.10621
  20610893.7144   -2932476.88946  -2272566.15463
  21663899.628   -16653135.919 7 -12850278.65022
  22671396.011   -12158292.268 5  -9285499.61921
  23508293.6594   -6950281.14045  -5322277.50761
 92  4 17 20 23 14.9990000  0  6G18G11G19G 2G 6G16
  21280552.034     4752223.960 7   3709762.21622
  22673853.245   -10140723.707 6  -7798542.09021
  20611026.4174   -2931775.42246  -2272019.56663
  21657540.698   -16686547.263 7 -12876313.41622
  22665098.9564  -12191391.23546  -9311290.95661
  23507706.769    -6953385.418 5  -5324696.45821
 92  4 17 20 23 29.9990000  0  6G18G11G19G 2G 6G16
  21286947.769     4785833.059 7   3735951.04722
  22673175.886   -10144286.520 6  -7801318.29221
  20611168.0584   -2931028.21446  -2271437.33463
  21651194.089   -16719899.169 7 -12902301.86022
  22658802.3084  -12224488.93246  -9337081.31261
  23507136.440    -6956381.684 5  -5327031.25321
 92  4 17 20 23 44.9990000  0  6G18G11G19G 2G 6G16
  21293359.292     4819525.444 7   3762204.77822
  22672523.128   -10147707.710 6  -7803984.13821
  20611321.2844   -2930232.15646  -2270817.03463
  21644859.276   -16753190.072 7 -12928242.77322
  22652502.1754  -12257583.60746  -9362869.29761
  23506586.0584   -6959264.26945  -5329277.45161
 92  4 17 20 23 59.9990000  0  6G18G11G19G 2G 6G16
  21299785.214     4853299.248 7   3788521.95222
  22671898.855   -10150990.416 6  -7806542.08221
  20611480.0344   -2929390.32946  -2270161.07463
  21638535.386   -16786421.789 7 -12954137.56522
  22646204.276   -12290678.335 6  -9388657.32621
  23506059.4254   -6962033.99545  -5331435.72161
 92  4 17 20 24 14.9990000  0  6G18G11G19G 2G 6G16
  21306229.980     4887159.534 7   3814906.51522
  22671301.6444  -10154131.77246  -7808989.87961
  20611648.5974   -2928498.35246  -2269466.03563
  21632223.878   -16819591.784 7
  22639908.073   -12323770.370 6
  23505555.5034   -6964687.01045  -5333503.03761
 92  4 17 20 24 29.9990000  0  6G18G11G19G 2G 6G16
  21312689.933     4921108.629 7   3841360.28122
  22670729.081   -10157133.780 6  -7811329.08621
  20611832.2224   -2927555.11546  -2268731.05263
  21625923.651   -16852702.005 7
  22633609.745   -12356861.516 6
  23505071.511    -6967225.020 5  -5335480.74921
 92  4 17 20 24 44.9990000  0  6G18G11G19G 2G 6G16
  21319168.550     4955147.073 7   3867883.66322
  22670186.745   -10159995.070 6  -7813558.65521
  20612017.7764   -2926557.80846  -2267953.93963
  21619633.2764  -16885752.81247
  22627310.940   -12389950.655 6
  23504610.612    -6969647.269 5  -5337368.26421
 92  4 17 20 24 59.9990000  0  6G18G11G19G 2G 6G16
  21325660.730     4989268.219 7   3894471.48822
  22669667.495   -10162717.086 6  -7815679.69421
  20612221.2224   -2925510.35846  -2267137.75263
  21613355.292   -16918745.695 7 -13057246.88722
  22621015.253   -12423039.208 6  -9491795.39321
  23504171.511    -6971953.810 5  -5339165.59921
 92  4 17 20 25 14.9990000  0  6G18G11G19G 2G 6G16
  21332173.308     5023492.019 7   3921139.30722
  22669179.9174  -10165283.41946  -7817679.43161
  20612429.9564   -2924395.49546  -2266269.03763
  21607090.573   -16951662.647 7 -13082896.40222
  22614725.0974  -12456110.78546  -9517565.38861
  23503757.589    -6974126.714 5  -5340858.81221
 92  4 17 20 25 29.9990000  0  6G18G11G19G 2G 6G16
  21338703.776     5057807.156 7   3947878.29622
  22668715.6444  -10167707.06946  -7819567.98261
  20612651.6984   -2923228.79846  -2265359.93163
  21600839.8084  -16984515.57947 -13108496.03562
  22608432.3474  -12489178.41546  -9543332.29761
  23503372.315    -6976176.125 5  -5342455.80521
 92  4 17 20 25 44.9990000  0  6G18G11G19G 2G 6G16
  21345249.980     5092218.050 7   3974691.90122
  22668281.683   -10169982.378 6  -7821340.94221
  20612885.6834   -2922007.48246  -2264408.26463
  21594602.1124  -17017295.64747 -13134038.88762
  22602139.7614  -12522236.50246  -9569091.78961
  23503003.3394   -6978094.02245  -5343950.29561
 92  4 17 20 25 59.9990000  0  6G18G11G19G 2G 6G16
  21351817.675     5126724.827 7   4001580.21922
  22667877.7764  -10172108.84746  -7822997.92361
  20613129.8944   -2920732.28146  -2263414.60863
  21588378.011   -17050002.143 7 -13159524.41122
  22595849.2844  -12555284.78946  -9594843.63061
  23502660.0424   -6979881.63445  -5345343.28361
 92  4 17 20 26 14.9990000  0  6G18G11G19G 2G 6G16
  21358402.667     5161328.049 7   4028543.68522
  22667505.4014  -10174085.89246  -7824538.47061
  20613379.7144   -2919402.71646  -2262378.59263
  21582168.159   -17082633.115 7 -13184951.08522
  22589564.3474  -12588322.55246  -9620587.27261
  23502348.292    -6981539.561 5  -5346635.21321
 92  4 17 20 26 29.9990000  0  6G18G11G19G 2G 6G16
  21365003.198     5196024.277 7   4055579.63122
  22667155.6124  -10175914.74446  -7825963.54261
  20613642.9644   -2918019.95846  -2261301.12563
  21575972.300   -17115190.545 7 -13210320.45822
  22583280.198   -12621351.053 6  -9646323.70121
  23502056.534    -6983069.561 5  -5347827.44621
 92  4 17 20 26 44.9990000  0  6G18G11G19G 2G 6G16
  21371625.815     5230811.821 7   4082686.72522
  22666833.9484  -10177594.42346  -7827272.38161
  20613916.6284   -2916584.59246  -2260182.66663
  21569791.4334  -17147674.31047 -13235632.43062
  22576993.9724  -12654369.27846  -9672052.12561
  23501788.581    -6984471.227 5  -5348919.69821
 92  4 17 20 26 59.9990000  0  6G18G11G19G 2G 6G16
  21378263.058     5265691.610 7   4109865.69922
  22666545.276   -10179121.851 6  -7828462.56921
  20614200.1754   -2915094.66346  -2259021.69263
  21563624.573   -17180082.291 7 -13260885.34622
  22570713.730   -12687374.330 6  -9697770.26321
  23501545.9334   -6985743.48245  -5349911.09761
 92  4 17 20 27 14.9990000  0  6G18G11G19G 2G 6G16
  21384917.620     5300668.411 7   4137120.27022
  22666282.6984  -10180494.19946  -7829531.93261
  20614495.7764   -2913548.21646  -2257816.67863
  21557471.9094  -17212410.40747 -13286076.03462
  22564439.480   -12720363.292 6  -9723475.88221
  23501332.769    -6986884.510 5  -5350800.26421
 92  4 17 20 27 29.9990000  0  6G18G11G19G 2G 6G16
  21391591.003     5335736.532 7   4164445.99622
  22666051.1594  -10181717.95846  -7830485.50761
  20614798.081    -2911953.886 6  -2256574.35723
  21551336.1834  -17244664.77247 -13311209.24662
  22558159.917   -12753342.778 6  -9749174.12021
  23501135.151    -6987901.536 5  -5351592.78821
 92  4 17 20 27 44.9990000  0  6G18G11G19G 2G 6G16
  21398281.183     5370889.138 7   4191837.55222
  22665845.7144  -10182793.99246  -7831323.96961
  20615111.0734   -2910314.90846  -2255297.24263
  21545209.784   -17276847.873 7 -13336286.93722
  22551887.9644  -12786313.59146  -9774865.58961
  23500964.5894   -6988798.41345  -5352291.70261
 92  4 17 20 27 59.9990000  0  6G18G11G19G 2G 6G16
  21404986.550     5406126.067 7   4219294.81522
  22665669.4564  -10183719.86546  -7832045.42261
  20615432.6444   -2908626.63746  -2253981.71863
  21539100.237   -17308959.536 7 -13361308.95922
  22545612.5734  -12819273.22346  -9800548.34861
  23500816.6514   -6989572.90745  -5352895.23461
 92  4 17 20 28 14.9990000  0  6G18G11G19G 2G 6G16
  21411707.909     5441444.652 7   4246815.70922
  22665520.644   -10184496.455 6  -7832650.54721
  20615761.175    -2906888.872 6  -2252627.62723
  21533001.956   -17341001.811 7 -13386276.91722
  22539344.355   -12852222.692 6  -9826223.18221
  23500696.1754   -6990226.38245  -5353404.50461
 92  4 17 20 28 29.9990000  0  6G18G11G19G 2G 6G16
  21418443.105     5476850.575 7   4274404.65822
  22665403.8004  -10185117.15046
  20616102.972    -2905095.069 6  -2251229.87023
  21526919.917   -17372968.241 7 -13411185.77022
  22533078.0344  -12885155.50046  -9851885.04361
  23500592.433    -6990751.499 5
 92  4 17 20 28 44.9990000  0  6G18G11G19G 2G 6G16
  21425197.722     5512334.497 7   4302054.38222
  22665316.4644  -10185590.05146
  20616453.2694   -2903253.45746  -2249794.85663
  21520849.480   -17404868.582 7 -13436043.12722
  22526811.440   -12918079.586 6  -9877540.10321
  23500515.331    -6991157.835 5
 92  4 17 20 28 59.9990000  0  6G18G11G19G 2G 6G16
  21431966.464     5547904.396 7   4329771.11022
  22665255.487   -10185908.328 6
  20616813.315    -2901358.279 6  -2248318.10923
  21514793.206   -17436695.163 7 -13460843.01222
  22520550.7764  -12950988.35246  -9903183.23661
  23500463.487    -6991440.695 5
 92  4 17 20 29 14.9990000  0  6G18G11G19G 2G 6G16
  21438751.722     5583561.395 7   4357555.70122
  22665220.144   -10186071.783 6
  20617185.948    -2899410.024 6  -2246800.00123
  21508749.089   -17468445.756 7 -13485583.68622
  22514292.4484  -12983881.41846  -9928814.12961
  23500434.089    -6991597.567 5
 92  4 17 20 29 29.9990000  0  6G18G11G19G 2G 6G16
  21445554.019     5619305.617 7   4385408.26722
  22665223.112   -10186081.051 6
  20617564.597    -2897410.103 6  -2245241.63923
  21502722.722   -17500117.930 7 -13510263.25022
  22508033.7454  -13016759.51146  -9954433.35961
  23500429.105    -6991626.828 5
 92  4 17 20 29 44.9990000  0  6G18G11G19G 2G 6G16
  21452373.940     5655142.007 7   4413332.64722
  22665252.2764  -10185930.97046
  20617956.472    -2895352.048 6  -2243637.97823
  21496711.769   -17531709.761 7 -13534880.21422
  22501780.1904  -13049617.42946  -9980036.86061
  23500446.862    -6991523.353 5
 92  4 17 20 29 59.9990000  0  6G18G11G19G 2G 6G16
  21459209.159     5691067.820 7   4441326.70422
  22665303.9404  -10185624.84546
  20618360.589    -2893234.640 6  -2241988.06623
  21490713.589   -17563225.030 7 -13559437.51822
  22495530.2224  -13082458.47646 -10005627.21561
  23500490.144    -6991290.450 5
 92  4 17 20 30 14.9990000  0  6G18G11G19G 2G 6G16
  21466065.550     5727092.232 7   4469397.59322
  22665395.3004  -10185157.66746  -7833165.72161
  20618777.644    -2891051.453 6  -2240286.90023
  21484733.503   -17594657.088 7 -13583929.98522
  22489286.1364  -13115277.54246 -10031200.44561
  23500557.6364   -6990922.35845  -5353947.21561
 92  4 17 20 30 29.9990000  0  6G18G11G19G 2G 6G16
  21472937.7844    5763216.11447   4497545.98762
  22665514.980   -10184530.672 6  -7832677.14321
  20619205.050    -2888805.448 6  -2238536.78423
  21478768.409   -17626006.354 7 -13608357.93922
  22483045.472   -13148076.138 6 -10056757.71621
  23500657.7534   -6990422.10445  -5353557.46161
 92  4 17 20 30 44.9990000  0  6G18G11G19G 2G 6G16
  21479832.5424    5799440.21347   4525772.46862
  22665663.9404  -10183745.69946  -7832065.47561
  20619644.097    -2886498.300 6  -2236739.02723
  21472817.394   -17657276.453 7 -13632724.20622
  22476808.058   -13180855.742 6 -10082300.19221
  23500776.6984   -6989791.84745  -5353066.39261
 92  4 17 20 30 59.9990000  0  6G18G11G19G 2G 6G16
  21486746.933     5835765.256 7   4554077.61422
  22665845.0034  -10182803.14846  -7831331.01861
  20620092.386    -2884132.080 6  -2234895.23923
  21466880.831   -17688467.946 7 -13657029.22422
  22470571.089   -13213617.067 6 -10107828.42021
  23500921.706    -6989032.033 5  -5352474.38021
 92  4 17 20 31 14.9990000  0  6G18G11G19G 2G 6G16
  21493677.105     5872197.917 7   4582466.61322
  22666056.5424  -10181696.79146  -7830468.92661
  20620555.128    -2881699.960 6  -2233000.10623
  21460962.151   -17719573.840 7 -13681267.54022
  22464343.026   -13246353.677 6 -10133337.39121
  23501094.558    -6988134.035 5  -5351774.69221
 92  4 17 20 31 29.9990000  0  6G18G11G19G 2G 6G16
  21500628.526     5908731.612 7   4610934.34722
  22666298.1754  -10180430.69746  -7829482.36061
  20621027.620    -2879203.323 6  -2231054.69923
  21455058.128   -17750599.242 7 -13705443.13322
  22458116.003   -13279069.777 6 -10158830.38421
  23501288.9254   -6987103.28845  -5350971.57361
 92  4 17 20 31 44.9990000  0  6G18G11G19G 2G 6G16
  21507601.6594    5945367.30347   4639481.55162
  22666567.6514  -10179002.08946  -7828369.16661
  20621518.120    -2876637.983 6  -2229055.75023
  21449169.565   -17781545.109 7 -13729556.75822
  22451895.1284  -13311762.54046 -10184305.19561
  23501510.355    -6985939.167 5  -5350064.50021
 92  4 17 20 31 59.9990000  0  6G18G11G19G 2G 6G16
  21514591.355     5982101.086 7   4668105.19622
  22666869.5734  -10177413.93246  -7827131.64161
  20622023.300    -2874006.246 6  -2227005.06623
  21443295.3624  -17812414.55447 -13753610.82562
  22445679.112   -13344434.869 6 -10209764.07821
  23501757.6284   -6984646.01145  -5349056.90261
 92  4 17 20 32 14.9990000  0  6G18G11G19G 2G 6G16
  21521601.0424    6018935.72047   4696807.42262
  22667204.4874  -10175665.02746  -7825768.86061
  20622532.175    -2871308.169 6  -2224902.68723
  21437434.7924  -17843204.27047 -13777602.77862
  22439467.7764  -13377085.63146 -10235206.16261
  23502026.667    -6983223.599 5  -5347948.58821
 92  4 17 20 32 29.9990000  0  6G18G11G19G 2G 6G16
  21528628.058     6055866.600 7   4725584.65022
  22667565.4724  -10173759.69446  -7824284.19161
  20623058.636    -2868552.721 6  -2222755.60423
  21431591.0974  -17873919.06147 -13801536.34162
  22433256.2224  -13409719.04446 -10260634.73161
  23502321.659    -6981676.159 5  -5346742.84121
 92  4 17 20 32 44.9990000  0  6G18G11G19G 2G 6G16
  21535674.644     6092893.425 7   4754436.63522
  22667957.1984  -10171698.30846  -7822677.91761
  20623591.886    -2865739.805 6  -2220563.73923
  21425760.2694  -17904561.31747 -13825413.38762
  22427047.7374  -13442335.33846 -10286049.96261
  23502642.5424   -6980003.12645  -5345439.22761
 92  4 17 20 32 59.9990000  0  6G18G11G19G 2G 6G16
  21542738.8944    6130012.27747   4783360.33162
  22668379.3624  -10169482.81546  -7820951.56761
  20624139.862    -2862869.721 6  -2218327.32523
  21419942.4564  -17935131.45647 -13849234.23762
  22420845.9254  -13474936.60046 -10311453.47861
  23502981.612    -6978206.864 5  -5344039.60921
 92  4 17 20 33 14.9990000  0  6G18G11G19G 2G 6G16
  21549818.558     6167225.183 7   4812357.31422
  22668832.1284  -10167108.65746  -7819101.57961
  20624696.120    -2859936.662 6  -2216041.84323
  21414140.128   -17965621.885 7 -13872992.97622
  22414646.1984  -13507518.27346 -10336841.73061
  23503350.105    -6976284.533 5  -5342541.75121
 92  4 17 20 33 29.9990000  0  6G18G11G19G 2G 6G16
  21556919.7844    6204534.27047   4841429.24062
  22669313.2304  -10164573.95046  -7817126.48261
  20625267.628    -2856936.832 6  -2213704.33023
  21408353.9484  -17996030.38247 -13896687.86762
  22408446.987   -13540078.319 6 -10362213.13221
  23503738.058    -6974235.498 5  -5340945.15421
 92  4 17 20 33 44.9990000  0  6G18G11G19G 2G 6G16
  21564037.2304    6241938.76347   4870575.51362
  22669824.5034  -10161881.31946  -7815028.33261
  20625852.175    -2853874.871 6  -2211318.40623
  21402581.5424  -18026359.89147 -13920321.21562
  22402257.3084  -13572619.49646 -10387569.83661
  23504151.7924   -6972062.11645  -5339251.68261
 92  4 17 20 33 59.9990000  0  6G18G11G19G 2G 6G16
  21571174.245     6279439.104 7   4899796.47022
  22670367.0194  -10159032.42846  -7812808.42661
  20626445.808    -2850754.146 6  -2208886.69023
  21396825.6124  -18056612.89647 -13943894.94762
  22396066.2144  -13605143.52546 -10412913.17261
  23504588.4724   -6969765.88445  -5337462.46761
 92  4 17 20 34 14.9990000  0  6G18G11G19G 2G 6G16
  21578327.2224    6317036.34247   4929092.93162
  22670940.1444  -10156026.59146  -7810466.21761
  20627050.995    -2847574.594 6  -2206409.14023
  21391082.6754  -18086785.56347 -13967406.07562
  22389881.8234  -13637649.14546 -10438242.16861
  23505048.183    -6967348.730 5  -5335579.03821
 92  4 17 20 34 29.9990000  0  6G18G11G19G 2G 6G16
  21585500.440     6354724.892 7   4958460.54422
  22671541.1124  -10152866.93446
  20627667.425    -2844339.746 6
  21385356.4644  -18116881.97447 -13990857.78562
  22383697.4254  -13670140.01546 -10463559.66461
  23505532.0034   -6964814.15945  -5333604.11861
 92  4 17 20 34 44.9990000  0  6G18G11G19G 2G 6G16
  21592689.3314    6392504.68447   4987899.25462
  22672172.7064  -10149551.84546
  20628291.948    -2841046.495 6
  21379644.5894  -18146898.71347 -14014247.41062
  22377520.6984  -13702614.11546 -10488864.10761
  23506037.386    -6962160.894 5  -5331536.68921
 92  4 17 20 34 59.9990000  0  6G18G11G19G 2G 6G16
  21599895.909     6430369.971 7   5017404.58422
  22672830.3004  -10146084.33246  -7802719.01761
  20628932.605    -2837695.993 6  -2198711.58523
  21373946.6284  -18176837.01247 -14037575.91562
  22371343.253   -13735074.805 6 -10514158.09921
  23506563.487    -6959394.953 5  -5329381.47521
 92  4 17 20 35 14.9990000  0  6G18G11G19G 2G 6G16
  21607117.1984    6468318.09047   5046974.45962
  22673520.4404  -10142463.15946  -7799897.33461
  20629579.323    -2834288.135 6  -2196056.13123
  21368266.6594  -18206694.31047 -14060841.30262
  22365166.940   -13767520.515 6 -10539440.41421
  23507112.1984   -6956515.72845  -5327137.98761
 92  4 17 20 35 29.9990000  0  6G18G11G19G 2G 6G16
  21614353.8864    6506348.00647   5076608.07162
  22674238.1594  -10138689.33546  -7796956.69461
  20630238.737    -2830823.699 6  -2193356.58623
  21362598.550   -18236473.127 7 -14084045.52922
  22358997.909   -13799952.170 6 -10564711.78621
  23507678.6514   -6953523.42845  -5324806.39361
 92  4 17 20 35 44.9990000  0  6G18G11G19G 2G 6G16
  21621605.7924    6544456.44847   5106302.86862
  22674986.0034  -10134763.83046  -7793897.86761
  20630905.730    -2827303.840 6  -2190613.85423
  21356945.792   -18266176.625 7 -14107191.06722
  22352829.042   -13832370.890 6 -10589973.06821
  23508270.823    -6950415.322 5  -5322384.55721
 92  4 17 20 35 59.9990000  0  6G18G11G19G 2G 6G16
  21628870.4174    6582636.95347   5136053.82162
  22675759.5034  -10130689.77746  -7790723.28661
  20631586.394    -2823729.897 6  -2187828.97823
  21351307.612   -18295806.362 7 -14130279.13422
  22346660.300   -13864779.501 6 -10615226.48121
  23508884.6514   -6947194.72245  -5319875.06761
 92  4 17 20 36 14.9990000  0  6G18G11G19G 2G 6G16
  21636151.0504    6620888.80647   5165860.36862
  22676565.3394  -10126464.10146  -7787430.55361
  20632278.175    -2820096.713 6  -2184997.94423
  21345685.292   -18325357.737 7 -14153306.13222
  22340493.839   -13897175.108 6 -10640469.75321
  23509521.6124   -6943858.97845  -5317275.84461
 92  4 17 20 36 29.9990000  0  6G18G11G19G 2G 6G16
  21643441.3394    6659210.01847   5195720.96262
  22677401.0264  -10122087.82746  -7784020.48061
  20632979.659    -2816403.374 6  -2182120.03123
  21340076.237   -18354831.182 7 -14176272.40822
  22334332.308   -13929558.598 6 -10665703.59621
  23510176.417    -6940405.254 5  -5314584.71321
 92  4 17 20 36 44.9990000  0  6G18G11G19G 2G 6G16
  21650747.5114    6697599.82447   5225635.00162
  22678257.9094  -10117563.03646  -7780494.67361
  20633696.112    -2812651.331 6  -2179196.37323
  21334482.315   -18384228.845 7 -14199179.63222
  22328170.980   -13961931.889 6 -10690929.48421
  23510857.6834   -6936831.99645  -5311800.41061
 92  4 17 20 36 59.9990000  0  6G18G11G19G 2G 6G16
  21658066.7144    6736060.42547   5255604.20862
  22679148.761   -10112890.083 6  -7776853.42321
  20634421.855    -2808839.592 6
  21328901.276   -18413552.078 7 -14222028.85722
  22322013.550   -13994295.571 6 -10716147.88721
  23511556.409    -6933138.959 5
 92  4 17 20 37 14.9990000  0  6G18G11G19G 2G 6G16
  21665399.6514    6774592.32047   5285628.97062
  22680066.3474  -10108069.57146  -7773097.18061
  20635157.440    -2804967.967 6
  21323334.558   -18442803.354 7 -14244822.01022
  22315855.964   -14026649.939 6 -10741359.03521
  23512286.620    -6929323.941 5
 92  4 17 20 37 29.9990000  0  6G18G11G19G 2G 6G16
  21672744.8784    6813196.64347   5315710.16362
  22681010.1514  -10103104.35646  -7769228.18761
  20635908.105    -2801037.224 6
  21317782.714   -18471986.828 7 -14267562.32822
  22309700.284   -14058997.880 6 -10766565.17021
  23513030.628    -6925388.205 5
 92  4 17 20 37 44.9990000  0  6G18G11G19G 2G 6G16
  21680107.2374    6851882.58747   5345854.95362
  22681983.7454  -10097990.91346  -7765243.69261
  20636665.362    -2797043.494 6  -2167034.48323
  21312241.909   -18501098.950 7 -14290247.05422
  22303545.589   -14091335.749 6 -10791763.46321
  23513809.495    -6921327.130 5
 92  4 17 20 37 59.9990000  0  6G18G11G19G 2G 6G16
  21687487.2374    6890652.27247   5376065.00962
  22682985.706   -10092729.577 6  -7761143.95921
  20637436.2454   -2792988.42046  -2163874.69763
  21306716.081   -18530140.139 7 -14312876.50522
  22297396.339   -14123663.947 6 -10816954.22021
  23514598.878    -6917143.344 5
 92  4 17 20 38 14.9990000  0  6G18G11G19G 2G 6G16
  21694878.9564    6929510.47747   5406344.03562
  22684014.1514  -10087318.82146  -7756927.79661
  20638220.7064   -2788871.00546  -2160666.33263
  21301202.776   -18559109.350 7 -14335449.86322
  22291246.4804  -14155980.64046 -10842136.00361
  23515425.112    -6912838.446 5
 92  4 17 20 38 29.9990000  0  6G18G11G19G 2G 6G16
  21702291.3474    6968461.17147   5436695.12362
  22685072.8474  -10081757.40146  -7752594.23161
  20639018.4954   -2784691.51346  -2157409.59763
  21295703.761   -18588007.000 7 -14357967.46022
  22285101.003   -14188284.672 6 -10867307.92121
  23516265.503    -6908410.426 5        -0.22631
 92  4 17 20 38 44.9990000  0  6G18G11G19G 2G 6G16
  21709724.315     7007518.015 7   5467128.93222
  22686159.9804  -10076033.79746  -7748134.28961
  20639825.737    -2780439.673 6  -2154096.49123
  21290220.815   -18616823.514 7 -14380421.84222
  22278955.190   -14220564.537 6 -10892461.01121
  23517133.4094   -6903847.24945      3555.42861
 92  4 17 20 38 59.9990000  0  6G18G11G19G 2G 6G16
  21717174.9564    7046670.74547   5497637.45562
  22687279.034   -10070157.830 6  -7743555.62921
  20640647.565    -2776126.259 6  -2150735.40223
  21284749.987   -18645568.906 7 -14402820.79922
  22272814.862   -14252829.848 6 -10917602.75421
  23518024.097    -6899160.514 5      7207.37121
 92  4 17 20 39 14.9990000  0  6G18G11G19G 2G 6G16
  21724641.6514    7085914.00747   5528216.52562
  22688424.886   -10064133.866 6  -7738861.64621
  20641478.136    -2771756.064 6  -2147330.06723
  21279291.370   -18674249.644 7 -14425169.37822
  22266679.5264  -14285084.73946 -10942736.37361
  23518938.8154   -6894356.33745     10950.82661
 92  4 17 20 39 29.9990000  0  6G18G11G19G 2G 6G16
  21732127.0264    7125252.08147   5558869.46962
  22689602.0264  -10057955.01946  -7734046.97261
  20642318.331    -2767324.845 6  -2143877.18423
  21273847.831   -18702857.852 7 -14447461.44322
  22260543.230   -14317322.517 6 -10967856.66621
  23519879.253    -6889430.160 5     14789.32121
 92  4 17 20 39 44.9990000  0  6G18G11G19G 2G 6G16
  21739629.0264    7164680.35047   5589592.69762
  22690808.4644  -10051624.24346  -7729113.91261
  20643174.940    -2762836.711 6  -2140379.95123
  21268418.058   -18731396.084 7 -14469698.98122
  22254410.7844  -14349545.75346 -10992965.62161
  23520838.4804   -6884385.98045     18719.79161
 92  4 17 20 39 59.9990000  0  6G18G11G19G 2G 6G16
  21747151.370     7204192.911 7   5620381.60122
  22692040.2534  -10045142.58046  -7724063.27261
  20644040.636    -2758293.305 6  -2136839.65123
  21262999.753   -18759865.643 7 -14491883.00922
  22248283.776   -14381755.847 6 -11018064.34121
  23521816.6984   -6879224.76645     22741.44961
 92  4 17 20 40 14.9990000  0  6G18G11G19G 2G 6G16
  21754683.050     7243776.987 7   5651226.23422
  22693301.1284  -10038518.05546  -7718901.31761
  20644913.980    -2753699.776 6  -2133260.29423
  21257593.831   -18788273.498 7 -14514018.95522
  22242151.6124  -14413960.48046 -11043158.80261
  23522822.7374   -6873956.23345     26846.72661
 92  4 17 20 40 29.9990000  0  6G18G11G19G 2G 6G16
  21762228.901     7283433.297 7   5682127.15122
  22694590.386   -10031748.123 6  -7713626.06221
  20645799.526    -2749052.732 6  -2129639.23523
  21252199.730   -18816616.278 7 -14536104.19222
  22236028.6674  -14446156.91746 -11068246.87161
  23523845.901    -6868573.395 5     31041.06821
 92  4 17 20 40 44.9990000  0  6G18G11G19G 2G 6G16
  21769791.284     7323165.753 7   5713087.40422
  22695905.589   -10024828.338 6  -7708234.02921
  20646694.651    -2744348.403 6  -2125973.54223
  21246819.667   -18844889.418 7 -14558135.16522
  22229901.7534  -14478340.76146 -11093325.13061
  23524893.362    -6863072.369 5     35327.52921
 92  4 17 20 40 59.9990000  0  6G18G11G19G 2G 6G16
  21777366.2144    7362976.34546   5744108.54162
  22697253.214   -10017756.149 6  -7702723.24921
  20647599.636    -2739582.644 6  -2122259.97823
  21241453.878   -18873088.607 7 -14580108.51522
  22223780.3154  -14510509.31246 -11118391.46561
  23525963.464    -6857453.342 5     39705.92021
 92  4 17 20 41 14.9990000  0  6G18G11G19G 2G 6G16
  21784956.081     7402852.251 6   5775180.56522
  22698623.105   -10010543.251 6  -7697102.82921
  20648517.440    -2734765.950 6  -2118506.72223
  21236100.331   -18901221.671 7 -14602030.33922
  22217661.1904  -14542674.32946 -11143455.05761
  23527051.081    -6851730.102 5     44165.51421
 92  4 17 20 41 29.9990000  0  6G18G11G19G 2G 6G16
  21792555.714     7442798.028 6   5806307.04222
  22700027.1984  -10003183.02346  -7691367.59761
  20649442.362    -2729890.365 6  -2114707.58223
  21230761.511   -18929280.257 7 -14623894.12822
  22211538.8154  -14574828.79246 -11168510.41861
  23528162.9724   -6845896.14845     48711.37061
 92  4 17 20 41 44.9990000  0  6G18G11G19G 2G 6G16
  21800170.964     7482814.271 6   5837488.42422
  22701452.230    -9995675.588 6  -7685517.67121
  20650384.315    -2724953.840 6  -2110860.95523
  21225436.901   -18957262.985 7 -14645698.80822
  22205425.2064  -14606972.93246 -11193557.73861
  23529288.284    -6839949.942 5     53344.73821
 92  4 17 20 41 59.9990000  0  6G18G11G19G 2G 6G16
  21807798.644     7522899.403 6   5868723.48222
  22702909.886    -9988023.124 6  -7679554.72921
  20651335.573    -2719956.138 6  -2106966.65823
  21220124.917   -18985171.665 7 -14667445.79023
  22199309.401   -14639108.861 6 -11218598.67021
  23530443.667    -6833891.750 5     58065.31221
 92  4 17 20 42 14.9990000  0  6G18G11G19G 2G 6G16
  21815441.565     7563060.175 6   5900017.48322
  22704395.315    -9980220.524 6  -7673474.79221
  20652298.261    -2714892.361 6  -2103020.87323
  21214829.667   -19013000.388 7 -14689130.46522
  22193196.6054  -14671231.22446 -11243629.01661
  23531623.206    -6827716.597 5     62877.05621
 92  4 17 20 42 29.9990000  0  6G18G11G19G 2G 6G16
  21823098.003     7603296.745 6   5931370.54622
  22705910.065    -9972270.820 6  -7667280.23121
  20653272.323    -2709766.368 6  -2099026.61023
  21209548.644   -19040752.834 7 -14710755.70922
  22187084.2764  -14703342.98646 -11268651.11061
  23532816.378    -6821427.277 5     67777.73721
 92  4 17 20 42 44.9990000  0  6G18G11G19G 2G 6G16
  21830770.355     7643614.530 6   5962786.89422
  22707450.6514   -9964169.81746  -7660967.77561
  20654260.456    -2704578.370 6  -2094984.02923
  21204282.355   -19068425.309 7 -14732318.63323
  22180976.6204  -14735439.90246 -11293661.63861
  23534034.526    -6815020.922 5     72769.64121
 92  4 17 20 42 59.9990000  0  6G18G11G19G 2G 6G16
  21838458.222     7684012.912 6   5994266.04122
  22709021.2224   -9955917.10046  -7654537.09561
  20655260.940    -2699326.769 6  -2090891.88423
  21199032.870   -19096013.850 7 -14753816.14922
  22174871.995   -14767521.503 6 -11318660.23521
  23535278.534    -6808499.421 5     77851.25421
 92  4 17 20 43 14.9990000  0  6G18G11G19G 2G 6G16
  21846159.995     7724485.283 6   6025802.84622
  22710618.440    -9947517.304 6  -7647991.81221
  20656270.120    -2694016.072 6  -2086753.69423
  21193799.112   -19123521.790 7 -14775250.86222
  22168769.3234  -14799592.10046 -11343650.25661
  23536544.4724   -6801865.17545     83020.73161
 92  4 17 20 43 29.9990000  0  6G18G11G19G 2G 6G16
  21853875.526     7765035.374 6   6057400.21422
  22712246.6834   -9938966.14146  -7641328.57661
  20657291.0734   -2688643.91446  -2082567.61063
  21188579.175   -19150948.111 7 -14796621.98022
  22162669.972   -14831647.490 6 -11368628.42721
  23537826.847    -6795112.894 5     88282.17721
 92  4 17 20 43 44.9990000  0  6G18G11G19G 2G 6G16
  21861607.597     7805663.016 6   6089058.00522
  22713900.8084   -9930264.50146  -7634548.08461
  20658327.050    -2683211.148 6  -2078334.29923
  21183374.995   -19178299.149 7 -14817934.43723
  22156571.847   -14863688.316 6 -11393595.25121
  23539135.0734   -6788240.78745     93636.97961
 92  4 17 20 43 59.9990000  0  6G18G11G19G 2G 6G16
  21869353.605     7846369.654 6   6120777.35321
  22715584.6364   -9921413.21246  -7627650.98661
  20659371.8944   -2677720.49546  -2074055.87963
  21178183.7454  -19205575.55247 -14839188.73463
  22150477.9954  -14895715.24946 -11418551.25061
  23540464.362    -6781252.102 5     99082.64321
 92  4 17 20 44 14.9990000  0  6G18G11G19G 2G 6G16
  21877116.058     7887155.265 6   6152558.24121
  22717297.050    -9912413.185 6  -7620637.98821
  20660427.800    -2672175.716 6  -2069735.28123
  21173007.620   -19232778.994 7 -14860386.17723
  22144384.058   -14927729.219 6 -11443497.14821
  23541819.987    -6774150.070 5    104616.61321
 92  4 17 20 44 29.9990000  0  6G18G11G19G 2G 6G16
  21884891.847     7928019.105 6   6184400.08421
  22719039.183    -9903265.655 6  -7613510.05921
  20661494.6754   -2666578.07146  -2065373.49763
  21167843.370   -19259913.098 7 -14881529.59023
  22138295.690   -14959731.289 6 -11468433.77921
  23543189.534    -6766936.605 5    110237.41421
 92  4 17 20 44 44.9990000  0  6G18G11G19G 2G 6G16
  21892682.261     7968957.726 6   6216300.19321
  22720808.378    -9893971.785 6  -7606268.09721
  20662566.4564   -2660928.73346  -2060971.42763
  21162693.097   -19286977.645 7 -14902618.80123
  22132209.253   -14991722.590 6 -11493362.01221
  23544582.9174   -6759613.16045    115943.92261
 92  4 17 20 44 59.9990000  0  6G18G11G19G 2G 6G16
  21900486.815     8009973.764 6   6248260.63021
  22722604.8394   -9884529.16846  -7598910.23061
  20663653.7454   -2655221.96146  -2056524.60863
  21157557.0114  -19313969.88647 -14923651.67463
  22126123.839   -15023700.367 6 -11518279.71021
  23545996.0894   -6752178.57345    121737.02061
 92  4 17 20 45 14.9990000  0  6G18G11G19G 2G 6G16
  21908305.144     8051064.327 6   6280279.14021
  22724429.862    -9874940.548 6  -7591438.59121
  20664748.269    -2649459.192 6  -2052034.15023
  21152433.956   -19340895.319 7 -14944632.49023
  22120039.105   -15055667.362 6 -11543189.01421
  23547433.112    -6744634.051 5    127615.81421
 92  4 17 20 45 29.9990000  0  6G18G11G19G 2G 6G16
  21916142.409     8092233.074 6   6312358.57121
  22726282.855    -9865201.557 6  -7583849.77521
  20665858.8554   -2643637.02846  -2047497.40963
  21147321.089   -19367754.586 7 -14965561.74523
  22113958.901   -15087618.870 6 -11568086.24521
  23548889.7374   -6736976.92945    133582.32661
 92  4 17 20 45 44.9990000  0  6G18G11G19G 2G 6G16
  21923988.667     8133479.280 6   6344498.35921
  22728166.128    -9855313.170 6  -7576144.55421
  20666977.784    -2637755.134 6  -2042914.13023
  21142222.5264  -19394548.92147 -14986440.40863
  22107883.284   -15119556.081 6 -11592972.34321
  23550367.409    -6729208.940 5    139635.22621
 92  4 17 20 45 59.9990000  0  6G18G11G19G 2G 6G16
  21931853.659     8174802.034 6   6376697.79321
  22730075.034    -9845275.561 6  -7568323.06021
  20668108.8084   -2631813.63846  -2038284.40463
  21137139.026   -19421273.542 7 -15007264.74623
  22101805.839   -15151478.950 6 -11617847.26121
  23551869.1674   -6721331.69045    145773.28561
 92  4 17 20 46 14.9990000  0  6G18G11G19G 2G 6G16
  21939730.480     8216198.313 6   6408954.52321
  22732011.292    -9835089.340 6  -7560385.75721
  20669250.0264   -2625813.36346  -2033608.87863
  21132064.8624  -19447927.04447 -15028033.66863
  22095736.1444  -15183387.68946 -11642711.17161
  23553385.1204   -6713347.40945    151994.72461
 92  4 17 20 46 29.9990000  0  6G18G11G19G 2G 6G16
  21947620.519     8257667.221 6   6441267.84321
  22733977.1514   -9824753.08746  -7552331.54161
  20670405.401    -2619750.888 6  -2028884.88423
  21127007.4094  -19474509.04247 -15048746.87663
  22089665.417   -15215280.959 6 -11667563.02921
  23554925.300    -6705253.526 5    158301.58621
 92  4 17 20 46 44.9990000  0  6G18G11G19G 2G 6G16
  21955526.222     8299203.818 6   6473633.91221
  22735974.8704   -9814267.68446  -7544161.10261
  20671568.9564   -2613625.24746  -2024111.66963
  21121961.675   -19501019.326 7 -15069404.19923
  22083600.948   -15247159.531 6 -11692403.43121
  23556488.3084   -6697049.57845    164694.18461
 92  4 17 20 46 59.9990000  0  6G18G11G19G 2G 6G16
  21963443.214     8340806.490 6   6506051.46721
  22737999.7144   -9803634.37946  -7535875.41461
  20672749.1754   -2607436.48046  -2019289.26263
  21116931.019   -19527457.094 7 -15090005.01523
  22077535.870   -15279024.512 6 -11717233.24221
  23558069.9644   -6688738.19845    171170.52161
 92  4 17 20 47 14.9990000  0  6G18G11G19G 2G 6G16
  21971371.183     8382477.212 6   6538522.05521
  22740051.6204   -9792851.41446  -7527473.10761
  20673935.8704   -2601180.26946  -2014414.29863
  21111912.8084  -19553821.47347 -15110548.65163
  22071476.730   -15310873.837 6 -11742050.85721
  23559671.9334   -6680316.85845    177732.51961
 92  4 17 20 47 29.9990000  0  6G18G11G19G 2G 6G16
  21979315.073     8424215.845 6   6571045.54521
  22742132.3784   -9781917.03046  -7518952.81361
  20675143.6284   -2594856.00646  -2009486.30663
  21106912.159   -19580108.081 7 -15131031.67823
  22065417.0194  -15342705.61246 -11766854.79561
  23561298.495    -6671783.386 5    184381.88921
 92  4 17 20 47 44.9990000  0  6G18G11G19G 2G 6G16
  21987269.737     8466021.505 6   6603621.27321
  22744240.3084   -9770834.52746  -7510317.10461
  20676355.2144   -2588464.29546  -2004505.76363
  21101923.980   -19606319.039 7 -15151455.76323
  22059365.1444  -15374523.17846 -11791647.66161
  23562938.9484   -6663141.02145    191116.14361
 92  4 17 20 47 59.9990000  0  6G18G11G19G 2G 6G16
  21995239.386     8507899.271 6   6636253.18521
  22746376.9874   -9759601.05746  -7501563.77161
  20677589.2144   -2582002.45646  -1999470.57363
  21096950.581   -19632449.929 7 -15171817.45623
  22053312.612   -15406323.247 6 -11816426.88821
  23564606.0424   -6654383.48845    197940.11261
 92  4 17 20 48 14.9990000  0  6G18G11G19G 2G 6G16
  22003222.550     8549850.325 6   6668942.20621
  22748543.6594   -9748217.48846  -7492693.47061
  20678829.9014   -2575472.19446  -1994382.06563
  21091993.526   -19658503.469 7 -15192118.87123
  22047264.3554  -15438106.62646 -11841193.11861
  23566296.815    -6645511.379 5    204853.37221
 92  4 17 20 48 29.9990000  0  6G18G11G19G 2G 6G16
  22011220.3944    8591873.04246   6701687.06061
  22750736.855    -9736686.575 6  -7483708.35121
  20680085.3474   -2568874.37046  -1989240.91463
  21087048.9954  -19684483.98647 -15212363.39463
  22041217.081   -15469876.055 6 -11865948.47621
  23568006.175    -6636526.130 5    211854.79321
 92  4 17 20 48 44.9990000  0  6G18G11G19G 2G 6G16
  22019232.3704    8633970.72446   6734490.33061
  22752960.878    -9725006.180 6  -7474606.76321
  20681354.1594   -2562205.32646  -1984044.26463
  21082119.690   -19710388.116 7 -15232548.38523
  22035177.9254  -15501629.16146 -11890691.11761
  23569737.042    -6627424.942 5    218946.56121
 92  4 17 20 48 59.9990000  0  6G18G11G19G 2G 6G16
  22027255.362     8676140.065 6   6767349.44521
  22755210.323    -9713182.015 6  -7465393.14821
  20682635.1364   -2555472.88046  -1978798.21663
  21077204.2534  -19736220.45547 -15252677.43863
  22029136.276   -15533371.621 6 -11915425.45421
  23571490.6364   -6618213.92745    226123.87561
 92  4 17 20 49 14.9990000  0  6G18G11G19G 2G 6G16
  22035294.3314    8718381.34846   6800264.61161
  22757484.987    -9701217.527 6  -7456070.19021
  20683928.7764   -2548681.25346  -1973506.04763
  21072302.5264  -19761983.35947 -15272752.38863
  22023097.190   -15565106.372 6 -11940153.79021
  23573258.8704   -6608897.34445    233383.48661
 92  4 17 20 49 29.9990000  0  6G18G11G19G 2G 6G16
  22043346.7374    8760700.47046   6833240.43361
  22759792.878    -9689105.466 6  -7446632.23721
  20685231.6674   -2541827.55146  -1968165.51063
  21067413.620   -19787670.160 7 -15292768.03623
  22017060.792   -15596826.287 6 -11964870.56221
  23575058.651    -6599465.797 5    240732.65421
 92  4 17 20 49 44.9990000  0  6G18G11G19G 2G 6G16
  22051414.1984    8803095.72646   6866275.58061
  22762123.401    -9676847.605 6  -7437080.68121
  20686547.4254   -2534917.50046  -1962781.06563
  21062540.284   -19813284.906 7 -15312727.53523
  22011027.464   -15628532.858 6 -11989576.93521
  23576876.6834   -6589922.27545    248169.07861
 92  4 17 20 49 59.9990000  0  6G18G11G19G 2G 6G16
  22059499.9094    8845575.88946   6899376.89061
  22764487.1364   -9664434.88846  -7427408.44861
  20687875.6674   -2527943.65946  -1957346.91363
  21057680.425   -19838819.678 7 -15332624.71823
  22004998.058   -15660216.948 6 -12014265.78921
  23578715.636    -6580257.528 5    255699.98821
 92  4 17 20 50 14.9990000  0  6G18G11G19G 2G 6G16
  22067593.870     8888117.486 6   6932526.06721
  22766872.667    -9651889.326 6  -7417632.69521
  20689210.1204   -2520930.16346  -1951881.86363
  21052831.894   -19864294.694 7 -15352475.33523
  21998968.026   -15691900.227 6 -12038954.00821
  23580570.3474   -6570493.90445    263307.93061
 92  4 17 20 50 29.9990000  0  6G18G11G19G 2G 6G16
  22075703.3314    8930733.16546   6965732.97561
  22769289.706    -9639196.365 6  -7407742.09021
  20690553.448    -2513860.542 6  -1946373.07923
  21047998.128   -19889693.945 7 -15372266.91423
  21992943.401   -15723568.338 6 -12063630.41021
  23582447.4334   -6560619.58145    271002.11661
 92  4 17 20 50 44.9990000  0  6G18G11G19G 2G 6G16
  22083825.417     8973423.259 6   6998997.87121
  22771735.128    -9626352.452 6  -7397733.87121
  20691910.5584   -2506731.16746  -1940817.73163
  21043180.097   -19915013.344 7 -15391996.27523
  21986920.355   -15755216.972 6 -12088291.63121
  23584348.8234   -6550630.88345    278785.44761
 92  4 17 20 50 59.9990000  0  6G18G11G19G 2G 6G16
  22091963.9644    9016183.95046   7032317.76761
  22774204.9334   -9613360.03546  -7387609.91761
  20693280.690    -2499546.844 6  -1935219.56923
  21038377.058   -19940256.599 7 -15411666.29723
  21980900.933   -15786848.821 6 -12112939.77321
  23586273.9174   -6540531.33245    286655.14661
 92  4 17 20 51 14.9990000  0  6G18G11G19G 2G 6G16
  22100115.565     9059017.971 6   7065694.80921
  22776704.800    -9600217.585 6  -7377369.06621
  20694656.2454   -2492304.55846  -1929576.23763
  21033587.589   -19965422.710 7 -15431276.20923
  21974885.597   -15818461.857 6 -12137573.25421
  23588222.0894   -6530317.75745    294613.70361
 92  4 17 20 51 29.9990000  0  6G18G11G19G 2G 6G16
  22108280.7844    9101915.66146   7099121.46661
  22779233.230    -9586933.543 6  -7367017.88921
  20696044.480    -2485010.500 6  -1923892.57223
  21028811.159   -19990523.595 7 -15450835.29823
  21968869.808   -15850064.882 6 -12162198.93721
  23590181.8704   -6519997.51645    302655.34561
 92  4 17 20 51 44.9990000  0  6G18G11G19G 2G 6G16
  22116457.4874    9144878.71446   7132599.04861
  22781791.026    -9573503.584 6  -7356553.00021
  20697442.870    -2477658.282 6  -1918163.58523
  21024048.581   -20015555.287 7 -15470340.47023
  21962858.683   -15881652.911 6 -12186812.93221
  23592165.2614   -6509567.08945    310782.88261
 92  4 17 20 51 59.9990000  0  6G18G11G19G 2G 6G16
  22124644.9954    9187912.50246   7166131.75261
  22784374.894    -9559925.041 6  -7345972.34521
  20698854.690    -2470240.441 6  -1912383.46623
  21019298.2924  -20040513.53747 -15489788.41663
  21956852.644   -15913223.333 6 -12211413.21121
  23594171.378    -6499024.521 5    318997.78721
 92  4 17 20 52 14.9990000  0  6G18G11G19G 2G 6G16
  22132846.5894    9231016.62546   7199719.25361
  22786985.878    -9546196.928 6  -7335275.13621
  20700280.097    -2462753.119 6  -1906549.20523
  21014563.1904  -20065395.32147 -15509176.77763
  21950847.2144  -15944774.71146 -12235998.64161
  23596197.7534   -6488370.30745    327299.70761
 92  4 17 20 52 29.9990000  0  6G18G11G19G 2G 6G16
  22141060.0814    9274185.77946   7233357.43761
  22789625.565    -9532322.327 6  -7324463.77721
  20701718.019    -2455196.989 6  -1900661.32823
  21009843.6514  -20090203.06647 -15528507.44763
  21944847.034   -15976309.976 6 -12260571.51821
  23598246.870    -6477607.325 5    335686.35921
 92  4 17 20 52 44.9990000  0  6G18G11G19G 2G 6G16
  22149287.4404    9317415.97746   7267043.18361
  22792293.347    -9518305.456 6  -7313541.56721
  20703168.448    -2447574.999 6  -1894722.13623
  21005135.136   -20114941.911 7 -15547784.42923
  21938848.026   -16007833.332 6 -12285135.11621
  23600318.2454   -6466740.42745    344153.99561
 92  4 17 20 52 59.9990000  0  6G18G11G19G 2G 6G16
  22157524.7614    9360704.67646   7300774.51761
  22794986.933    -9504149.506 6  -7302510.97921
  20704632.605    -2439889.535 6  -1888733.48523
  21000441.1904  -20139614.26447 -15567009.60063
  21932849.769   -16039347.706 6 -12309691.71421
  23602405.605    -6455772.025 5    352700.71321
 92  4 17 20 53 14.9990000  0  6G18G11G19G 2G 6G16
  22165775.6284    9404059.15246   7334557.10161
  22797709.855    -9489850.023 6  -7291368.53921
  20706106.456    -2432134.477 6  -1882690.60323
  20995758.5194  -20164213.24547 -15586177.59963
  21926857.8314  -16070848.51946 -12334237.73961
  23604513.8554   -6444698.24645    361329.55361
 92  4 17 20 53 29.9990000  0  6G18G11G19G 2G 6G16
  22174034.4094    9447466.91946   7368381.21261
  22800454.792    -9475417.187 6  -7280122.19321
  20707594.120    -2424317.638 6  -1876599.57723
  20991091.3314  -20188747.70947 -15605295.33163
  21920862.495   -16102345.597 6 -12358780.86021
  23606636.964    -6433531.169 5    370031.11921
 92  4 17 20 53 44.9990000  0  6G18G11G19G 2G 6G16
  22182307.1674    9490926.06146   7402245.35161
  22803229.050    -9460850.061 6  -7268771.19821
  20709092.909    -2416439.961 6  -1870461.14923
  20986434.0034  -20213214.81347 -15624360.56563
  21914870.636   -16133837.955 6 -12383320.30221
  23608776.5814   -6422273.15045    378803.52761
 92  4 17 20 53 59.9990000  0  6G18G11G19G 2G 6G16
  22190588.5424    9534447.50146   7436158.04361
  22806030.550    -9446137.688 6  -7257307.02721
  20710606.315    -2408490.227 6  -1864266.57523
  20981795.2064  -20237600.35247 -15643362.24863
  21908879.7844  -16165314.14446 -12407847.14261
  23610938.097    -6410914.725 5    387654.16521
 92  4 17 20 54 14.9990000  0  6G18G11G19G 2G 6G16
  22198876.0814    9578008.68846   7470101.69961
  22808851.315    -9431300.720 6  -7245745.77221
  20712127.417    -2400488.828 6  -1858031.74023
  20977165.9564  -20261926.90247 -15662317.96963
  21902888.105   -16196794.927 6 -12432377.56521
  23613117.8704   -6399475.81145    396567.52361
 92  4 17 20 54 29.9990000  0  6G18G11G19G 2G 6G16
  22207174.4174    9621613.46846   7504079.32661
  22811699.675    -9416334.842 6  -7234084.06921
  20713658.815    -2392432.310 6  -1851753.95523
  20972547.3864  -20286189.99947 -15681224.24063
  21896898.9804  -16228275.70746 -12456907.99061
  23615310.628    -6387950.653 5    405548.10121
 92  4 17 20 54 44.9990000  0  6G18G11G19G 2G 6G16
  22215482.4724    9665271.27146   7538098.26161
  22814572.605    -9401234.409 6  -7222317.51521
  20715205.480    -2384314.392 6  -1845428.32323
  20967944.7144  -20310384.50447 -15700077.06763
  21890910.0344  -16259750.43846 -12481433.69961
  23617520.2454   -6376331.44345    414601.94161
 92  4 17 20 54 59.9980000  0  6G18G11G19G 2G 6G16
  22223802.2094    9708980.73946   7572157.45961
  22817473.303    -9386000.233 6  -7210446.75021
  20716761.498    -2376134.580 6  -1839054.46823
  20963351.8264  -20334510.75947 -15718876.71263
  21884919.772   -16291216.854 6 -12505952.92821
  23619749.068    -6364619.988 5    423727.70221
 92  4 17 20 55 14.9980000  0  6G18G11G19G 2G 6G16
  22232132.0614    9752754.58346   7606266.81961
  22820399.357    -9370622.214 6  -7198463.89721
  20718331.654    -2367884.944 6  -1832626.20423
  20958776.0764  -20358565.04447 -15737620.27963
  21878935.209   -16322670.735 6 -12530462.38721
  23622000.482    -6352806.473 5    432932.94521
 92  4 17 20 55 29.9980000  0  6G18G11G19G 2G 6G16
  22240467.404     9796562.396 6   7640402.64721
  22823344.475    -9355126.290 6  -7186389.16621
  20719913.100    -2359593.281 6  -1826165.19223
  20954206.3424  -20382573.40447 -15756328.05963
  21872949.3264  -16354134.74246 -12554979.73861
  23624259.217    -6340916.376 5    442197.88621
 92  4 17 20 55 44.9980000  0  6G18G11G19G 2G 6G16
  22248813.1234    9840415.68146   7674573.91461
  22826319.475    -9339500.396 6  -7174213.16621
  20721498.6864   -2351249.74846  -1819663.76363
  20949648.0294  -20406524.63947 -15774991.32363
  21866963.295   -16385596.648 6 -12579495.45721
  23626537.7324   -6328938.13445    451531.51561
 92  4 17 20 55 59.9980000  0  6G18G11G19G 2G 6G16
  22257167.186     9884321.066 6   7708785.77121
  22829319.0144   -9323742.71346  -7161934.46361
  20723094.982    -2342854.117 6  -1813121.73823
  20945102.0294  -20430416.94147 -15793608.67163
  21860976.459   -16417054.303 6 -12604007.85721
  23628838.201    -6316867.385 5    460937.20521
 92  4 17 20 56 14.9980000  0  6G18G11G19G 2G 6G16
  22265530.662     9928272.742 6   7743033.69921
  22832341.4674   -9307859.81246  -7149558.18261
  20724702.631    -2334412.855 6  -1806544.15523
  20940563.8264  -20454259.91647 -15812187.57963
  21854990.170   -16448514.133 6 -12628521.95821
  23631152.8574   -6304707.13045    470412.66561
 92  4 17 20 56 29.9980000  0  6G18G11G19G 2G 6G16
  22273903.826     9972281.506 6   7777326.11321
  22835389.9044   -9291843.22346  -7137077.73361
  20726318.498    -2325919.032 6  -1799925.61523
  20936037.5294  -20478045.80847 -15830722.01263
  21849003.951   -16479967.228 6 -12653030.81321
  23633485.029    -6292448.606 5    479964.66121
 92  4 17 20 56 44.9980000  0  6G18G11G19G 2G 6G16
  22282291.1314   10016343.89046   7811660.30961
  22838461.068    -9275698.575 6  -7124497.50121
  20727945.170    -2317380.552 6  -1793272.27723
  20931521.9204  -20501778.94547 -15849215.33463
  21843018.615   -16511419.280 6 -12677538.84521
  23635831.0924   -6280100.23545    489586.69861
 92  4 17 20 56 59.9980000  0  6G18G11G19G 2G 6G16
  22290684.084    10060454.384 6   7846031.99321
  22841556.9284   -9259428.65146  -7111819.65461
  20729578.576    -2308801.131 6  -1786587.03423
  20927014.7324  -20525463.55747 -15867670.84063
  21837033.928   -16542872.714 6 -12702047.95821
  23638202.7564   -6267668.35745    499273.81461
 92  4 17 20 57 14.9980000  0  6G18G11G19G 2G 6G16
  22299090.232    10104621.095 6   7880447.47821
  22844677.9124   -9243023.59346  -7099036.50561
  20731217.897    -2300173.076 6  -1779863.89423
  20922518.5684  -20549086.51547 -15886078.31163
  21831049.561   -16574317.507 6 -12726550.34021
  23640581.795    -6255142.871 5    509033.84121
 92  4 17 20 57 29.9980000  0  6G18G11G19G 2G 6G16
  22307504.8814   10148841.21346   7914904.57861
  22847825.873    -9226487.608 6  -7086151.34421
  20732867.857    -2291501.869 6  -1773107.12923
  20918035.7254  -20572648.44847 -15904438.22663
  21825066.795   -16605757.608 6 -12751049.07021
  23642982.037    -6242526.945 5    518864.34521
 92  4 17 20 57 44.9980000  0  6G18G11G19G 2G 6G16
  22315930.506    10193118.324 6   7949406.09121
  22850998.779    -9209818.541 6  -7073162.47521
  20734525.928    -2282783.830 6  -1766313.87423
  20913564.6074  -20596145.89247 -15922747.89263
  21819084.2014  -16637190.48846 -12775542.16361
  23645399.8264   -6229819.26345    528766.35461
 92  4 17 20 57 59.9980000  0  6G18G11G19G 2G 6G16
  22324368.147    10237456.742 6   7983955.37121
  22854196.256    -9193013.803 6  -7060067.89021
  20736196.889    -2274013.933 6  -1759480.21123
  20909107.9364  -20619573.63947 -15941003.24763
  21813102.514   -16668613.445 6 -12800027.53221
  23647838.014    -6217016.133 5    538742.74021
 92  4 17 20 58 14.9980000  0  6G18G11G19G 2G 6G16
  22332814.350    10281851.091 6   8018548.23721
  22857419.2014   -9176077.67846  -7046870.92761
  20737873.834    -2265193.826 6  -1752607.42623
  20904661.4124  -20642935.88347 -15959207.56163
  21807125.8734  -16700030.66846 -12824508.42761
  23650291.9594   -6204121.40245    548790.51761
 92  4 17 20 58 29.9980000  0  6G18G11G19G 2G 6G16
  22341273.584    10326303.731 6   8053186.52321
  22860666.7174   -9159005.02346  -7033567.57361
  20739564.990    -2256315.755 6  -1745689.47123
  20900228.5294  -20666226.62247 -15977356.15963
  21801150.943   -16731436.493 6 -12848980.45221
  23652763.7174   -6191133.03345    558911.22661
 92  4 17 20 58 44.9980000  0  6G18G11G19G 2G 6G16
  22349743.4904   10370816.75746   8087871.86561
  22863945.3184   -9141792.90046  -7020155.54161
  20741263.3264   -2247376.42446  -1738723.78563
  20895811.2484  -20689438.59847 -15995443.38263
  21795176.522   -16762827.780 6 -12873441.14621
  23655253.154    -6178050.566 5    569105.27221
 92  4 17 20 58 59.9980000  0  6G18G11G19G 2G 6G16
  22358227.248    10415388.880 6   8122603.25321
  22867244.029    -9124440.541 6  -7006634.23821
  20742979.443    -2238371.368 6  -1731706.88323
  20891409.6234  -20712570.26947 -16013468.03263
  21789203.186   -16794203.657 6 -12897889.82921
  23657761.6934   -6164872.25845    579373.99361
 92  4 17 20 59 14.9980000  0  6G18G11G19G 2G 6G16
  22366721.092    10460021.625 6   8157381.87821
  22870575.2094   -9106946.08646  -6993002.20861
  20744704.1864   -2229295.57846  -1724634.86663
  20887022.9824  -20735619.10047 -16031428.12963
  21783239.951   -16825561.954 6 -12922324.82121
  23660287.303    -6151592.234 5    589721.97721
 92  4 17 20 59 29.9980000  0  6G18G11G19G 2G 6G16
  22375225.334    10504714.749 6   8192207.55021
  22873927.912    -9089310.313 6  -6979260.06421
  20746450.623    -2220148.154 6  -1717507.02923
  20882654.3114  -20758586.29547 -16049324.61163
  21777273.725   -16856903.077 6 -12946746.42321
  23662832.8264   -6138210.16845    600149.49261
 92  4 17 20 59 44.9980000  0  6G18G11G19G 2G 6G16
  22383743.482    10549468.785 6   8227080.68521
  22877313.147    -9071532.470 6  -6965407.21621
  20748200.029    -2210925.225 6  -1710320.35323
  20878296.9824  -20781475.37747 -16067160.22963
  21771313.951   -16888226.261 6 -12971154.05321
  23665401.279    -6124726.717 5    610655.99421
 92  4 17 20 59 59.9980000  0  6G18G11G19G 2G 6G16
  22392268.412    10594280.416 6   8261998.70621
  22880723.740    -9053615.505 6  -6951445.96521
  20749972.350    -2201628.850 6  -1703076.44723
  20873956.6004  -20804289.84347 -16084937.70663
  21765356.287   -16919534.086 6 -12995549.70821
  23667987.1474   -6111145.51945    621238.63761
 92  4 17 21  0 14.9980000  0  6G18G11G19G 2G 6G16
  22400806.647    10639148.893 6   8296961.01421
  22884159.0144   -9035560.19946  -6937376.92761
  20751752.459    -2192258.377 6  -1695774.80323
  20869628.3264  -20827032.22447 -16102659.01263
  21759400.178   -16950827.093 6 -13019933.82421
  23670593.5144   -6097467.24245    631896.94861
 92  4 17 21  0 29.9980000  0  6G18G11G19G 2G 6G16
  22409355.5764   10684074.63546   8331967.93561
  22887623.4204   -9017366.10546  -6923199.73861
  20753550.990    -2182813.601 6  -1688415.25723
  20865315.4824  -20849704.50647 -16120325.69463
  21753448.0534  -16982104.54946 -13044305.82661
  23673206.9434   -6083694.98945    642628.47561
 92  4 17 21  0 44.9980000  0  6G18G11G19G 2G 6G16
  22417917.2564   10729057.55746   8367019.42161
  22891109.615    -8999032.431 6  -6908913.78421
  20755362.147    -2173296.102 6  -1680999.04623
  20861013.420   -20872306.128 7 -16137937.32623
  21747500.920   -17013365.549 6 -13068665.00721
  23675844.7724   -6069827.81644    653433.98761
 92  4 17 21  0 59.9980000  0  6G18G11G19G 2G 6G16
  22426489.232    10774101.069 6   8402118.11421
  22894625.834    -8980557.323 6  -6894517.61821
  20757188.4124   -2163702.97346  -1673523.90963
  20856725.4284  -20894836.49347 -16155493.42563
  21741556.1544  -17044607.80346 -13093009.57761
  23678503.881    -6055860.523 5    664317.49721
 92  4 17 21  1 14.9980000  0  6G18G11G19G 2G 6G16
  22435070.9824   10819206.12446   8437264.76261
  22898166.865    -8961939.160 6  -6880009.97821
  20759027.475    -2154032.298 6  -1665988.34323
  20852451.639   -20917296.630 7 -16172994.80723
  21735613.8974  -17075829.49546 -13117338.12761
  23681184.475    -6041792.465 4    675279.53821
 92  4 17 21  1 29.9980000  0  6G18G11G19G 2G 6G16
  22443664.717    10864365.931 6   8472454.07721
  22901736.272    -8943184.483 6  -6865395.97221
  20760879.9594   -2144292.97546  -1658399.28763
  20848189.201   -20939693.769 7 -16190447.09723
  21729675.607   -17107036.887 6 -13141655.53421
  23683881.842    -6027630.428 4    686314.80421
 92  4 17 21  1 44.9980000  0  6G18G11G19G 2G 6G16
  22452268.3184   10909579.38346   8507685.18361
  22905332.420    -8924294.822 6  -6850676.76721
  20762747.2564   -2134489.17846  -1650759.99463
  20843938.459   -20962029.601 7 -16207851.61823
  21723740.6544  -17138231.07246 -13165962.65561
  23686588.2094   -6013378.87144    697419.81261
 92  4 17 21  1 59.9980000  0  6G18G11G19G 2G 6G16
  22460884.5924   10954848.39746   8542959.59761
  22908952.084    -8905267.842 6  -6835850.57921
  20764625.8424   -2124620.42446  -1643070.08263
  20839701.529   -20984299.833 7 -16225205.02123
  21717805.5374  -17169409.88246 -13190257.79161
  23689321.514    -5999033.686 5    708597.78021
 92  4 17 21  2 14.9980000  0  6G18G11G19G 2G 6G16
  22469510.037    11000172.199 6   8578276.69921
  22912601.2794   -8886103.23846  -6820917.15061
  20766514.670    -2114686.973 6  -1635329.75623
  20835476.037   -21006503.459 7 -16242506.52123
  21711876.4044  -17200572.36846 -13214540.21161
  23692067.107    -5984593.806 4    719849.53221
 92  4 17 21  2 29.9980000  0  6G18G11G19G 2G 6G16
  22478143.2254   11045549.38046   8613635.39061
  22916272.4514   -8866801.96246  -6805877.23161
  20768418.967    -2104692.208 6  -1627541.65123
  20831263.873   -21028639.672 7 -16259755.49423
  21705948.7324  -17231719.22446 -13238810.45261
  23694832.967    -5970061.258 5    731173.51521
 92  4 17 21  2 44.9980000  0  6G18G11G19G 2G 6G16
  22486789.3344   11090978.61746   8649034.64761
  22919973.1074   -8847362.96146  -6790729.99161
  20770328.920    -2094636.662 6  -1619706.18423
  20827064.998   -21050704.765 7 -16276949.05323
  21700023.311   -17262849.098 6 -13263067.45521
  23697616.3114   -5955433.01945    742572.02661
 92  4 17 21  2 59.9980000  0  6G18G11G19G 2G 6G16
  22495443.4044   11136456.96746   8684472.17161
  22923696.475    -8827789.137 6  -6775477.68021
  20772254.0924   -2084521.51046  -1611824.27663
  20822878.186   -21072701.808 7 -16294089.58023
  21694103.4904  -17293964.93046 -13287313.51461
  23700419.975    -5940709.161 5    754045.07521
 92  4 17 21  3 14.9980000  0  6G18G11G19G 2G 6G16
  22504108.3574   11181987.55046   8719950.38861
  22927446.5764   -8808079.88046  -6760119.84761
  20774192.373    -2074344.186 6  -1603893.91823
  20818705.912   -21094630.371 7 -16311176.74923
  21688186.311   -17325065.529 6 -13311547.70321
  23703237.897    -5925889.931 5    765592.42221
 92  4 17 21  3 29.9980000  0  6G18G11G19G 2G 6G16
  22512781.2484   11227568.10046   8755467.54461
  22931221.7484   -8788235.55846  -6744656.76661
  20776142.0294   -2064107.92446  -1595917.63663
  20814546.3894  -21116490.52747 -16328210.60963
  21682269.678   -17356150.993 6 -13335770.09621
  23706075.607    -5910976.922 5    777212.85221
 92  4 17 21  3 44.9980000  0  6G18G11G19G 2G 6G16
  22521464.9594   11273198.44246   8791023.49961
  22935025.951    -8768256.949 6  -6729089.04121
  20778099.9044   -2053811.38046  -1587894.38162
  20810399.7254  -21138281.84947 -16345190.83463
  21676357.053   -17387222.016 6 -13359981.23821
  23708932.4674   -5895969.90845    788906.54061
 92  4 17 21  3 59.9980000  0  6G18G11G19G 2G 6G16
  22530157.6784   11318878.34346   8826618.06461
  22938851.475    -8748143.677 6  -6713416.38521
  20780071.7014   -2043451.94246  -1579822.12162
  20806266.2564  -21160004.30647 -16362117.39463
  21670446.5064  -17418277.78446 -13384180.49761
  23711810.006    -5880869.000 5    800673.38821
 92  4 17 21  4 14.9980000  0  6G18G11G19G 2G 6G16
  22538860.522    11364611.227 6   8862253.91721
  22942706.3344   -8727892.30446  -6697636.12561
  20782054.756    -2033024.093 6  -1571696.54622
  20802146.4044  -21181654.40047 -16378987.57063
  21664539.5534  -17449314.62246 -13408365.00361
  23714698.5534   -5865670.12445    812516.57261
 92  4 17 21  4 29.9980000  0  6G18G11G19G 2G 6G16
  22547573.8114   11410402.77346   8897935.48861
  22946586.693    -8707499.201 6  -6681745.41021
  20784053.928    -2022520.889 6  -1563512.25222
  20798040.3734  -21203226.79847 -16395797.20063
  21658639.123   -17480328.619 6 -13432531.70521
  23717611.811    -5850371.708 5    824437.31021
 92  4 17 21  4 44.9980000  0  6G18G11G19G 2G 6G16
  22556299.115    11456248.021 6   8933658.88821
  22950493.1624   -8686970.24246  -6665748.85261
  20786067.170    -2011945.714 6  -1555271.87423
  20793948.4204  -21224726.60047 -16412550.26363
  21652741.131   -17511325.266 6 -13456684.89221
  23720538.131    -5834979.198 5    836431.36221
 92  4 17 21  4 59.9980000  0  6G18G11G19G 2G 6G16
  22565035.022    11502149.021 6   8969425.74021
  22954424.8734   -8666304.79046  -6649645.92961
  20788092.537    -2001295.759 6  -1546973.22822
  20789870.7954  -21246155.90847 -16429248.39563
  21646847.436   -17542303.836 6 -13480823.99021
  23723486.3654   -5819490.19745    848500.61161
 92  4 17 21  5 14.9980000  0  6G18G11G19G 2G 6G16
  22573778.8114   11548110.09346   9005239.40561
  22958385.615    -8645499.854 6  -6633434.31321
  20790135.857    -1990568.641 6  -1538614.45423
  20785808.0454  -21267510.63447 -16445888.40763
  21640955.107   -17573260.923 6 -13504946.35321
  23726452.943    -5803904.742 5    860645.03421
 92  4 17 21  5 29.9980000  0  6G18G11G19G 2G 6G16
  22582539.123    11594127.351 6   9041096.83721
  22962369.834    -8624557.688 6  -6617115.76721
  20792193.475    -1979768.693 6  -1530198.92922
  20781758.2254  -21288790.33447 -16462469.96063
  21635066.326   -17604198.588 6 -13529053.57521
  23729433.912    -5788225.904 5    872862.21321
 92  4 17 21  5 44.9980000  0  6G18G11G19G 2G 6G16
  22591302.4514   11640196.01646   9076994.33461
  22966381.709    -8603481.533 6  -6600692.81121
  20794258.022    -1968898.249 6  -1521728.46922
  20777721.8974  -21309997.26247 -16478994.80663
  21629184.568   -17635119.559 6 -13553147.79021
  23732438.7564   -5772456.71545    885149.78161
 92  4 17 21  5 59.9980000  0  6G18G11G19G 2G 6G16
  22600080.686    11686314.534 6   9112930.67021
  22970416.162    -8582274.034 6  -6584167.51121
  20796340.787    -1957958.878 6  -1513204.30522
  20773700.2954  -21331133.38947 -16495464.47863
  21623303.029   -17666026.308 6 -13577230.92121
  23735456.623    -5756601.711 5    897504.22421
 92  4 17 21  6 14.9980000  0  6G18G11G19G 2G 6G16
  22608868.490    11732490.995 6   9148912.16421
  22974477.5454   -8560929.59646  -6567535.50561
  20798437.022    -1946946.438 6  -1504623.20322
  20769693.3344  -21352192.09947 -16511873.82763
  21617424.061   -17696912.977 6 -13601298.41721
  23738490.326    -5740654.972 5    909930.15521
 92  4 17 21  6 29.9980000  0  6G18G11G19G 2G 6G16
  22617666.600    11778725.963 6   9184939.24521
  22978565.0294   -8539446.89046  -6550795.76061
  20800543.912    -1935861.003 6  -1495985.22222
  20765701.4434  -21373171.44747 -16528221.33163
  21611551.334   -17727777.818 6 -13625348.90021
  23741540.592    -5724615.864 5    922428.04721
 92  4 17 21  6 44.9980000  0  6G18G11G19G 2G 6G16
  22626476.1544   11825017.72946   9221010.57561
  22982680.506    -8517826.655 6  -6533948.85021
  20802668.131    -1924703.593 6  -1487291.15623
  20761723.9364  -21394073.26247 -16544508.42263
  21605682.248   -17758621.441 6 -13649382.84321
  23744609.6234   -5708485.51445    934997.05561
 92  4 17 21  6 59.9980000  0  6G18G11G19G 2G 6G16
  22635294.5224   11871368.00446   9257127.50161
  22986821.764    -8496065.318 6  -6516991.98621
  20804804.100    -1913475.579 6  -1478542.07422
  20757761.1234  -21414897.27847 -16560734.88963
  21599817.959   -17789439.722 6 -13673397.04221
  23747701.678    -5692261.126 5    947639.31321
 92  4 17 21  7 14.9980000  0  6G18G11G19G 2G 6G16
  22644123.7564   11917765.84446   9293281.48461
  22990985.342    -8474172.946 6  -6499933.02221
  20806951.553    -1902189.704 6  -1469747.90423
  20753811.2644  -21435653.06947 -16576908.19363
  21593955.1544  -17820242.70646 -13697399.32661
  23750799.2484   -5675954.57545    960345.61561
 92  4 17 21  7 29.9980000  0  6G18G11G19G 2G 6G16
  22652964.3974   11964211.59846   9329472.81061
  22995180.506    -8452147.143 6  -6482770.08421
  20809110.834    -1890843.083 6  -1460906.40723
  20749873.7724  -21456338.44147 -16593026.62463
  21588098.3974  -17851027.46446 -13721387.40561
  23753923.928    -5659562.456 5    973118.58021
 92  4 17 21  7 44.9980000  0  6G18G11G19G 2G 6G16
  22661808.951    12010697.368 6   9365695.30921
  22999393.717    -8429994.299 6  -6465508.15921
  20811280.295    -1879439.173 6  -1452020.26323
  20745951.256   -21476960.212 7 -16609095.49423
  21582241.3114  -17881800.10646 -13745366.05061
  23757055.514    -5643088.988 5    985954.95721
 92  4 17 21  7 59.9980000  0  6G18G11G19G 2G 6G16
  22670664.1474   12057238.38846   9401960.86061
  23003634.7404   -8407701.70946  -6448137.34761
  20813465.209    -1867963.413 6  -1443078.13023
  20742040.475   -21497505.809 7 -16625105.00823
  21576391.1074  -17912547.72346 -13769325.19761
  23760204.4124   -5626522.59144    998863.71261
 92  4 17 21  8 14.9980000  0  6G18G11G19G 2G 6G16
  22679532.1934   12103827.41846   9438263.82361
  23007903.9284   -8385278.83246  -6430665.00861
  20815660.811    -1856426.702 6  -1434088.50423
  20738143.428   -21517985.428 7 -16641063.10923
  21570543.0844  -17943279.35246 -13793271.88261
  23763379.3734   -5609870.82544   1011839.01261
 92  4 17 21  8 29.9980000  0  6G18G11G19G 2G 6G16
  22688406.639    12150463.838 6   9474603.71721
  23012194.3974   -8362725.80846  -6413091.26661
  20817867.451    -1844829.507 6  -1425051.75323
  20734258.537   -21538399.976 7 -16656970.50423
  21564696.5064  -17973994.69846 -13817205.88161
  23766563.912    -5593134.494 4   1024880.18921
 92  4 17 21  8 44.9980000  0  6G18G11G19G 2G 6G16
  22697288.5534   12197145.91446   9510979.19361
  23016512.2404   -8340043.90446  -6395417.08561
  20820086.053    -1833171.325 6  -1415967.47722
  20730385.670   -21558751.397 7 -16672828.71023
  21558856.2644  -18004695.03446 -13841128.18361
  23769761.123    -5576315.763 4   1037985.58521
 92  4 17 21  8 59.9980000  0  6G18G11G19G 2G 6G16
  22706180.6544   12243872.13046   9547389.05461
  23020852.3424   -8317235.06146  -6377643.98861
  20822313.873    -1821454.607 6  -1406837.59322
  20726525.897   -21579039.249 7 -16688637.38423
  21553016.967   -18035381.759 6 -13865039.87321
  23772980.6004   -5559414.62145   1051155.17861
 92  4 17 21  9 14.9980000  0  6G18G11G19G 2G 6G16
  22715082.5844   12290645.39746   9583835.57161
  23025218.490    -8294295.918 6  -6359769.35921
  20824556.443    -1809673.347 6  -1397657.41223
  20722678.803   -21599256.074 7 -16704390.71123
  21547180.318   -18066051.380 6 -13888938.23422
  23776212.506    -5542426.982 5   1064392.17521
 92  4 17 21  9 29.9980000  0  6G18G11G19G 2G 6G16
  22723991.8894   12337464.55046   9620317.85061
  23029606.0534   -8271226.41146  -6341793.15361
  20826815.623    -1797820.697 6  -1388421.60422
  20718845.928   -21619398.554 7 -16720086.10923
  21541345.568   -18096703.229 6 -13912822.74822
  23779458.537    -5525350.193 4   1077698.66021
 92  4 17 21  9 44.9980000  0  6G18G11G19G 2G 6G16
  22732910.3184   12384326.72446   9656833.64461
  23034021.4044   -8248031.34146  -6323719.11461
  20829082.818    -1785897.130 6  -1379130.53322
  20715024.748   -21639471.449 7 -16735727.27923
  21535516.6314  -18127341.96946 -13936697.04962
  23782728.264    -5508188.795 4   1091071.06121
 92  4 17 21  9 59.9980000  0  6G18G11G19G 2G 6G16
  22741835.467    12431231.190 6   9693382.39621
  23038457.8654   -8224713.22046  -6305549.19061
  20831363.389    -1773906.912 6  -1369787.52522
  20711218.1474  -21659476.95347 -16751315.94463
  21529687.631   -18157969.722 6 -13960562.78722
  23786006.459    -5490949.358 5   1104504.25621
 92  4 17 21 10 14.9980000  0  6G18G11G19G 2G 6G16
  22750767.7254   12478181.41946   9729966.81061
  23042918.4674   -8201268.69446  -6287280.76361
  20833657.443    -1761849.827 6  -1360392.41422
  20707425.2404  -21679414.24947 -16766851.45963
  21523862.7724  -18188582.87746 -13984417.15661
  23789301.6864   -5473629.47945   1118000.17361
 92  4 17 21 10 29.9980000  0  6G18G11G19G 2G 6G16
  22759711.8114   12525172.36446   9766582.94161
  23047403.115    -8177700.087 6  -6268915.66521
  20835964.959    -1749729.384 6  -1350947.93522
  20703642.9364  -21699283.76147 -16782334.15663
  21518039.1234  -18219183.37946 -14008261.66661
  23792612.373    -5456231.807 4   1131556.66821
 92  4 17 21 10 44.9980000  0  6G18G11G19G 2G 6G16
  22768661.9044   12572203.82746   9803230.65161
  23051914.779    -8154005.915 6  -6250452.72421
  20838284.068    -1737542.879 6  -1341451.97722
  20699875.5224  -21719082.66047 -16797761.83263
  21512218.4364  -18249769.39546 -14032094.88261
  23795939.170    -5438752.886 4   1145176.50121
 92  4 17 21 10 59.9980000  0  6G18G11G19G 2G 6G16
  22777618.279    12619273.865 6   9839908.41421
  23056445.701    -8130186.633 6  -6231892.29221
  20840617.381    -1725289.495 6  -1331903.90022
  20696121.5764  -21738810.64347 -16813134.24963
  21506402.264   -18280340.828 6 -14055916.73621
  23799280.232    -5421190.349 4   1158861.46621
 92  4 17 21 11 14.9980000  0  6G18G11G19G 2G 6G16
  22786584.4514   12666380.85246   9876614.97461
  23061002.756    -8106242.641 6  -6213234.68021
  20842959.404    -1712969.686 6  -1322304.07022
  20692380.0534  -21758468.82447 -16828452.27763
  21500585.8974  -18310898.14946 -14079727.60062
  23802640.779    -5403545.861 4   1172610.29821
 92  4 17 21 11 29.9980000  0  6G18G11G19G 2G 6G16
  22795554.4904   12713527.73946   9913352.62161
  23065583.9904   -8082171.04246  -6194477.63461
  20845320.818    -1700579.423 6  -1312649.33922
  20688653.9434  -21778057.86747 -16843716.43563
  21494776.1234  -18341438.00646 -14103524.85162
  23806011.717    -5385817.627 4   1186424.36421
 92  4 17 21 11 44.9980000  0  6G18G11G19G 2G 6G16
  22804532.3574   12760710.24846   9950118.02661
  23070187.0764   -8057977.96746  -6175625.92861
  20847686.342    -1688128.445 6  -1302947.29622
  20684936.5924  -21797588.24147 -16858934.88063
  21488965.1234  -18371966.09546 -14127312.93362
  23809406.2014   -5368011.67944   1200299.00961
 92  4 17 21 11 59.9980000  0  6G18G11G19G 2G 6G16
  22813518.147    12807931.707 6   9986913.77921
  23074815.3814   -8033662.78546  -6156679.07461
  20850071.365    -1675621.482 6  -1293201.63322
  20681230.9284  -21817060.54147 -16874108.06963
  21483159.272   -18402481.305 6 -14151090.97421
  23812804.967    -5350127.130 4   1214234.89321
 92  4 17 21 12 14.9980000  0  6G18G11G19G 2G 6G16
  22822513.8654   12855187.42146  10023736.22061
  23079464.7484   -8009226.17546  -6137637.59361
  20852456.639    -1663060.657 6  -1283413.99822
  20677537.2954  -21836474.01347 -16889235.42163
  21477354.811   -18432984.205 6 -14174859.42722
  23816223.772    -5332163.017 4   1228232.77921
 92  4 17 21 12 29.9980000  0  6G18G11G19G 2G 6G16
  22831512.740    12902481.401 6  10060588.47821
  23084138.2094   -7984664.56546  -6118498.71161
  20854861.115    -1650438.678 6  -1273578.71222
  20673854.2954  -21855822.25447 -16904311.94063
  21471553.522   -18463470.791 6 -14198615.16622
  23819659.647    -5314110.623 4   1242299.46021
 92  4 17 21 12 44.9980000  0  6G18G11G19G 2G 6G16
  22840518.8184   12949813.85845  10097470.72661
  23088833.7324   -7959980.41946  -6099264.35461
  20857272.787    -1637753.968 6  -1263694.54922
  20670185.5924  -21875107.04947 -16919339.02763
  21465754.240   -18493943.313 6 -14222359.94122
  23823113.732    -5295971.542 5   1256433.67321
 92  4 17 21 12 59.9980000  0  6G18G11G19G 2G 6G16
  22849531.404    12997183.845 5  10134382.21221
  23093558.2954   -7935176.22346  -6079936.44361
  20859698.873    -1625006.154 6  -1253761.21122
  20666525.397   -21894333.581 7 -16934320.71223
  21459956.834   -18524403.689 6 -14246095.25522
  23826577.779    -5277748.966 4   1270632.95721
 92  4 17 21 13 14.9980000  0  6G18G11G19G 2G 6G16
  22858554.0144   13044588.59646  10171320.78561
  23098299.951    -7910253.607 6  -6060516.25721
  20862137.193    -1612196.551 6  -1243779.72822
  20662878.803   -21913504.675 7 -16949259.20423
  21454162.8504  -18554853.38546 -14269822.24962
  23830058.8504   -5259448.57744   1284892.88861
 92  4 17 21 13 29.9980000  0  6G18G11G19G 2G 6G16
  22867582.389    13092039.369 5  10208295.22421
  23103067.436    -7885202.993 6  -6040996.33621
  20864586.639    -1599315.358 6  -1233742.45722
  20659243.115   -21932610.137 7 -16964146.55123
  21448371.959   -18585282.466 6 -14293533.17322
  23833558.795    -5241060.868 5   1299220.83121
 92  4 17 21 13 44.9980000  0  6G18G11G19G 2G 6G16
  22876623.7794   13139532.84946  10245302.93161
  23107855.6394   -7860026.75546  -6021378.52561
  20867052.428    -1586365.933 6  -1223652.01823
  20655618.998   -21951651.334 7 -16978983.82523
  21442586.584   -18615692.861 6 -14317229.53622
  23837082.2564   -5222587.25445   1313615.74361
 92  4 17 21 13 59.9980000  0  6G18G11G19G 2G 6G16
  22885667.373    13187067.387 5  10282342.62821
  23112669.7874   -7834726.29746  -6001663.91661
  20869527.959    -1573349.050 6  -1213509.01623
  20652007.709   -21970627.157 7 -16993770.15723
  21436801.8344  -18646085.46646 -14340912.04062
  23840607.084    -5204029.345 4   1328076.30121
 92  4 17 21 14 14.9980000  0  6G18G11G19G 2G 6G16
  22894720.178    13234642.923 6  10319414.28521
  23117509.2794   -7809298.86746  -5981850.36361
  20872018.287    -1560259.280 6  -1203309.21923
  20648410.490   -21989531.980 7 -17008501.16523
  21431022.654   -18676457.415 6 -14364578.44922
  23844157.115    -5185387.532 5   1342602.26821
 92  4 17 21 14 29.9980000  0  6G18G11G19G 2G 6G16
  22903783.9284   13282258.41846  10356517.06761
  23122373.537    -7783746.792 6  -5961939.68521
  20874525.490    -1547097.847 6  -1193053.58223
  20644826.732   -22008367.603 7 -17023178.25323
  21425246.834   -18706810.757 6 -14388230.36222
  23847721.170    -5166665.875 5   1357190.44921
 92  4 17 21 14 44.9980000  0  6G18G11G19G 2G 6G16
  22912851.272    13329912.579 5  10393649.98021
  23127257.6704   -7758074.57646  -5941935.38961
  20877042.014    -1533869.917 6  -1182746.13022
  20641254.107   -22027141.000 7 -17037806.85423
  21419473.287   -18737149.447 6 -14411870.85421
  23851296.279    -5147870.806 5   1371835.80621
 92  4 17 21 14 59.9980000  0  6G18G11G19G 2G 6G16
  22921926.5454   13377607.94845  10430815.00861
  23132165.2404   -7732275.89846  -5921832.55461
  20879572.232    -1520569.761 6  -1172382.39223
  20637693.920   -22045847.114 7 -17052383.02723
  21413704.3344  -18767466.65946 -14435494.61762
  23854882.6864   -5129001.11044   1386539.34361
 92  4 17 21 15 14.9980000  0  6G18G11G19G 2G 6G16
  22931008.037    13425340.147 5  10468008.72921
  23137100.6784   -7706351.94746  -5901632.11061
  20882116.639    -1507199.916 6  -1161964.35923
  20634146.576   -22064485.289 7 -17066906.26323
  21407939.100   -18797763.500 6 -14459102.49622
  23858489.7794   -5110057.53544   1401300.43861
 92  4 17 21 15 29.9980000  0  6G18G11G19G 2G 6G16
  22940101.006    13473113.105 5  10505234.20821
  23142057.498    -7680300.685 6  -5881332.45021
  20884674.357    -1493757.113 6  -1151489.47523
  20630615.014   -22083050.473 7 -17081372.62123
  21402178.6544  -18828037.52046 -14482692.60062
  23862107.311    -5091036.664 4   1416121.76421
 92  4 17 21 15 44.9980000  0  6G18G11G19G 2G 6G16
  22949199.4364   13520923.84645  10542489.13461
  23147039.311    -7654125.295 6  -5860936.07021
  20887246.8034   -1480244.11146  -1140959.89363
  20627095.779   -22101543.744 7 -17095782.94223
  21396420.5224  -18858291.38546 -14506266.99962
  23865748.850    -5071940.510 5   1431001.70721
 92  4 17 21 15 59.9980000  0  6G18G11G19G 2G 6G16
  22958304.670    13568772.956 5  10579773.94821
  23152043.982    -7627826.222 6  -5840443.31321
  20889831.0374   -1466659.86146  -1130374.79063
  20623589.670   -22119966.037 7 -17110137.96023
  21390667.9904  -18888525.30646 -14529825.85962
  23869390.982    -5052770.238 4   1445939.47321
 92  4 17 21 16 14.9980000  0  6G18G11G19G 2G 6G16
  22967420.303    13616666.352 5  10617093.28121
  23157073.568    -7601398.179 6  -5819850.06121
  20892430.5614   -1452999.19546  -1119730.14762
  20620098.639   -22138312.247 7 -17124433.68323
  21384918.6314  -18918733.71946 -14553364.84962
  23873056.607    -5033520.005 4   1460939.49321
 92  4 17 21 16 29.9980000  0  6G18G11G19G 2G 6G16
  22976540.092    13664605.578 5  10654448.31621
  23162124.5374   -7574841.09346  -5799156.26061
  20895042.787    -1439261.834 6  -1109025.73623
  20616621.631   -22156581.612 7 -17138669.53023
  21379174.8184  -18948915.87346 -14576883.37262
  23876731.3264   -5014188.94344   1476002.53261
 92  4 17 21 16 44.9980000  0  6G18G11G19G 2G 6G16
  22985673.4594   13712584.25745  10691834.09961
  23167202.709    -7548161.451 6  -5778366.94421
  20897674.022    -1425451.627 6  -1098264.56223
  20613159.139   -22174781.582 7 -17152851.30223
  21373436.522   -18979078.211 6 -14600386.45322
  23880424.639    -4994780.667 4   1491125.73021
 92  4 17 21 16 59.9980000  0  6G18G11G19G 2G 6G16
  22994807.4514   13760599.38445  10729248.26761
  23172302.3264   -7521359.18446  -5757482.09561
  20900315.0294   -1411565.30646  -1087444.08163
  20609708.623   -22192912.411 7 -17166979.19923
  21367698.7404  -19009219.97146 -14623873.49862
  23884132.6314   -4975294.64044   1506309.48161
 92  4 17 21 17 14.9980000  0  6G18G11G19G 2G 6G16
  23003955.3894   13808654.29545  10766693.43561
  23177428.5684   -7494430.26846  -5736498.56261
  20902972.459    -1397598.155 6  -1076560.61323
  20606271.647   -22210968.406 7 -17181048.78223
  21361968.647   -19039336.943 6 -14647341.22822
  23887856.9364   -4955725.05144   1521558.37661
 92  4 17 21 17 29.9980000  0  6G18G11G19G 2G 6G16
  23013105.998    13856750.702 5  10804170.93721
  23182575.5374   -7467377.11746  -5715418.22361
  20905646.045    -1383552.156 6  -1065615.70223
  20602850.225   -22228952.227 7 -17195062.12723
  21356241.1394  -19069431.05446 -14670791.14562
  23891599.928    -4936072.857 4   1536871.63621
 92  4 17 21 17 44.9980000  0  6G18G11G19G 2G 6G16
  23022267.5684   13904883.53145  10841676.83061
  23187746.0294   -7440203.05646  -5694243.67061
  20908333.6074   -1369432.54346  -1054613.43363
  20599440.881   -22246868.058 7 -17209022.49123
  21350519.350   -19099505.436 6 -14694225.68922
  23895354.959    -4916344.316 4   1552244.38021
 92  4 17 21 17 59.9980000  0  6G18G11G19G 2G 6G16
  23031434.2174   13953052.47545  10879210.85461
  23192941.3034   -7412905.14746  -5672972.61161
  20911037.029    -1355239.374 6  -1043553.84323
  20596044.670   -22264714.968 7 -17222929.14923
  21344798.6394  -19129556.69646 -14717642.21262
  23899124.4364   -4896539.32744   1567676.68661
 92  4 17 21 18 14.9980000  0  6G18G11G19G 2G 6G16
  23040602.740    14001255.889 5  10916771.73221
  23198159.7014   -7385487.13746  -5651607.97261
  20913747.600    -1340977.775 6  -1032440.93823
  20592661.225   -22282497.405 7 -17236785.56923
  21339085.482   -19159588.001 6 -14741043.19322
  23902906.6154   -4876662.26444   1583165.17061
 92  4 17 21 18 29.9980000  0  6G18G11G19G 2G 6G16
  23049785.365    14049490.712 5  10954357.07421
  23203398.2324   -7357950.26246  -5630150.70261
  20916473.725    -1326647.856 6  -1021274.79423
  20589289.545   -22300215.921 7 -17250592.18223
  21333374.092   -19189600.396 6 -14764429.43622
  23906699.740    -4856715.290 4   1598708.10621
 92  4 17 21 18 44.9980000  0  6G18G11G19G 2G 6G16
  23058967.7014   14097754.93645  10991965.34661
  23208660.2404   -7330295.95146  -5608601.92861
  20919215.3184   -1312247.82146  -1010054.01463
  20585929.498   -22317871.892 7 -17264350.05923
  21327666.1474  -19219594.90246 -14787801.73462
  23910512.8974   -4836701.02044   1614303.50861
 92  4 17 21 18 59.9980000  0  6G18G11G19G 2G 6G16
  23068158.506    14146046.459 5  11029594.87621
  23213945.6394   -7302525.52546  -5586962.66461
  20921968.287    -1297779.960 6   -998780.38423
  20582580.693   -22335467.934 7 -17278061.23523
  21321961.5764  -19249572.46046 -14811160.83762
  23914332.092    -4816621.642 4   1629949.64821
 92  4 17 21 19 14.9980000  0  6G18G11G19G 2G 6G16
  23077353.4364   14194369.27145  11067248.78461
  23219253.342    -7274636.195 6  -5565230.76421
  20924734.350    -1283244.599 6   -987454.15823
  20579244.529   -22352999.991 7 -17291722.55723
  21316261.1784  -19279529.98546 -14834504.32462
  23918166.717    -4796476.085 4   1645647.33621
 92  4 17 21 19 29.9980000  0  6G18G11G19G 2G 6G16
  23086556.2014   14242723.40645  11104927.11361
  23224582.7014   -7246629.89246  -5543407.70561
  20927513.7254   -1268644.53446   -976077.51262
  20575920.037   -22370469.892 7 -17305335.44423
  21310562.8654  -19309468.82146 -14857833.25262
  23922012.740    -4776265.368 4   1661395.78921
 92  4 17 21 19 44.9980000  0  6G18G11G19G 2G 6G16
  23095763.209    14291110.402 5  11142631.03821
  23229937.7014   -7218504.51546  -5521491.86761
  20930302.3424   -1253977.01246   -964648.30763
  20572608.381   -22387874.439 7 -17318897.40623
  21304870.4824  -19339386.41746 -14881145.62762
  23925868.7794   -4755987.14644   1677196.87461
 92  4 17 21 19 59.9980000  0  6G18G11G19G 2G 6G16
  23104980.982    14339530.214 5  11180360.52821
  23235308.9514   -7190260.53846  -5499483.60161
  20933108.4204   -1239242.38446   -953166.80363
  20569308.857   -22405213.263 7 -17332408.15423
  21299181.1234  -19369283.01546 -14904441.63862
  23929743.5534   -4735641.28445   1693050.64461
 92  4 17 21 20 14.9980000  0  6G18G11G19G 2G 6G16
  23114200.256    14387986.706 5  11218118.60721
  23240706.3574   -7161898.01746  -5477382.96561
  20935926.0534   -1224437.89746   -941630.86763
  20566021.818   -22422486.741 7 -17345867.98623
  21293496.0614  -19399158.39146 -14927721.11362
  23933624.6784   -4715223.92444   1708960.10661
 92  4 17 21 20 29.9980000  0  6G18G11G19G 2G 6G16
  23123426.756    14436477.466 5  11255903.38921
  23246127.5064   -7133418.76446  -5455191.38061
  20938755.3344   -1209563.76846   -930040.66462
  20562745.959   -22439696.844 7 -17359278.43223
  21287815.139   -19429013.900 6 -14950985.10322
  23937528.639    -4694733.744 4   1724926.35121
 92  4 17 21 20 44.9980000  0  6G18G11G19G 2G 6G16
  23132662.0924   14484999.54945  11293712.56661
  23251567.897    -7104825.333 6  -5432910.82421
  20941601.1004   -1194622.41946   -918398.08562
  20559483.318   -22456846.153 7 -17372641.51123
  21282137.0684  -19458851.52146 -14974235.16562
  23941442.2094   -4674171.83844   1740948.43961
 92  4 17 21 20 59.9980000  0  6G18G11G19G 2G 6G16
  23141898.9984   14533555.98845  11331548.51661
  23257029.8424   -7076116.62646  -5410540.43861
  20944452.9364   -1179614.47046   -906703.60963
  20556231.904   -22473933.697 7 -17385956.45723
  21276463.4284  -19488669.75246 -14997470.11762
  23945365.740    -4653535.696 4   1757028.40721
 92  4 17 21 21 14.9980000  0  6G18G11G19G 2G 6G16
  23151145.881    14582145.276 5  11369410.07221
  23262516.2874   -7047295.58346  -5388082.52461
  20947322.037    -1164544.264 6   -894960.62023
  20552991.647   -22490960.772 7 -17399224.28523
  21270791.2094  -19518471.21346 -15020691.99462
  23949307.857    -4632828.154 4   1773164.00221
 92  4 17 21 21 29.9980000  0  6G18G11G19G 2G 6G16
  23160397.2254   14630765.20445  11407295.48161
  23268019.654    -7018363.583 6  -5365538.15421
  20950201.2954   -1149413.30646   -883170.30162
  20549762.943   -22507927.696 7 -17412445.25223
  21265124.6784  -19548257.02346 -15043901.68462
  23953260.061    -4612050.012 4   1789354.61121
 92  4 17 21 21 44.9980000  0  6G18G11G19G 2G 6G16
  23169657.1004   14679417.78445  11445206.34661
  23273545.053    -6989318.715 6  -5342905.84121
  20953092.7954   -1134217.73446   -871329.62762
  20546546.318   -22524830.585 7 -17425616.31723
  21259459.9124  -19578024.85446 -15067097.36062
  23957228.459    -4591200.131 4   1805601.11421
 92  4 17 21 21 59.9980000  0  6G18G11G19G 2G 6G16
  23178920.9514   14728096.08645  11483137.25761
  23279094.0064   -6960166.37746  -5320189.76961
  20955999.6004   -1118964.14846   -859443.75563
  20543340.826   -22541675.603 7 -17438742.28723
  21253797.3184  -19607779.42147 -15090282.70362
  23961209.3504   -4570285.39644   1821898.17261
 92  4 17 21 22 14.9980000  0  6G18G11G19G 2G 6G16
  23188190.334    14776800.974 5  11521088.87921
  23284663.600    -6930904.622 6  -5297388.44821
  20958908.9754   -1103653.20746   -847513.18763
  20540146.397   -22558461.212 7 -17451821.96723
  21248137.9904  -19637518.52846 -15113455.99862
  23965200.1704   -4549304.22344   1838246.96361
 92  4 17 21 22 29.9980000  0  6G18G11G19G 2G 6G16
  23197461.373    14825535.659 5  11559063.72621
  23290253.1864   -6901528.34846  -5274497.88661
  20961837.0844   -1088279.81346   -835533.95463
  20536964.662   -22575182.658 7 -17464851.64823
  21242483.1544  -19667236.78246 -15136613.04062
  23969210.522    -4528252.298 4   1854650.89821
 92  4 17 21 22 44.9980000  0  6G18G11G19G 2G 6G16
  23206742.912    14874293.020 5  11597056.23821
  23295862.6784   -6872043.92446  -5251523.04761
  20964773.100    -1072849.592 6   -823510.45123
  20533793.357   -22591844.903 7 -17477835.20223
  21236830.5294  -19696939.88846 -15159758.28062
  23973225.553    -4507138.086 4   1871103.36221
 92  4 17 21 22 59.9980000  0  6G18G11G19G 2G 6G16
  23216023.0844   14923077.82145  11635070.12761
  23301497.240    -6842447.193 6  -5228460.70821
  20967720.7724   -1057356.48246   -811437.93963
  20530635.084   -22608442.592 7 -17490768.45023
  21231181.4044  -19726623.42846 -15182888.27162
  23977255.084    -4485960.079 4   1887605.52821
 92  4 17 21 23 14.9980000  0  6G18G11G19G 2G 6G16
  23225313.600    14971883.353 5  11673100.15921
  23307147.8974   -6812743.06146  -5205314.68461
  20970679.0224   -1041802.49446   -799317.98263
  20527488.514   -22624979.534 7 -17503654.36723
  21225536.2564  -19756291.83746 -15206006.47762
  23981299.5454   -4464725.32744   1904151.91761
 92  4 17 21 23 29.9980000  0  6G18G11G19G 2G 6G16
  23234603.529    15020707.731 5  11711144.89421
  23312821.623    -6782931.789 6  -5182085.17221
  20973652.7404   -1026185.63646   -787149.03963
  20524352.818   -22641454.494 7 -17516491.98123
  21219892.2874  -19785945.00246 -15229112.79862
  23985346.4364   -4443435.34844   1920741.36061
 92  4 17 21 23 44.9980000  0  6G18G11G19G 2G 6G16
  23243901.1234   15069550.47845  11749203.92361
  23318513.123    -6753014.954 6  -5158773.40021
  20976637.748    -1010505.779 6   -774931.01323
  20521229.615   -22657868.992 7 -17529282.48423
  21214254.1864  -19815584.10547 -15252208.16762
  23989408.670    -4422090.670 4   1937373.39521
 92  4 17 21 23 59.9980000  0  6G18G11G19G 2G 6G16
  23253194.053    15118411.054 5  11787276.85121
  23324227.943    -6722992.325 6  -5135379.19621
  20979631.7794    -994762.97146   -762663.92863
  20518117.959   -22674224.641 7 -17542027.12523
  21208615.2954  -19845208.69147 -15275292.22362
  23993481.9904   -4400692.20744   1954047.38161
 92  4 17 21 24 14.9980000  0  6G18G11G19G 2G 6G16
  23262499.022    15167289.663 5  11825363.83721
  23329963.3654   -6692862.99946  -5111901.83961
  20982639.0294    -978955.88246   -750346.75163
  20515016.467   -22690521.540 7 -17554725.99223
  21202980.8734  -19874817.00246 -15298363.60262
  23997563.436    -4379238.607 4   1970764.28921
 92  4 17 21 24 29.9980000  0  6G18G11G19G 2G 6G16
  23271802.568    15216187.618 5  11863465.88821
  23335715.1784   -6662626.44146  -5088340.93161
  20985663.0064    -963078.56946   -737974.85963
  20511926.615   -22706756.763 7 -17567376.79823
  21197350.0844  -19904408.46746 -15321421.85462
  24001658.139    -4357729.013 4   1987524.86321
 92  4 17 21 24 44.9980000  0  6G18G11G19G 2G 6G16
  23281113.100    15265105.580 5  11901583.51921
  23341490.779    -6632283.425 6  -5064697.08021
  20988696.0684    -947128.59346   -725546.34363
  20508849.357   -22722929.339 7 -17579978.78923
  21191723.022   -19933983.220 6 -15344467.08922
  24005761.201    -4336162.232 4   2004329.97221
 92  4 17 21 24 59.9980000  0  6G18G11G19G 2G 6G16
  23290426.1474   15314046.17045  11939718.79761
  23347281.561    -6601832.917 6  -5040969.45621
  20991749.1474    -931105.15046   -713060.58063
  20505784.131   -22739036.128 7 -17592529.51223
  21186097.318   -19963539.729 6 -15367498.10722
  24009876.920    -4314536.879 4   2021180.70121
 92  4 17 21 25 14.9980000  0  6G18G11G19G 2G 6G16
  23299743.443    15363007.036 5  11977869.86021
  23353098.959    -6571276.512 6  -5017159.32621
  20994807.1074    -915011.80646   -700520.35363
  20502731.232   -22755079.043 7 -17605030.46923
  21180477.4984  -19993079.46447 -15390516.05362
  24014001.787    -4292853.987 4   2038076.30621
 92  4 17 21 25 29.9980000  0  6G18G11G19G 2G 6G16
  23309062.850    15411989.858 5  12016038.04421
  23358934.982    -6540612.861 6  -4993265.61521
  20997882.6154    -898849.22846   -687926.17663
  20499690.451   -22771055.001 7 -17617479.24423
  21174859.2644  -20022600.46246 -15413519.39462
  24018143.912    -4271109.366 4   2055019.96721
 92  4 17 21 25 44.9980000  0  6G18G11G19G 2G 6G16
  23318391.1314   15460996.17145  12054224.52961
  23364789.279    -6509840.379 6  -4969287.12321
  21000972.967     -882618.055 6   -675278.55323
  20496663.412   -22786964.566 7 -17629876.28723
  21169244.8654  -20052100.65846 -15436506.52762
  24022291.498    -4249299.489 4   2072014.51721
 92  4 17 21 25 59.9980000  0  6G18G11G19G 2G 6G16
  23327719.397    15510021.144 5  12092425.55121
  23370665.389    -6478962.777 6  -4945226.70221
  21004071.756     -866323.480 6   -662581.52323
  20493647.451   -22802815.582 8 -17642227.70523
  21163635.1544  -20081583.40346 -15459480.06262
  24026456.123    -4227427.064 4   2089057.81321
 92  4 17 21 26 14.9980000  0  6G18G11G19G 2G 6G16
  23337051.568    15559061.475 5  12130638.53021
  23376561.1624   -6447982.62346  -4921086.36261
  21007184.1704    -849966.38446   -649835.76963
  20490641.326   -22818612.031 8 -17654536.60323
  21158027.0454  -20111051.05246 -15482441.83062
  24030629.615    -4205494.477 4   2106147.98721
 92  4 17 21 26 29.9980000  0  6G18G11G19G 2G 6G16
  23346385.240    15608119.156 5  12168865.02821
  23382477.537    -6416900.222 6  -4896866.36321
  21010309.2254    -833544.11046   -637039.22562
  20487645.732   -22834353.982 8 -17666803.03123
  21152421.3814  -20140503.12146 -15505391.46262
  24034814.7254   -4183499.49944   2123286.74761
 92  4 17 21 26 44.9980000  0  6G18G11G19G 2G 6G16
  23355729.6394   15657199.04945  12207108.84161
  23388411.451    -6385711.213 6  -4872563.29421
  21013446.7644    -817053.83246   -624189.69562
  20484660.443   -22850038.016 8 -17679024.33223
  21146821.6624  -20169935.00946 -15528325.37062
  24039015.904    -4161436.835 4   2140478.25321
 92  4 17 21 26 59.9980000  0  6G18G11G19G 2G 6G16
  23365071.936    15706301.716 5  12245370.39421
  23394365.3894   -6354414.85846  -4848176.57361
  21016599.6314    -800497.25846   -611288.50562
  20481687.248   -22865665.294 8 -17691201.40623
  21141224.6004  -20199345.47946 -15551242.58362
  24043222.3264   -4139307.33644   2157721.86161
 92  4 17 21 27 14.9980000  0  7G18G11G19G 2G 6G16G15
  23374418.6154   15755424.94145  12283647.95661
  23400342.818    -6323011.396 6  -4823706.38921
  21019762.9284    -783875.87646   -598336.82262
  20478723.232   -22881239.601 8 -17703337.20723
  21135633.5224  -20228734.34447 -15574142.96562
  24047447.131    -4117113.987 4   2175015.23021
  24269984.2954     -36559.56544
 92  4 17 21 27 29.9980000  0  7G18G11G19G 2G 6G16G15
  23383771.615    15804567.328 5  12321940.47021
  23406337.912    -6291503.028 6  -4799154.47421
  21022938.0224    -767190.75046   -585335.46462
  20475768.709   -22896763.865 8 -17715434.01323
  21130044.0064  -20258103.38547 -15597027.90062
  24051684.5144   -4094859.95844   2192355.85261
  24263035.6934     -73069.91044        -0.45371
 92  4 17 21 27 44.9980000  0  7G18G11G19G 2G 6G16G15
  23393129.803    15853733.063 5  12360251.16621
  23412354.6154   -6259885.52146  -4774517.50961
  21026125.8114    -750433.26546   -572277.72062
  20472825.381   -22912235.587 8 -17727489.87723
  21124459.5294  -20287447.91246 -15619893.72962
  24055928.6314   -4072541.73944   2209746.47861
  24256098.5224    -109525.63744    -28407.30061
 92  4 17 21 27 59.9980000  0  7G18G11G19G 2G 6G16G15
  23402488.1154   15902918.21845  12398576.97561
  23418391.522    -6228163.999 6  -4749799.47321
  21029326.7484    -733605.86246   -559165.49162
  20469889.748   -22927660.849 8 -17739509.54023
  21118879.7644  -20316772.50047 -15642744.02362
  24060185.873    -4050167.964 4   2227180.40421
  24249169.209     -145933.374 4    -56776.80321
 92  4 17 21 28 14.9980000  0  7G18G11G19G 2G 6G16G15
  23411851.279    15952124.640 5  12436919.37921
  23424449.029    -6196337.980 6  -4725000.02821
  21032543.5534    -716707.30346   -545997.81562
  20466963.592   -22943033.862 8 -17751488.49023
  21113302.6934  -20346076.31846 -15665578.13062
  24064454.5454   -4027739.54544   2244656.94161
  24242253.647     -182295.128 4    -85110.44521
 92  4 17 21 28 29.9980000  0  7G18G11G19G 2G 6G16G15
  23421219.3974   16001356.72645  12475281.76861
  23430525.3654   -6164403.03346  -4700115.69561
  21035774.2644    -699731.99246   -532770.33662
  20464050.647   -22958344.629 8 -17763418.93523
  21107732.1544  -20375354.55947 -15688392.31662
  24068734.123    -4005252.967 4   2262178.77221
  24235342.4984    -218604.14744   -113402.97761
 92  4 17 21 28 44.9980000  0  7G18G11G19G 2G 6G16G15
  23430592.6004   16050610.09145  12513660.73861
  23436623.3114   -6132362.19946  -4675148.85761
  21039017.5844    -682685.36346   -519487.28062
  20461149.428   -22973592.073 8 -17775300.04323
  21102164.7484  -20404609.81347 -15711188.58362
  24073024.936    -3982713.134 4   2279742.09121
  24228440.615     -254863.142 4   -141656.55321
 92  4 17 21 28 59.9980000  0  7G18G11G19G 2G 6G16G15
  23439969.506    16099878.451 5  12552051.38921
  23442739.186    -6100220.555 6  -4650103.47021
  21042273.0684    -665573.39246   -506153.30862
  20458260.709   -22988777.879 8 -17787133.11823
  21096600.5534  -20433846.52847 -15733970.40662
  24077322.897    -3960128.073 4   2297340.68221
  24221552.8114    -291073.88944   -169872.52261
 92  4 17 21 29 14.9980000  0  7G18G11G19G 2G 6G16G15
  23449348.522    16149168.441 5  12590458.88721
  23448876.092    -6067971.728 6  -4624974.55021
  21045544.3894    -648389.03046   -492762.92862
  20455382.193   -23003895.974 8 -17798913.43323
  21091042.2094  -20463058.12047 -15756732.65162
  24081629.7014   -3937491.89344   2314979.06561
  24214671.092     -327226.571 4   -198043.28421
 92  4 17 21 29 29.9980000  0  7G18G11G19G 2G 6G16G15
  23458732.647    16198478.816 5  12628882.26921
  23455033.3264   -6035616.99145  -4599763.11561
  21048828.1234    -631132.05246   -479315.96062
  20452519.154   -23018944.689 8 -17810639.68823
  21085488.4984  -20492245.38547 -15779475.93962
  24085948.5454   -3914805.07244   2332656.94561
  24207803.631     -363320.919 5   -226168.50721
 92  4 17 21 29 44.9980000  0  7G18G11G19G 2G 6G16G15
  23468119.8264   16247810.92145  12667322.60561
  23461210.592    -6003155.235 6  -4574468.28421
  21052128.0064    -613799.12546   -465809.81562
  20449669.365   -23033920.289 8 -17822308.96823
  21079939.2954  -20521406.74847 -15802199.04862
  24090275.217    -3892066.435 4   2350375.19421
  24200946.8184    -399354.75445   -254246.66461
 92  4 17 21 29 59.9980000  0  7G18G11G19G 2G 6G16G15
  23477509.8344   16297164.18745  12705779.41161
  23467408.912    -5970586.572 6  -4549090.16121
  21055438.8344    -596390.12346   -452244.38762
  20446834.232   -23048820.909 8 -17833919.82323
  21074394.8114  -20550541.77047 -15824901.63262
  24094614.022    -3869274.925 4   2368134.62421
  24194100.4204    -435327.24245   -282276.92861
 92  4 17 21 30 14.9980000  0  7G18G11G19G 2G 6G16G15
  23486905.006    16346530.544 5  12744246.42021
  23473622.037    -5937919.427 5  -4523635.28621
  21058762.1474    -578916.77046   -438628.81662
  20444012.404   -23063651.967 8 -17845476.47623
  21068852.6074  -20579658.48647 -15847589.94062
  24098960.357    -3846437.141 4   2385930.12421
  24187261.9904    -471246.94144   -310266.11761
 92  4 17 21 30 29.9980000  0  7G18G11G19G 2G 6G16G15
  23496298.2794   16395913.29045  12782726.19261
  23479858.053    -5905149.106 5  -4498100.02221
  21062104.2954    -561374.14546   -424959.27062
  20441203.529   -23078409.902 8 -17856976.14723
  21063317.6394  -20608751.71547 -15870259.95862
  24103313.420    -3823545.760 4   2403767.41121
  24180440.9204    -507107.04444   -338208.84861
 92  4 17 21 30 44.9980000  0  7G18G11G19G 2G 6G16G15
  23505701.209    16445308.518 5  12821215.69921
  23486114.162    -5872279.868 5  -4472487.68521
  21065453.7564    -543767.16346   -411239.58362
  20438407.256   -23093100.903 8 -17868423.66423
  21057785.3734  -20637825.27647 -15892914.65162
  24107675.186    -3800604.793 4   2421643.26321
  24173627.0224    -542908.44244   -366105.82761
 92  4 17 21 30 59.9980000  0  7G18G11G19G 2G 6G16G15
  23515105.2254   16494723.67645  12859720.73061
  23492390.029    -5839305.236 5  -4446793.20521
  21068815.6704    -526090.31346   -397465.44562
  20435625.600   -23107722.839 8 -17879817.36323
  21052257.3034  -20666872.21647 -15915548.59962
  24112057.686    -3777607.527 4   2439563.02421
  24166826.459     -578643.790 4   -393951.36221
 92  4 17 21 31 14.9980000  0  7G18G11G19G 2G 6G16G15
  23524513.0924   16544149.09145  12898233.74361
  23498681.2174   -5806234.86345  -4421024.12161
  21072193.2794    -508351.95746   -383643.38762
  20432853.795   -23122288.599 8 -17891167.28923
  21046732.9904  -20695901.87647 -15938169.07562
  24116444.1004   -3754559.49144   2457522.35261
  24160036.873     -614324.033 5   -421753.95121
 92  4 17 21 31 29.9980000  0  7G18G11G19G 2G 6G16G15
  23533920.014    16593589.352 5  12936758.33921
  23504993.6474   -5773064.64845  -4395177.24161
  21075581.0064    -490547.56746   -369769.86662
  20430093.029   -23136795.628 8 -17902471.44823
  21041212.9824  -20724909.41947 -15960772.31562
  24120839.912    -3731453.841 4   2475526.56121
  24153259.9284    -649946.26944   -449511.34161
 92  4 17 21 31 44.9980000  0  7G18G11G19G 2G 6G16G15
  23543330.764    16643039.645 5  12975290.75021
  23511324.3734   -5739798.35345  -4369255.49761
  21078980.7644    -472680.44646   -355847.47462
  20427343.162   -23151246.159 8 -17913731.58723
  21035697.3504  -20753898.44247 -15983361.12962
  24125245.7564   -3708295.50844   2493571.83761
  24146488.2174    -685514.77344   -477226.91061
 92  4 17 21 31 59.9980000  0  7G18G11G19G 2G 6G16G15
  23552742.9594   16692505.59545  13013835.35061
  23517674.029    -5706431.983 5  -4343255.77821
  21082392.0764    -454748.21046   -341874.34262
  20424604.350   -23165638.961 8 -17924946.74523
  21030183.9904  -20782864.26947 -16005931.86762
  24129667.772    -3685079.466 4   2511662.11821
  24139730.5454    -721025.03844   -504897.05161
 92  4 17 21 32 14.9980000  0  7G18G11G19G 2G 6G16G15
  23562160.6234   16741985.01545  13052390.44861
  23524039.857    -5672967.808 5  -4317179.83821
  21085818.084     -436756.311 6   -327854.72522
  20421875.326   -23179976.867 8 -17936119.12123
  21024676.6474  -20811808.94747 -16028486.12762
  24134089.4124   -3661807.27444   2529796.07361
  24132986.756     -756478.944 4   -532523.28221
 92  4 17 21 32 29.9980000  0  7G18G11G19G 2G 6G16G15
  23571577.881    16791480.645 5  13090958.18521
  23530429.3424   -5639402.96445  -4291025.46161
  21089251.8114    -418703.44546   -313787.59662
  20419157.975   -23194259.218 8 -17947248.21123
  21019173.8654  -20840728.88247 -16051021.10662
  24138529.1864   -3638476.11644   2547976.04361
  24126250.0534    -791874.48044   -560104.05061
 92  4 17 21 32 44.9980000  0  7G18G11G19G 2G 6G16G15
  23580998.311    16840983.150 5  13129531.26921
  23536834.6394   -5605748.87145  -4264801.53261
  21092698.3114    -400599.72746   -299680.84362
  20416448.373   -23208497.913 8 -17958343.28223
  21013672.7564  -20869635.17447 -16073545.45862
  24142978.522    -3615098.209 3   2566192.37421
  24119523.0144    -827220.78844   -587646.43661
 92  4 17 21 32 59.9980000  0  7G18G11G19G 2G 6G16G15
  23590424.4204   16890498.77245  13168114.57161
  23543255.1314   -5571999.34845  -4238503.25461
  21096155.4204    -382438.22346   -285529.05762
  20413748.514   -23222687.112 8 -17969399.78623
  21008176.1704  -20898521.13447 -16096053.96562
  24147444.068    -3591668.003 3   2584449.51621
  24112806.9204    -862511.59444   -615145.58561
 92  4 17 21 33 14.9980000  0  7G18G11G19G 2G 6G16G15
  23599843.0684   16940022.81345  13206704.45661
  23549695.436    -5538159.691 5  -4212134.74321
  21099620.225     -364220.442 6   -271333.42822
  20411057.264   -23236831.046 8 -17980421.01623
  21002683.0924  -20927391.54547 -16118550.35762
  24151905.1544   -3568190.86543   2602743.21661
  24106102.225     -897753.018 5   -642606.26021
 92  4 17 21 33 29.9980000  0  7G18G11G19G 2G 6G16G15
  23609273.0064   16989559.21645  13245303.96161
  23556152.1234   -5504225.74045  -4185692.76361
  21103098.287     -345939.969 6   -257088.94822
  20408374.904   -23250922.958 8 -17991401.70823
  20997191.7954  -20956241.88147 -16141031.10862
  24156385.482    -3544664.873 4   2621074.93821
  24099403.904     -932939.898 5   -670024.44421
 92  4 17 21 33 44.9980000  0  7G18G11G19G 2G 6G16G15
  23618701.139    17039103.364 5  13283909.51321
  23562627.3034   -5470203.31445  -4159181.83561
  21106586.4984    -327600.83746   -242798.75762
  20405702.412   -23264967.920 8 -18002345.81623
  20991705.3344  -20985077.52247 -16163500.41362
  24160871.6394   -3521102.27344   2639435.22261
  24092717.662     -968075.206 5   -697402.46721
 92  4 17 21 33 59.9980000  0  7G18G11G19G 2G 6G16G15
  23628131.3504   17088663.77645  13322527.70461
  23569119.1864   -5436084.71745  -4132595.97961
  21110091.3424    -309193.77946   -228455.63762
  20403039.397   -23278960.689 8 -18013249.25223
  20986221.1784  -21013890.04747 -16185951.70962
  24165360.2724   -3497495.32144   2657830.05961
  24086045.6394   -1003149.23245   -724732.71061
 92  4 17 21 34 14.9980000  0  7G18G11G19G 2G 6G16G15
  23637564.967    17138237.381 5  13361156.18721
  23575629.482    -5401871.806 5  -4105936.61121
  21113608.4124    -290718.34446   -214059.23262
  20400386.451   -23292902.648 8 -18024113.10023
  20980742.2324  -21042681.09747 -16208386.26062
  24169860.9984   -3473846.35344   2676257.63761
  24079379.4204   -1038162.91545   -752015.98061
 92  4 17 21 34 29.9980000  0  7G18G11G19G 2G 6G16G15
  23647000.9284   17187818.89345  13399790.84461
  23582158.639    -5367569.635 5  -4079207.69621
  21117135.9674    -272176.48546   -199611.06662
  20397742.615   -23306795.568 8 -18034938.73323
  20975268.3184  -21071455.24347 -16230807.63862
  24174367.147    -3450161.075 3   2694713.52021
  24072728.7254   -1073118.71545   -779254.11161
 92  4 17 21 34 44.9980000  0  7G18G11G19G 2G 6G16G15
  23656439.6234   17237417.85545  13438439.07261
  23588702.264    -5333169.444 5  -4052402.40221
  21120680.1934    -253554.17346   -185100.21862
  20395109.029   -23320630.587 8 -18045719.24823
  20969797.6074  -21100203.06247 -16253208.50562
  24178886.811    -3426432.120 3   2713203.42721
  24066091.8574   -1108003.80145   -806437.15561
 92  4 17 21 34 59.9980000  0  7G18G11G19G 2G 6G16G15
  23665882.451    17287032.154 5  13477099.28221
  23595270.2094   -5298668.73745  -4025518.78361
  21124240.1784    -234846.37046   -170522.74562
  20392489.061   -23334402.851 8 -18056450.86023
  20964331.6784  -21128921.82447 -16275586.72862
  24183408.389    -3402659.123 3   2731727.65321
  24059466.834    -1142812.653 5   -833560.81321
 92  4 17 21 35 14.9980000  0  7G18G11G19G 2G 6G16G15
  23675323.7794   17336649.19145  13515761.59161
  23601851.4984   -5264078.41545  -3998565.32661
  21127811.9124    -216065.64646   -155888.45462
  20389877.701   -23348124.567 8 -18067143.08723
  20958870.5844  -21157621.93147 -16297950.41662
  24187939.7724   -3378854.13543   2750276.79761
  24052855.7954   -1177557.37745   -860634.48161
 92  4 17 21 35 29.9980000  0  7G18G11G19G 2G 6G16G15
  23684764.8184   17386273.66745  13554429.73661
  23608451.522    -5229392.260 5  -3971537.20221
  21131402.084     -197208.558 6   -141194.66622
  20387277.537   -23361788.777 8 -18077790.50023
  20953413.2324  -21186296.39247 -16320294.12062
  24192473.4284   -3355010.71743   2768855.91561
  24046257.2644   -1212231.62645   -887653.28461
 92  4 17 21 35 44.9980000  0  6G18G11G19G 2G 6G15
  23694210.873    17435906.135 5  13593104.08121
  23615071.170    -5194609.242 5  -3944433.59621
  21135004.326     -178276.208 6   -126442.23122
  20384689.045   -23375395.129 8 -18088392.83223
  20947961.4514  -21214943.98447 -16342616.88862
  24039672.7484   -1246831.72345   -914614.26461
 92  4 17 21 35 59.9980000  0  6G18G11G19G 2G 6G15
  23703656.131    17485545.603 5  13631783.88921
  23621708.959    -5159730.315 5  -3917255.24921
  21138623.897     -159271.028 6   -111633.04522
  20382110.600   -23388944.049 8 -18098950.41223
  20942515.3034  -21243565.20047 -16364919.09762
  24033101.381    -1281359.364 5   -941518.76821
 92  4 17 21 36 14.9980000  0  6G18G11G19G 2G 6G15
  23713105.3894   17535190.35445  13670467.80561
  23628364.1394   -5124755.58646  -3890002.24961
  21142250.561     -140195.987 6    -96769.41922
  20379543.576   -23402430.217 8 -18109459.09123
  20937074.9904  -21272159.45047 -16387200.29462
  24026546.803    -1315816.913 5   -968368.71321
 92  4 17 21 36 29.9980000  0  6G18G11G19G 2G 6G15
  23722553.0534   17584826.02145  13709144.64761
  23635035.2014   -5089699.92846  -3862686.19261
  21145892.373     -121067.185 6    -81863.90822
  20376987.350   -23415863.617 8 -18119926.66423
  20931636.9594  -21300741.24047 -16409471.78762
  24019997.326    -1350218.599 5   -995175.08221
 92  4 17 21 36 44.9980000  0  6G18G11G19G 2G 6G15
  23731995.9594   17634459.13545  13747819.49961
  23641721.7874   -5054556.16146  -3835301.48561
  21149542.381     -101878.531 6    -66911.75322
  20374442.186   -23429238.759 8 -18130348.83223
  20926201.9984  -21329302.88447 -16431727.58162
  24013464.3184   -1384556.58445  -1021931.81261
 92  4 17 21 36 59.9980000  0  6G18G11G19G 2G 6G15
  23741442.975    17684093.874 5  13786495.61221
  23648429.897    -5019318.416 6  -3807843.54621
  21153209.365      -82626.267 6    -51910.03322
  20371909.357   -23442551.052 8 -18140722.02823
  20920769.3814  -21357838.07947 -16453962.76462
  24006942.600    -1418829.029 5  -1048637.51821
 92  4 17 21 37 14.9980000  0  6G18G11G19G 2G 6G15
  23750887.7324   17733731.42845  13825173.93361
  23655150.9124   -4983988.02246  -3780313.41461
  21156881.498      -63314.312 6    -36861.80122
  20369387.436   -23455802.905 8 -18151048.12823
  20915344.5844  -21386347.63747 -16476177.96662
  24000430.5294   -1453041.68745  -1075296.59761
 92  4 17 21 37 29.9980000  0  6G18G11G19G 2G 6G15
  23760334.6544   17783373.63245  13863855.86461
  23661890.967    -4948567.888 5  -3752713.35321
  21160571.897      -43942.553 6    -21766.96422
  20366876.678   -23468996.872 8 -18161329.12623
  20909924.7724  -21414833.82847 -16498374.97262
  23993929.639    -1487197.183 5  -1101911.13521
 92  4 17 21 37 44.9980000  0  6G18G11G19G 2G 6G15
  23769783.436    17833022.195 5  13902542.75321
  23668649.4754   -4913057.45445  -3725042.92861
  21164266.170      -24506.643 6     -6622.14622
  20364377.373   -23482129.037 8 -18171561.96623
  20904507.6314  -21443295.83647 -16520553.13062
  23987444.0224   -1521293.13945  -1128479.29561
 92  4 17 21 37 59.9980000  0  6G18G11G19G 2G 6G15
  23779230.8734   17882679.07744  13941236.11761
  23675422.9204   -4877457.30645  -3697302.58061
  21167978.318       -5003.341 6      8575.18222
  20361890.709   -23495199.528 8 -18181746.74823
  20899095.1934  -21471733.72547 -16542712.49462
  23980966.6234   -1555330.91545  -1155002.11861
 92  4 17 21 38 14.9980000  0  6G18G11G19G 2G 6G15
  23788682.389    17932342.903 5  13979934.89421
  23682215.3034   -4841769.10945  -3669493.62061
  21171702.912       14568.164 6     23825.66022
  20359414.490   -23508209.803 8 -18191884.60923
  20893688.3504  -21500148.66947 -16564853.97662
  23974499.326    -1589315.367 5  -1181483.37721
 92  4 17 21 38 29.9980000  0  6G18G11G19G 2G 6G15
  23798138.6314   17982021.46945  14018645.17461
  23689024.0064   -4805985.79545  -3641610.56061
  21175440.037       34216.711 6     39136.17322
  20356951.240   -23521155.876 8 -18201972.44023
  20888287.5764  -21528533.15647 -16586971.72562
  23968043.8114   -1623236.91045  -1207915.64161
 92  4 17 21 38 44.9980000  0  6G18G11G19G 2G 6G15
  23807589.318    18031706.751 4  14057360.66021
  23695849.8034   -4770115.94845  -3613660.05961
  21179193.225       53934.154 6     54500.36622
  20354497.514   -23534052.066 8 -18212021.40323
  20882890.6474  -21556895.23947 -16609072.02662
  23961598.678    -1657100.626 5  -1234302.86621
 92  4 17 21 38 59.9980000  0  6G18G11G19G 2G 6G15
  23817047.2564   18081399.73144  14096082.16961
  23702689.397    -4734158.058 5  -3585640.96821
  21182957.850       73722.938 6     69920.14722
  20352051.998   -23546897.814 8 -18222031.06123
  20877498.7874  -21585232.72447 -16631153.15462
  23955165.834    -1690905.628 5  -1260644.26821
 92  4 17 21 39 14.9980000  0  6G18G11G19G 2G 6G15
  23826508.0374   18131100.82144  14134809.97061
  23709552.6474   -4698114.10345  -3557554.79861
  21186735.365       93581.078 6     85393.97522
  20349617.818   -23559693.770 8 -18232001.92223
  20872110.2094  -21613547.25347 -16653216.38962
  23948745.209    -1724652.570 5  -1286940.49421
 92  4 17 21 39 29.9980000  0  6G18G11G19G 2G 6G15
  23835967.615    18180821.741 4  14173553.24621
  23716426.850    -4661972.366 5  -3529392.45221
  21190535.334      113522.853 6    100932.96822
  20347193.881   -23572426.466 8 -18241923.48823
  20866728.9674  -21641826.48847 -16675252.12462
  23942336.756    -1758326.290 5  -1313179.65221
 92  4 17 21 39 44.9980000  0  6G18G11G19G 2G 6G15
  23845434.029    18230558.448 4  14212308.80821
  23723325.436    -4625734.167 5  -3501154.92721
  21194343.248      133547.394 6    116536.46222
  20344783.529   -23585094.874 8 -18251794.96223
  20861354.5764  -21670071.56947 -16697261.24862
  23935942.248    -1791927.023 5  -1339361.92121
 92  4 17 21 39 59.9980000  0  6G18G11G19G 2G 6G15
  23854898.6934   18280293.80644  14251063.34261
  23730236.326    -4589414.943 5  -3472854.26421
  21198168.732      153636.867 6    132190.54322
  20342381.334   -23597714.795 8 -18261628.64923
  20855982.9284  -21698297.31847 -16719255.31262
  23929560.943    -1825471.100 5  -1365500.03221
 92  4 17 21 40 14.9980000  0  6G18G11G19G 2G 6G15
  23864362.748    18330032.759 4  14289820.65421
  23737163.8734   -4553008.67445  -3444485.78561
  21202002.186      173795.739 6    147898.70922
  20339990.928   -23610283.162 8 -18271422.16923
  20850617.3574  -21726496.94747 -16741229.01862
  23923186.5614   -1858952.62745  -1391589.44361
 92  4 17 21 40 29.9980000  0  6G18G11G19G 2G 6G15
  23873830.6234   18379775.33044  14328580.79461
  23744107.9594   -4516513.12045  -3416047.71061
  21205851.982      194024.781 6    163661.55322
  20337608.959   -23622798.216 8 -18281174.14323
  20845255.1234  -21754667.94347 -16763180.41462
  23916830.693    -1892363.215 5  -1417623.57621
 92  4 17 21 40 44.9980000  0  6G18G11G19G 2G 6G15
  23883298.3654   18429516.71744  14367340.01861
  23751071.115    -4479933.519 5  -3387544.16221
  21209712.889      214318.458 6    179474.75722
  20335237.318   -23635265.355 8 -18290888.78623
  20839900.4904  -21782814.92847 -16785113.10062
  23910485.303    -1925704.862 5  -1443603.94421
 92  4 17 21 40 59.9980000  0  6G18G11G19G 2G 6G15
  23892763.178    18479268.592 4  14406107.39821
  23758051.9904   -4443258.86645  -3358966.54261
  21213592.553      234691.364 6    195349.69922
  20332875.412   -23647671.259 8 -18300555.70523
  20834550.9204  -21810926.57047 -16807018.24662
  23904156.1544   -1958966.02445  -1469521.65361
 92  4 17 21 41 14.9980000  0  6G18G11G19G 2G 6G15
  23902229.4124   18529030.42244  14444882.55861
  23765045.1544   -4406491.38845  -3330316.59861
  21217481.545      255143.565 6    211286.42822
  20330526.154   -23660016.930 8 -18310175.69623
  20829207.6784  -21839004.37147 -16828897.02562
  23897844.0924   -1992147.08245  -1495376.91161
 92  4 17 21 41 29.9980000  0  6G18G11G19G 2G 6G15
  23911705.3504   18578798.13544  14483662.27061
  23772056.600    -4369634.897 5  -3301597.29321
  21221387.514      275669.973 6    227280.98122
  20328188.373   -23672304.421 8 -18319750.34823
  20823869.3654  -21867051.68047 -16850752.03962
  23891542.4124   -2025249.34845  -1521170.75461
 92  4 17 21 41 44.9980000  0  6G18G11G19G 2G 6G15
  23921174.287    18628570.573 4  14522445.69821
  23779089.732    -4332689.810 5  -3272808.94421
  21225308.568      296268.692 6    243331.88122
  20325861.092   -23684533.284 8 -18329279.31723
  20818538.0294  -21895068.62947 -16872583.39962
  23885259.2404   -2058271.75645  -1546902.38161
 92  4 17 21 41 59.9980000  0  6G18G11G19G 2G 6G15
  23930648.7954   18678345.10444  14561230.74961
  23786134.7254   -4295659.25345  -3243954.01461
  21229240.967      316933.335 6    259434.15122
  20323544.076   -23696707.857 8 -18338765.98223
  20813212.7324  -21923057.69147 -16894393.02762
  23878989.5534   -2091213.81445  -1572571.42261
 92  4 17 21 42 14.9980000  0  6G18G11G19G 2G 6G15
  23940120.3504   18728124.73244  14600019.76961
  23793199.772    -4258540.723 5  -3215030.52521
  21233185.717      337665.199 6    275588.79122
  20321238.076   -23708828.138 8 -18348210.34023
  20807892.8424  -21951015.86747 -16916178.59062
  23872738.8114   -2124070.91945  -1598174.22861
 92  4 17 21 42 29.9980000  0  6G18G11G19G 2G 6G15
  23949593.303    18777904.423 4  14638808.82421
  23800279.1704   -4221340.03445  -3186043.01261
  21237142.318      358457.028 6    291790.17022
  20318941.834   -23720899.573 8 -18357616.63923
  20802576.8814  -21978948.44647 -16937944.20662
  23866501.522    -2156845.507 5  -1623712.76721
 92  4 17 21 42 44.9980000  0  6G18G11G19G 2G 6G15
  23959065.4984   18827692.06244  14677604.08861
  23807374.1234   -4184051.92445  -3156987.37661
  21241113.287      379312.286 6    308040.96522
  20316655.303   -23732912.428 8 -18366977.28923
  20797267.295   -22006849.692 7 -16959685.41022
  23860280.084    -2189531.938 5  -1649182.59821
 92  4 17 21 42 59.9980000  0  6G18G11G19G 2G 6G15
  23968542.951    18877487.587 4  14716405.49321
  23814483.475    -4146677.239 5  -3127864.29621
  21245095.381      400231.488 6    324341.59222
  20314380.350   -23744863.863 8 -18376290.07923
  20791964.475   -22034719.764 7 -16981402.32322
  23854077.5294   -2222133.05345  -1674585.95261
 92  4 17 21 43 14.9980000  0  6G18G11G19G 2G 6G15
  23978021.9124   18927285.54944  14755208.80161
  23821613.5534   -4109219.03845  -3098676.12761
  21249085.654      421209.343 6    340687.92422
  20312118.311   -23756754.051 8 -18385555.14523
  20786665.162   -22062561.560 7 -17003097.20422
  23847887.498    -2254652.216 5  -1699925.42021
 92  4 17 21 43 29.9980000  0  6G18G11G19G 2G 6G15
  23987496.748    18977086.875 4  14794014.73821
  23828759.3814   -4071675.29145  -3069421.28761
  21253087.803      442244.760 6    357079.10222
  20309868.381   -23768577.434 8 -18394768.15623
  20781374.029   -22090372.296 7 -17024767.88622
  23841715.0144   -2287087.85745  -1725199.81861
 92  4 17 21 43 44.9980000  0  6G18G11G19G 2G 6G15
  23996974.998    19026887.078 4  14832819.80921
  23835919.3114   -4034049.74345  -3040102.71561
  21257100.232      463335.273 6    373513.21822
  20307630.186   -23780337.965 8 -18403932.18623
  20776086.740   -22118155.330 7 -17046416.97822
  23835558.467    -2319446.931 5  -1750414.56021
 92  4 17 21 43 59.9980000  0  6G18G11G19G 2G 6G15
  24006451.654    19076697.376 4  14871632.73621
  23843094.725    -3996332.381 5  -3010712.61921
  21261127.537      484493.214 6    389999.87622
  20305405.811   -23792028.149 8 -18413041.40723
  20770806.623   -22145900.113 7 -17068036.26422
  23829418.022    -2351721.422 5  -1775563.37121
 92  4 17 21 44 14.9980000  0  6G18G11G19G 2G 6G15
  24015934.357    19126516.127 4  14910452.23821
  23850289.5924   -3958527.20345  -2981254.06861
  21265165.272      505718.243 6    406538.81322
  20303192.272   -23803653.738 8 -18422100.28823
  20765534.607   -22173609.887 7 -17089628.27422
  23823290.7954   -2383916.79745  -1800650.52461
 92  4 17 21 44 29.9980000  0  6G18G11G19G 2G 6G15
  24025414.9284   19176344.27644  14949279.05861
  23857498.7014   -3920633.09645  -2951726.22561
  21269219.475      527015.875 6    423134.32122
  20300994.115   -23815212.319 7 -18431106.95423
  20760267.256   -22201283.388 7 -17111192.01722
  23817179.201    -2416033.226 5  -1825676.16521
 92  4 17 21 44 44.9980000  0  6G18G11G19G 2G 6G15
  24034897.279    19226182.399 4  14988113.67321
  23864729.4364   -3882649.88345  -2922128.95761
  21273285.701      548390.868 6    439790.11422
  20298806.678   -23826701.173 7 -18440059.28923
  20755010.2724  -22228919.64547 -17132726.73362
  23811081.8574   -2448069.96745  -1850639.72461
 92  4 17 21 44 59.9980000  0  6G18G11G19G 2G 6G15
  24044383.9434   19276028.00044  15026954.11961
  23871974.1784   -3844580.91445  -2892464.86361
  21277367.732      569843.260 6    456506.21322
  20296634.107   -23838124.610 7 -18448960.65323
  20749755.9904  -22256521.46647 -17154234.61662
  23804998.5924   -2480033.13945  -1875545.94761
 92  4 17 21 45 14.9980000  0  6G18G11G19G 2G 6G15
  24053870.068    19325878.828 4  15065798.61921
  23879234.318    -3806426.068 5  -2862733.86521
  21281464.936      591376.453 6    473285.27422
  20294471.022   -23849485.080 7 -18457812.95123
  20744511.3734  -22284088.42347 -17175715.33563
  23798929.3114   -2511921.92445  -1900394.19161
 92  4 17 21 45 29.9980000  0  6G18G11G19G 2G 6G15
  24063357.5224   19375733.73544  15104646.28961
  23886512.490    -3768187.979 5  -2832937.99921
  21285581.037      612987.005 6    490124.61622
  20292320.318   -23860790.127 8 -18466622.06523
  20739270.7484  -22311622.58747 -17197170.49562
  23792875.889    -2543739.862 5  -1925187.25021
 92  4 17 21 45 44.9980000  0  6G18G11G19G 2G 6G15
  24072846.451    19425594.672 4  15143498.69321
  23893800.7404   -3729865.02545  -2803076.01761
  21289707.2954     634677.20946    507026.03662
  20290178.982   -23872042.444 8 -18475390.09023
  20734038.1934  -22339121.89047 -17218598.49563
  23786837.7174   -2575484.52445  -1949923.19161
 92  4 17 21 45 59.9980000  0  6G18G11G19G 2G 6G15
  24082334.107    19475457.366 4  15182352.45321
  23901112.9594   -3691460.72945  -2773150.63861
  21293848.506      656444.724 6    523987.69122
  20288047.256   -23883248.437 8 -18484122.02123
  20728810.889   -22366589.157 7 -17240001.53122
  23780806.5924   -2607158.07545  -1974603.74161
 92  4 17 21 46 14.9980000  0  6G18G11G19G 2G 6G15
  24091825.4284   19525321.97144  15221207.69661
  23908437.318    -3652973.914 5  -2743160.96121
  21298006.459      678290.146 6    541010.04622
  20285923.600   -23894403.567 8 -18492814.31223
  20723590.162   -22394022.686 7 -17261378.27523
  23774791.936    -2638755.698 5  -1999225.09921
 92  4 17 21 46 29.9980000  0  6G18G11G19G 2G 6G15
  24101311.068    19575186.848 4  15260063.15721
  23915774.092    -3614402.086 5  -2713105.03121
  21302177.553      700216.633 6    558095.56522
  20283811.959   -23905502.150 8 -18501462.54423
  20718377.779   -22421419.490 7 -17282726.41223
  23768796.920    -2670273.698 5  -2023784.42921
 92  4 17 21 46 44.9980000  0  6G18G11G19G 2G 6G15
  24110798.928    19625040.914 4  15298910.20121
  23923129.342    -3575754.025 5  -2682989.71221
  21306364.506      722213.735 6    575236.11522
  20281709.404   -23916551.753 8 -18510072.60623
  20713168.740   -22448788.108 7 -17304052.58323
  23762813.1004   -2701718.76345  -2048286.92461
 92  4 17 21 46 59.9980000  0  6G18G11G19G 2G 6G15
  24120285.881    19674890.124 4  15337753.47421
  23930499.4044   -3537024.40645  -2652810.82061
  21310566.022      744284.078 6    592433.73722
  20279616.342   -23927547.466 8 -18518640.68123
  20707967.6934  -22476122.44247 -17325352.03663
  23756842.693    -2733082.939 5  -2072726.36621
 92  4 17 21 47 14.9980000  0  6G18G11G19G 2G 6G15
  24129770.5144   19724727.77744  15376587.70361
  23937886.147    -3498217.079 5  -2622571.38421
  21314777.061      766423.867 6    609685.46722
  20277533.529   -23938493.244 8 -18527169.84123
  20702770.9044  -22503425.66847 -17346627.24663
  23750891.443    -2764367.046 5  -2097103.44221
 92  4 17 21 47 29.9980000  0  6G18G11G19G 2G 6G15
  24139250.9124   19774554.71944  15415413.58061
  23945285.3344   -3459328.43645  -2592268.59361
  21319002.803      788635.575 6    626993.24122
  20275461.162   -23949386.191 8 -18535657.83823
  20697582.053   -22530693.839 7 -17367875.14623
  23744953.1154   -2795564.57745  -2121413.05461
 92  4 17 21 47 44.9980000  0  6G18G11G19G 2G 6G15
  24148731.0844   19824368.07244  15454228.93061
  23952699.725    -3420361.319 5  -2561904.66421
  21323242.904      810915.925 6    644354.50222
  20273398.326   -23960228.089 8 -18544106.05823
  20692399.3504  -22557929.44447 -17389097.66563
  23739034.8574   -2826675.93645  -2145655.54661
 92  4 17 21 47 59.9980000  0  6G18G11G19G 2G 6G15
  24158210.709    19874170.524 4  15493035.76021
  23960129.107    -3381313.744 5  -2531478.01521
  21327498.061      833269.049 6    661772.46522
  20271345.889   -23971012.537 8 -18552509.51323
  20687223.5764  -22585129.74147 -17410292.67263
  23733127.006    -2857695.851 5  -2169826.73821
 92  4 17 21 48 14.9980000  0  6G18G11G19G 2G 6G15
  24167685.0374   19923961.55244  15531833.70161
  23967575.5294   -3342189.06945  -2500991.30361
  21331762.732      855695.436 6    679247.52722
  20269303.9204  -23981739.12148 -18560867.87963
  20682052.8814  -22612297.67347 -17431462.45863
  23727246.162    -2888626.606 5  -2193928.47521
 92  4 17 21 48 29.9980000  0  6G18G11G19G 2G 6G15
  24177153.4204   19973737.95544  15570620.22061
  23975032.803    -3302991.569 5  -2470447.83821
  21336047.897      878189.853 6    696775.59622
  20267272.8974  -23992412.71648 -18569184.95563
  20676889.3344  -22639436.86847 -17452609.85363
  23721371.053    -2919470.055 5  -2217962.20421
 92  4 17 21 48 44.9980000  0  6G18G11G19G 2G 6G15
  24186630.717    20023505.668 4  15609399.97721
  23982510.490    -3263715.905 5  -2439843.46721
  21340339.170      900757.667 6    714360.85522
  20265252.3814  -24003030.30348 -18577458.38963
  20671731.2954  -22666541.34347 -17473730.19363
  23715523.443    -2950219.151 5  -2241922.39521
 92  4 17 21 48 59.9980000  0  6G18G11G19G 2G 6G15
  24196095.9284   20073265.98744  15648174.01561
  23989998.0294   -3224364.70645  -2409180.23161
  21344648.7324     923393.17846    731998.85662
  20263242.6474  -24013594.79848 -18585690.45563
  20666579.0294  -22693613.48547 -17494825.33963
  23709689.647    -2980874.275 5  -2265809.36221
 92  4 17 21 49 14.9980000  0  6G18G11G19G 2G 6G15
  24205566.3734   20123017.88244  15686941.45161
  23997499.9514   -3184938.46045  -2378458.52361
  21348968.022      946098.051 6    749690.91022
  20261242.6234  -24024103.68348 -18593879.18763
  20661434.9434  -22720653.07447 -17515895.11463
  23703872.1624   -3011438.45745  -2289625.48561
 92  4 17 21 49 29.9980000  0  6G18G11G19G 2G 6G15
  24215034.0924   20172770.10443  15725709.15561
  24005019.154    -3145429.047 5  -2347672.01021
  21353306.779      968879.930 6    767442.97222
  20259254.5764  -24034548.65348 -18602018.11463
  20656297.0294  -22747651.54047 -17536932.85163
  23698074.279    -3041908.078 5  -2313367.90921
 92  4 17 21 49 44.9980000  0  6G18G11G19G 2G 6G15
  24224498.2874   20222511.36343  15764468.31061
  24012552.7014   -3105851.22145  -2316832.19261
  21357649.6474     991720.10446    785240.45662
  20257277.4904  -24044942.72048 -18610117.38263
  20651163.4284  -22774623.14247 -17557949.65263
  23692290.334    -3072298.929 5  -2337048.96021
 92  4 17 21 49 59.9980000  0  6G18G11G19G 2G 6G15
  24233961.2954   20272250.14843  15803225.56761
  24020096.1394   -3066199.34145  -2285934.67261
  21362009.811     1014624.918 6    803088.30622
  20255311.2644  -24055277.33048 -18618170.31363
  20646037.1474  -22801561.61147 -17578940.63363
  23686525.3424   -3102605.38945  -2360664.26461
 92  4 17 21 50 14.9980000  0  6G18G11G19G 2G 6G15
  24243427.8894   20321985.23643  15841979.92561
  24027654.686    -3026475.201 5  -2254980.82921
  21366377.397     1037593.741 6    820986.03422
  20253355.1784  -24065553.99148 -18626178.09563
  20640917.4674  -22828468.15547 -17599906.73763
  23680774.0374   -3132830.88445  -2384216.46861
 92  4 17 21 50 29.9980000  0  6G18G11G19G 2G 6G15
  24252892.318    20371709.727 3  15880726.00021
  24035227.1234   -2986680.35045  -2223971.89961
  21370761.022     1060621.055 6    838929.35122
  20251409.6864  -24075776.16048 -18634143.41563
  20635804.2404  -22855343.93147 -17620848.87163
  23675035.4984   -3162976.53045  -2407706.45961
 92  4 17 21 50 44.9980000  0  6G18G11G19G 2G 6G15
  24262352.318    20421425.064 3  15919465.01621
  24042815.1004   -2946811.61145  -2192905.36261
  21375154.7794    1083708.82446    856919.77762
  20249475.4904  -24085941.07048 -18642064.11663
  20630695.8344  -22882185.09947 -17641764.03763
  23669312.240    -3193039.478 5  -2431132.05121
 92  4 17 21 50 59.9980000  0  6G18G11G19G 2G 6G15
  24271807.740    20471134.144 3  15958199.05121
  24050415.7954   -2906866.98545  -2161779.71961
  21379560.9284    1106860.92846    874960.32962
  20247553.3184  -24096044.81148 -18649937.15363
  20625595.2174  -22908989.24647 -17662650.35563
  23663611.045    -3223019.716 5  -2454493.16421
 92  4 17 21 51 14.9980000  0  6G18G11G19G 2G 6G15
  24281271.803    20520837.162 3  15996928.41921
  24058030.8184   -2866847.61145  -2130595.82361
  21383979.381     1130078.710 6    893052.05422
  20245642.3574  -24106088.45048 -18657763.35963
  20620500.9434  -22935757.00647 -17683508.32163
  23657919.1004   -3252919.13945  -2477791.32361
 92  4 17 21 51 29.9980000  0  6G18G11G19G 2G 6G15
  24290723.811    20570533.354 3  16035652.49821
  24065659.365    -2826753.512 5  -2099353.68121
  21388408.4204    1153366.65346    911198.44862
  20243741.6704  -24116074.41348 -18665544.61963
  20615413.857   -22962487.784 7 -17704337.47423
  23652244.553    -3282736.653 5  -2501025.64921
 92  4 17 21 51 44.9980000  0  6G18G11G19G 2G 6G15
  24300184.904    20620227.090 3  16074374.61421
  24073307.8184   -2786581.68145  -2068050.98161
  21392855.725     1176728.816 6    929402.67722
  20241852.5144  -24126002.54648 -18673280.82163
  20610335.662   -22989178.013 7 -17725135.03123
  23646588.014    -3312464.505 5  -2524190.14621
 92  4 17 21 51 59.9980000  0  6G18G11G19G 2G 6G15
  24309640.0684   20669919.42843  16113095.68061
  24080964.2094   -2746331.69045  -2036687.38561
  21397318.795     1200169.906 6    947668.40922
  20239973.8814  -24135871.20248 -18680970.67663
  20605264.8894  -23015826.65147 -17745900.18063
  23640949.201    -3342096.319 5  -2547279.78321
 92  4 17 21 52 14.9980000  0  5G11G19G 2G 6G15
  24088638.201    -2706005.603 5  -2005264.48921
  21401792.0924    1223691.50746    965996.87062
  20238106.7644  -24145685.18348 -18688617.93163
  20600201.436   -23042435.437 7 -17766634.27723
  23635329.9044   -3371633.48845  -2570295.67461
 92  4 17 21 52 29.9980000  0  5G11G19G 2G 6G15
  24096327.0064   -2665603.64845  -1973782.47561
  21406287.2324    1247293.79846    984388.20762
  20236248.0684  -24155446.57848 -18696224.20463
  20595145.779   -23069004.063 7 -17787337.07523
  23629728.584    -3401073.739 5  -2593236.05021
 92  4 17 21 52 44.9980000  0  5G11G19G 2G 6G15
  24104030.0764   -2625130.43545  -1942244.93461
  21410789.897     1270973.632 6   1002839.96422
  20234401.0684  -24165158.51748 -18703791.94263
  20590096.740   -23095536.363 7 -17808011.57423
  23624144.170    -3430420.195 5  -2616103.33721
 92  4 17 21 52 59.9980000  0  5G11G19G 2G 6G15
  24111747.0684   -2584581.60445  -1910648.47961
  21415312.342     1294738.590 6   1021358.06322
  20232563.0294  -24174815.05748 -18711316.51263
  20585055.920   -23122027.522 7 -17828654.01023
  23618577.084    -3459670.547 5  -2638895.73621
 92  4 17 21 53 14.9980000  0  5G11G19G 2G 6G15
  24119474.115    -2543963.746 5  -1878998.24521
  21419849.162     1318582.408 6   1039937.60322
  20230734.2324  -24184424.94448 -18718804.73163
  20580020.662   -23148483.650 7 -17849269.15423
  23613027.9594   -3488829.45645  -2661616.87261
 92  4 17 21 53 29.9980000  0  5G11G19G 2G 6G15
  24127217.326    -2503281.079 5  -1847297.50821
  21424403.295     1342500.790 6   1058575.25422
  20228914.0224  -24193992.44848 -18726259.92063
  20574992.311   -23174908.463 7 -17869859.89123
  23607496.889    -3517899.493 5  -2684268.74921
 92  4 17 21 53 44.9980000  0  5G11G19G 2G 6G15
  24134969.475    -2462528.225 5  -1815542.08721
  21428968.7724    1366496.57846   1077273.21662
  20227103.3814  -24203509.79648 -18733676.03263
  20569970.576   -23201295.917 7 -17890421.52723
  23601981.693    -3546874.088 5  -2706846.28721
 92  4 17 21 53 59.9980000  0  5G11G19G 2G 6G15
  24142740.7484   -2421693.40945  -1783722.78161
  21433551.6474    1390578.78946   1096038.50262
  20225303.5764  -24212963.78348 -18741042.76863
  20564958.943   -23227633.723 7 -17910944.47823
  23596489.264    -3575741.135 5  -2729340.00521
 92  4 17 21 54 14.9980000  0  5G11G19G 2G 6G15
  24150523.9754   -2380794.28345  -1751853.37461
  21438145.3974    1414728.80246   1114856.63162
  20223514.2254  -24222372.07148 -18748373.89563
  20559953.607   -23253938.964 7 -17931442.04823
  23591014.1394   -3604520.64145  -2751765.53661
 92  4 17 21 54 29.9980000  0  5G11G19G 2G 6G15
  24158322.022    -2339824.953 5  -1719929.26021
  21442755.3504    1438950.32146   1133730.48762
  20221733.6474  -24231728.45348 -18755664.57663
  20554954.482   -23280205.230 7 -17951909.25223
  23585553.9434   -3633209.74245  -2774120.59961
 92  4 17 21 54 44.9980000  0  5G11G19G 2G 6G15
  24166122.9124   -2298788.84744  -1687953.11561
  21447378.3894    1463237.56146   1152655.54162
  20219963.2254  -24241032.61248 -18762914.56263
  20549963.420   -23306435.436 7 -17972348.36023
  23580109.123    -3661813.791 5  -2796409.39221
 92  4 17 21 54 59.9980000  0  5G11G19G 2G 6G15
  24173953.3574   -2257682.04944  -1655921.86461
  21452012.326     1487593.273 6   1171633.94622
  20218203.0844  -24250278.78448 -18770119.36463
  20544978.545   -23332625.021 7 -17992755.81423
  23574684.7874   -3690331.14445  -2818630.61461
 92  4 17 21 55 14.9980000  0  5G11G19G 2G 6G15
  24181790.5454   -2216507.44745  -1623837.79161
  21456659.584     1512013.436 6   1190662.57222
  20216453.8424  -24259471.58448 -18777282.57463
  20540003.537   -23358776.595 7 -18013133.64423
  23569273.568    -3718761.246 5  -2840783.84821
 92  4 17 21 55 29.9980000  0  5G11G19G 2G 6G15
  24189634.8504   -2175259.73644  -1591696.73561
  21461322.0764    1536502.36446   1209744.78362
  20214715.4044  -24268603.20548 -18784398.11263
  20535034.881   -23384884.009 7 -18033477.07023
  23563881.811    -3747095.336 5  -2862862.26221
 92  4 17 21 55 44.9980000  0  5G11G19G 2G 6G15
  24197500.7564   -2133946.56045  -1559504.69461
  21465990.3504    1561051.23746   1228873.71262
  20212989.451   -24277679.002 8 -18791470.14723
  20530074.514   -23410954.477 7 -18053791.70423
  23558507.076    -3775341.599 5  -2884872.22921
 92  4 17 21 55 59.9980000  0  5G11G19G 2G 6G15
  24205374.7324   -2092562.32144  -1527257.23561
  21470673.9984    1585668.34046   1248055.80862
  20211273.717   -24286693.398 8 -18798494.33523
  20525121.951   -23436981.785 7 -18074072.69923
  23553146.740    -3803494.930 5  -2906809.77921
 92  4 17 21 56 14.9980000  0  5G11G19G 2G 6G15
  24213261.420    -2051109.248 4  -1494956.17221
  21475371.8814    1610350.24746   1267288.40162
  20209568.639   -24295649.384 8 -18805473.01123
  20520176.732   -23462967.807 7 -18094321.52823
  23547808.4594   -3831559.47245  -2928678.12861
 92  4 17 21 56 29.9980000  0  5G11G19G 2G 6G15
  24221167.803    -2009577.092 4  -1462593.49521
  21480083.4984    1635107.54246   1286579.73462
  20207878.170   -24304534.930 8 -18812396.79723
  20515242.076   -23488901.480 7 -18114529.56723
  23542487.506    -3859525.156 5  -2950469.47221
 92  4 17 21 56 44.9980000  0  5G11G19G 2G 6G15
  24229078.1154   -1967978.06444  -1430178.72561
  21484807.2724    1659927.64746   1305920.00962
  20206199.076   -24313359.818 8 -18819273.31623
  20510314.561   -23514794.548 7 -18134705.96523
  23537181.193    -3887401.066 5  -2972190.86121
 92  4 17 21 56 59.9980000  0  5G11G19G 2G 6G15
  24237006.8894   -1926308.54744  -1397708.99861
  21489541.1784    1684815.58346   1325313.13462
  20204531.498   -24322120.836 8 -18826100.06723
  20505396.217   -23540642.944 7 -18154847.55623
  23531895.7174   -3915179.57245  -2993836.33661
 92  4 17 21 57 14.9980000  0  5G11G19G 2G 6G15
  24244952.295    -1884569.758 4  -1365185.29521
  21494290.045     1709771.902 6   1344759.54722
  20202875.873   -24330823.106 8 -18832881.04323
  20500484.561   -23566447.195 7 -18174954.74323
  23526630.123    -3942856.907 5  -3015403.01021
 92  4 17 21 57 29.9980000  0  5G11G19G 2G 6G15
  24252906.772    -1842760.345 4  -1332606.56421
  21499054.3654    1734800.18946   1364262.04462
  20201230.678   -24339468.528 8 -18839617.71923
  20495582.686   -23592205.681 7 -18195026.26923
  23521381.1544   -3970431.25145  -3036889.38561
 92  4 17 21 57 44.9980000  0  5G11G19G 2G 6G15
  24260876.147    -1800885.981 4  -1299977.19721
  21503830.482     1759896.637 6   1383817.66221
  20199595.295   -24348061.478 8 -18846313.50823
  20490688.537   -23617923.142 7 -18215065.82723
  23516150.4754   -3997910.06145  -3058301.34261
 92  4 17 21 57 59.9980000  0  5G11G19G 2G 6G15
  24268858.1934   -1758937.79544  -1267290.32961
  21508623.0064    1785069.88346   1403433.10762
  20197971.842   -24356595.063 8 -18852963.03723
  20485805.147   -23643590.356 7 -18235066.23123
  23510939.8344   -4025284.49345  -3079631.95361
 92  4 17 21 58 14.9980000  0  5G11G19G 2G 6G15
  24276855.022    -1716926.316 4  -1234554.14721
  21513423.0614    1810310.01246   1423100.68161
  20196357.490   -24365078.832 8 -18859573.75523
  20480928.498   -23669217.346 7 -18255035.29023
  23505749.959    -4052562.618 5  -3100887.53621
 92  4 17 21 58 29.9980000  0  4G19G 2G 6G15
  21518240.5684    1835621.76846   1442824.06262
  20194752.959   -24373511.013 8 -18866144.27123
  20476060.623   -23694800.798 7 -18274970.42023
  23500579.467    -4079738.417 5  -3122063.38821
 92  4 17 21 58 44.9980000  0  4G19G 2G 6G15
  21523071.4824    1861007.26846   1462604.91362
  20193157.451   -24381892.546 8 -18872675.32323
  20471200.514   -23720342.447 7 -18294872.97823
  23495427.318    -4106811.220 5  -3143158.98221
 92  4 17 21 58 59.9980000  0  4G19G 2G 6G15
  21527917.9904    1886472.75646   1482448.08762
  20191572.881   -24390222.397 8 -18879166.10123
  20466347.873   -23745839.036 7 -18314740.43023
  23490295.4824   -4133776.78545  -3164171.01361
 92  4 17 21 59 14.9980000  0  5G13G19G 2G 6G15
  23889483.8734         -0.72553
  21532776.2324    1912014.52846   1502350.70161
  20189996.3264  -24398505.59248 -18885620.52663
  20461502.467   -23771294.753 7 -18334576.02923
  23485183.4824   -4160640.18245  -3185103.44761
 92  4 17 21 59 29.9980000  0  5G13G19G 2G 6G15
  23876813.0224     -66592.62243
  21537653.1704    1937632.30646   1522312.53861
  20188428.7174  -24406743.70548 -18892039.82463
  20456665.022   -23796711.768 7 -18354381.47123
  23480092.4674   -4187406.21745  -3205959.98561
 92  4 17 21 59 44.9980000  0  5G13G19G 2G 6G15
  23864139.2874    -133175.60943
  21542543.8114    1963328.61446   1542335.57061
  20186871.6624  -24414929.34748 -18898418.23663
  20451837.615   -23822088.233 7 -18374155.31823
  23475014.928    -4214074.961 5  -3226740.75821
 92  4 17 21 59 59.9980000  0  5G13G19G 2G 6G15
  23851473.0534    -199747.36643
  21547447.1704    1989105.45746   1562421.35861
  20185324.084   -24423058.476 8 -18904752.60923
  20447016.397   -23847421.917 7 -18393895.82723
  23469962.686    -4240642.164 5  -3247442.38921
 92  4 17 22  0 14.9980000  0  5G13G19G 2G 6G15
  23838805.1234    -266307.35843
  21552368.3654    2014963.95946   1582570.77761
  20183787.7254  -24431130.08048 -18911042.15863
  20442204.584   -23872712.209 7 -18413602.52923
  23464921.225    -4267107.653 5  -3268064.76321
 92  4 17 22  0 29.9980000  0  5G13G19G 2G 6G15
  23826143.7484    -332859.53143
  21557306.6314    2040901.95646   1602782.14361
  20182261.1474  -24439149.25448 -18917290.85463
  20437399.162   -23897963.683 7 -18433278.98123
  23459906.326    -4293474.762 5  -3288610.51021
 92  4 17 22  0 44.9980000  0  5G13G19G 2G 6G15
  23813479.9514    -399398.63043
  21562254.8344    2066921.04746   1623056.69361
  20180746.9284  -24447111.08748 -18923494.87163
  20432601.951   -23923171.194 7 -18452921.17723
  23454911.373    -4319741.219 5  -3309077.78321
 92  4 17 22  0 59.9970000  0  5G13G19G 2G 6G15
  23800820.9784    -465925.91443
  21567221.0014    2093008.37246   1643384.41661
  20179242.2674  -24455021.47448 -18929658.79763
  20427812.290   -23948338.798 7 -18472532.27623
  23449928.5644   -4345913.57945  -3329471.78161
 92  4 17 22  1 14.9970000  0  5G13G19G 2G 6G15
  23788157.9544    -532448.99543
  21572198.681     2119165.044 6   1663766.18121
  20177745.673   -24462882.082 8 -18935783.93523
  20423031.189   -23973468.771 7 -18492114.04923
  23444965.689    -4371993.384 5  -3349793.62821
 92  4 17 22  1 29.9970000  0  5G13G19G 2G 6G15
  23775501.2124    -598962.37643
  21577189.3144    2145388.71546   1684200.14761
  20176259.5404  -24470691.76248 -18941869.39363
  20418256.564   -23998558.808 7 -18511664.70223
  23440022.540    -4397978.282 5  -3370041.54521
 92  4 17 22  1 44.9970000  0  5G13G19G 2G 6G15
  23762842.9154    -665467.35643
  21582190.314     2171678.090 6   1704685.30221
  20174782.2514  -24478452.62248 -18947916.80863
  20413489.962   -24023610.140 7 -18531185.20423
  23435091.2204   -4423869.71245  -3390216.62961
 92  4 17 22  1 59.9970000  0  5G13G19G 2G 6G15
  23750193.3684    -731960.72243
  21587208.274     2198031.700 6   1725220.50621
  20173316.1424  -24486162.99648 -18953924.88263
  20408728.774   -24048619.939 7 -18550673.33723
  23430185.103    -4449662.963 5  -3410315.18821
 92  4 17 22  2 14.9970000  0  5G13G19G 2G 6G15
  23737543.2744    -798441.44743
  21592231.931     2224447.525 6   1745804.19921
  20171858.0404  -24493825.39448 -18959895.57463
  20403978.642   -24073587.168 7 -18570128.29823
  23425294.899    -4475357.688 5  -3430336.97121
 92  4 17 22  2 29.9970000  0  5G13G19G 2G 6G15
  23724894.110     -864907.493 3
  21597272.6574    2250925.60146   1766436.39661
  20170408.9784  -24501438.27148 -18965827.67763
  20399236.470   -24098510.129 7 -18589548.76723
  23420426.8454   -4500953.13045  -3450281.39861
 92  4 17 22  2 44.9970000  0  5G13G19G 2G 6G15
  23712248.978     -931357.456 3        -0.27331
  21602322.2984    2277465.37846   1787116.67861
  20168968.1264  -24509002.87048 -18971722.15963
  20394502.431   -24123387.441 7 -18608933.66923
  23415572.0014   -4526449.55745  -3470148.67461
 92  4 17 22  2 59.9970000  0  5G13G19G 2G 6G15
  23699603.2744    -997792.87743    -51767.83061
  21607386.071     2304065.310 6   1807843.81921
  20167538.7904  -24516519.82048 -18977579.51663
  20389776.157   -24148220.715 7 -18628284.25423
  23410739.1654   -4551850.18845  -3489941.27461
 92  4 17 22  3 14.9970000  0  5G13G19G 2G 6G15
  23686969.7594   -1064209.18743
  21612458.7354    2330733.50446   1828624.16161
  20166117.9704  -24523984.67848 -18983396.27863
  20385059.517   -24173005.658 7 -18647597.18023
  23405927.774    -4577147.003 5  -3509652.98921
 92  4 17 22  3 29.9970000  0  5G13G19G 2G 6G15
  23674329.9934   -1130605.12143
  21617545.2204    2357475.00146   1849461.62061
  20164707.4074  -24531394.05248 -18989169.80863
  20380354.407   -24197741.236 7 -18666871.63923
  23401131.251    -4602337.487 5  -3529281.85721
 92  4 17 22  3 44.9970000  0  5G13G19G 2G 6G15
  23661702.4234   -1196977.71043
  21622650.345     2384292.097 6   1870357.98721
  20163308.9314  -24538744.27248 -18994897.24263
  20375657.110   -24222424.513 7 -18686105.34223
  23396355.6894   -4627422.57745  -3548828.58261
 92  4 17 22  3 59.9970000  0  5G13G19G 2G 6G15
  23649076.4544   -1263327.33643
  21627766.6494    2411181.96746   1891311.06861
  20161921.7434  -24546035.97148 -19000579.07863
  20370968.454   -24247056.389 7 -18705298.99723
  23391605.2984   -4652402.57845  -3568293.40861
 92  4 17 22  4 14.9970000  0  5G13G19G 2G 6G15
  23636455.4784   -1329656.80743
  21632900.3374    2438142.21246   1912318.98462
  20160545.6184  -24553271.57848 -19006217.20763
  20366290.860   -24271639.591 7 -18724454.71823
  23386870.071    -4677280.606 5  -3587678.78121
 92  4 17 22  4 29.9970000  0  5G13G19G 2G 6G15
  23623838.3764   -1395958.02343
  21638044.7514    2465184.10146   1933390.51861
  20159180.0014  -24560443.41648 -19011805.64563
  20361623.681   -24296166.123 7 -18743566.27923
  23382157.759    -4702048.574 5  -3606978.38821
 92  4 17 22  4 44.9970000  0  5G13G19G 2G 6G15
  23611225.1894   -1462235.05343
  21643204.353     2492304.934 6   1954523.56421
  20157826.8684  -24567556.54648 -19017348.33563
  20356966.587   -24320640.407 7 -18762637.12923
  23377466.806    -4726708.244 5  -3626193.62521
 92  4 17 22  4 59.9970000  0  5G13G19G 2G 6G15
  23598617.7514   -1528488.45143
  21648382.2594    2519504.98046   1975718.33561
  20156485.2044  -24574612.75848 -19022846.67763
  20352318.079   -24345063.236 7
  23372793.3604   -4751258.07845
 92  4 17 22  5 14.9970000  0  5G13G19G 2G 6G15
  23586012.556    -1594718.457 3        -0.14031
  21653574.173     2546782.694 6   1996973.62521
  20155152.4934  -24581611.60548 -19028300.31863
  20347681.337   -24369434.911 7
  23368140.9784   -4775692.06345
 92  4 17 22  5 29.9970000  0  5G13G19G 2G 6G15
  23573411.6654   -1660927.01743    -51590.91861
  21658777.259     2574135.518 6   2018287.43421
  20153829.9314  -24588556.96948 -19033712.27963
  20343053.532   -24393757.441 7
  23363514.6424   -4800011.55545
 92  4 17 22  5 44.9970000  0  5G13G19G 2G 6G15
  23560818.1574   -1727113.08143   -103164.10861
  21663997.079     2601562.616 6   2039659.12021
  20152519.1494  -24595448.85648 -19039082.57463
  20338432.751   -24418030.213 7 -18838525.22023
  23358908.649    -4824218.238 5  -3702174.96621
 92  4 17 22  5 59.9970000  0  5G13G19G 2G 6G15
  23548225.728    -1793274.567 3   -154718.20121
  21669228.774     2629065.011 6   2061089.48221
  20151218.2124  -24602288.04048 -19044411.79763
  20333823.985   -24442251.119 7 -18857398.63923
  23354325.9704   -4848308.75045  -3720946.72561
 92  4 17 22  6 14.9970000  0  5G13G19G 2G 6G15
  23535642.6034   -1859413.97043   -206255.05361
  21674478.728     2656641.526 6   2082577.60121
  20149925.1344  -24609077.46248 -19049702.24663
  20329224.415   -24466422.785 7 -18876233.68823
  23349763.0244   -4872284.45545  -3739628.98561
 92  4 17 22  6 29.9970000  0  5G13G19G 2G 6G15
  23523061.9234   -1925525.65043   -257770.33761
  21679738.978     2684296.967 6   2104127.21321
  20148643.6494  -24615813.86948 -19054951.38663
  20324634.071   -24490539.926 7 -18895026.25423
  23345223.1184   -4896139.39445  -3758217.15561
 92  4 17 22  6 44.9970000  0  5G13G19G 2G 6G15
  23510484.7434                         -0.25053
  21685017.728     2712030.153 6   2125737.41521
  20147372.5244  -24622497.61948 -19060159.49563
  20320055.524   -24514602.257 7 -18913776.10623
  23340705.1494   -4919872.56945  -3776710.42061
 92  4 17 22  6 59.9970000  0  5G13G19G 2G 6G15
  23497912.392                      -66060.536 3
  21690308.657     2739833.959 6   2147402.64521
  20146108.9314  -24629133.10848 -19065329.99763
  20315486.642   -24538614.506 7 -18932486.93123
  23336210.524    -4943490.382 5  -3795113.78521
 92  4 17 22  7 14.9970000  0  5G13G19G 2G 6G15
  23485349.2044    -132094.37143        -0.07071
  21695612.939     2767709.103 6   2169123.45521
  20144857.1424  -24635715.43548 -19070459.07663
  20310928.532   -24562573.955 7 -18951156.60823
  23331740.978    -4966989.900 5  -3813424.99221
 92  4 17 22  7 29.9970000  0  5G13G19G 2G 6G15
  23472789.9154    -198096.34543    -51429.89761
  21700929.899     2795660.600 6   2190903.76021
  20143614.7044  -24642237.02648 -19075540.83163
  20306378.673   -24586475.474 7 -18969781.15823
  23327291.3604   -4990369.46145  -3831642.72161
 92  4 17 22  7 44.9970000  0  5G13G19G 2G 6G15
  23460234.985     -264070.962 3   -102838.37721
  21706266.8144    2823685.55246   2212741.31461
  20142385.1104  -24648701.57648 -19080578.13463
  20301840.743   -24610323.550 7 -18988364.05123
  23322863.485    -5013639.084 5  -3849774.79121
 92  4 17 22  7 59.9970000  0  5G13G19G 2G 6G15
  23447680.142     -330016.436 3   -154224.15221
  21711614.079     2851783.584 5   2234635.80821
  20141166.3064  -24655108.83748 -19085570.79963
  20297313.720   -24634116.636 7 -19006904.09823
  23318456.8374   -5036798.67445  -3867821.10461
 92  4 17 22  8 14.9970000  0  5G13G19G 2G 6G15
  23435142.0094    -395928.03343
  21716976.548     2879958.278 6   2256590.04321
  20139958.0714  -24661454.88448 -19090515.76363
  20292797.728   -24657850.064 7 -19025397.66223
  23314067.6734   -5059844.29345  -3885778.63461
 92  4 17 22  8 29.9970000  0  5G13G19G 2G 6G15
  23422603.7514    -461806.65243
  21722349.954     2908206.915 6   2278601.89221
  20138762.9234  -24667739.46648 -19095412.83063
  20288290.618   -24681525.113 7 -19043845.72723
  23309707.7824   -5082777.96245  -3903648.92161
 92  4 17 22  8 44.9970000  0  5G13G19G 2G 6G15
  23410077.274     -527650.439 3
  21727738.649     2936530.427 6   2300672.08221
  20137578.3454  -24673961.03548 -19100260.79863
  20283799.071   -24705139.855 7 -19062246.79923
  23305362.2124   -5105597.05645  -3921429.94861
 92  4 17 22  8 59.9970000  0  5G13G19G 2G 6G15
  23397551.282     -593459.399 3
  21733144.548     2964931.370 6   2322802.59921
  20136406.8994  -24680118.26248 -19105058.62863
  20279316.493   -24728694.720 7 -19080601.21423
  23301044.2044   -5128301.12645  -3939121.31561
 92  4 17 22  9 14.9970000  0  5G13G19G 2G 6G15
  23385034.165     -659228.787 3
  21738563.290     2993414.440 5   2344997.12121
  20135248.7984  -24686206.48448 -19109802.68764
  20274845.790   -24752185.085 7 -19098905.37223
  23296743.571    -5150884.622 5  -3956718.75621
 92  4 17 22  9 29.9970000  0  5G13G19G 2G 6G15
  23372526.720     -724964.951 3
  21743998.509     3021973.359 6   2367250.75121
  20134100.9314  -24692233.21048 -19114498.81363
  20270386.704   -24775617.491 7 -19117164.36823
  23292470.681    -5173352.905 5  -3974226.42021
 92  4 17 22  9 44.9970000  0  5G13G19G 2G 6G15
  23360021.9074    -790664.01244
  21749448.790     3050614.325 6   2389568.30721
  20132965.6574  -24698198.05748 -19119146.75063
  20265939.173   -24798988.323 7 -19135375.37923
  23288215.048    -5195705.163 5  -3991643.65521
 92  4 17 22  9 59.9970000  0  5G13G19G 2G 6G15
  23347529.5644    -856324.85544
  21754911.939     3079336.036 6   2411948.78421
  20131842.1574  -24704102.83148 -19123747.86363
  20261503.876   -24822296.347 7 -19153537.45223
  23283982.6424   -5217938.76345  -4008968.44861
 92  4 17 22 10 14.9970000  0  5G13G19G 2G 6G15
  23335039.4314    -921950.94944        -0.09671
  21760394.509     3108131.238 6   2434386.52521
  20130729.6964  -24709950.71048 -19128304.64663
  20257079.782   -24845545.277 7 -19171653.47823
  23279777.103    -5240054.515 5  -4026201.40721
 92  4 17 22 10 29.9970000  0  5G13G19G 2G 6G15
  23322558.431     -987538.812 4    -51107.23521
  21765889.587     3137005.802 6   2456886.10821
  20129628.0874  -24715736.54148 -19132813.07763
  20252668.782   -24868731.759 7 -19189720.84223
  23275594.8684   -5262046.08045  -4043337.60361
 92  4 17 22 10 44.9970000  0  5G13G19G 2G 6G15
  23310087.720    -1053089.674 4   -102185.52521
  21771398.743     3165959.143 6   2479447.07521
  20128539.2514  -24721460.41648 -19137273.23263
  20248267.001   -24891857.452 7 -19207740.83823
  23271431.712    -5283912.661 5  -4060376.40521
 92  4 17 22 10 59.9970000  0  5G13G19G 2G 6G15
  23297618.118    -1118598.265 4   -153230.87221
  21776923.032     3194998.091 6   2502074.73821
  20127463.3764  -24727118.93648 -19141682.46263
  20243878.228   -24914916.901 7 -19225709.20823
  23267293.3534   -5305648.86945  -4077313.61661
 92  4 17 22 11 14.9970000  0  5G13G19G 2G 6G15
  23285158.868    -1184068.202 4   -204246.13121
  21782465.9314    3224116.04346   2524763.98561
  20126397.3994  -24732715.68548 -19146043.56164
  20239502.993   -24937914.194 7 -19243629.15523
  23263182.673    -5327260.793 5  -4094153.98821
 92  4 17 22 11 29.9970000  0  5G13G19G 2G 6G15
  23272708.798    -1249495.285 4   -255227.96421
  21788016.524     3253314.642 6   2547516.06621
  20125344.5564  -24738247.65848 -19150354.18663
  20235139.931   -24960845.081 7 -19261497.35123
  23259091.3294   -5348745.28545  -4110895.05561
 92  4 17 22 11 44.9970000  0  5G13G19G 2G 6G15
  23260265.923    -1314885.886 4   -306181.37821
  21793594.5174    3282587.66446   2570326.14361
  20124303.4784  -24743722.84948 -19154620.56063
  20230785.493   -24983716.209 7 -19279318.99023
  23255024.235    -5370112.014 5  -4127544.37421
 92  4 17 22 11 59.9970000  0  5G13G19G 2G 6G15
  23247829.1734   -1380238.72644   -357105.41061
  21799180.189     3311935.032 6   2593194.14221
  20123272.8994  -24749138.71248 -19158840.70963
  20226446.204   -25006526.450 7 -19297093.18023
  23250982.009    -5391358.976 5  -4144100.37121
 92  4 17 22 12 14.9970000  0  5G13G19G 2G 6G15
  23235402.9234   -1445554.59344
  21804774.196     3341353.704 6   2616117.69821
  20122252.6734  -24754494.10248 -19163013.73764
  20222117.618   -25029276.885 7 -19314820.77123
  23246961.5954   -5412486.49345  -4160563.28461
 92  4 17 22 12 29.9970000  0  5G13G19G 2G 6G15
  23222981.7284   -1510831.95844
  21810388.735     3370847.954 6   2639100.14921
  20121246.2044  -24759788.64748 -19167139.34964
  20217799.306   -25051965.939 7 -19332500.53323
  23242967.228    -5433490.782 5  -4176930.18621
 92  4 17 22 12 44.9970000  0  5G13G19G 2G 6G15
  23210567.5484   -1576071.97044
  21816015.7354    3400418.22246   2662141.84761
  20120249.5714  -24765025.96348 -19171220.36563
  20213491.860   -25074594.993 7 -19350133.53923
  23238992.3604   -5454374.57145  -4193203.19861
 92  4 17 22 12 59.9970000  0  5G13G19G 2G 6G15
  23198156.923    -1641279.413 4
  21821653.610     3430056.776 6   2685236.74121
  20119261.6184  -24770215.21148 -19175263.92963
  20209197.759   -25097169.032 7 -19367723.67623
  23235040.9234   -5475144.47945  -4209387.47361
 92  4 17 22 13 14.9970000  0  5G13G19G 2G 6G15
  23185753.196    -1706450.319 4        -0.37331
  21827308.360     3459766.909 6   2708387.41921
  20118283.6964  -24775352.93548 -19179267.34663
  20204912.368   -25119684.090 7 -19385267.85623
  23231109.1574   -5495797.00845  -4225480.29261
 92  4 17 22 13 29.9970000  0  5G13G19G 2G 6G15
  23173356.8374   -1771584.34244    -50753.90161
  21832975.524     3489549.597 6   2731594.63421
  20117316.9464  -24780437.77448 -19183229.55263
  20200639.228   -25142140.314 7 -19402766.19423
  23227201.8534   -5516329.71045  -4241479.73361
 92  4 17 22 13 44.9970000  0  5G13G19G 2G 6G15
  23160970.4624   -1836682.55444   -101479.51161
  21838656.634     3519406.573 6   2754859.73421
  20116358.9854  -24785472.19548 -19187152.47163
  20196376.993   -25164538.613 7 -19420219.39123
  23223316.3994   -5536743.09345  -4257386.18861
 92  4 17 22 13 59.9970000  0  5G13G19G 2G 6G15
  23148589.7594   -1901743.08544   -152175.75361
  21844352.837     3549339.523 5   2778184.04121
  20115410.8454  -24790454.08848 -19191034.46163
  20192127.134   -25186877.485 7 -19437626.28323
  23219458.399    -5557034.883 5  -4273197.90821
 92  4 17 22 14 14.9970000  0  5G13G19G 2G 6G15
  23136215.931    -1966762.951 4   -202840.31021
  21850066.399     3579351.402 6   2801569.84521
  20114472.8144  -24795380.46548 -19194873.19163
  20187887.642   -25209154.173 7 -19454984.71923
  23215612.3924   -5577200.84345  -4288911.56861
 92  4 17 22 14 29.9970000  0  5G13G19G 2G 6G15
  23123847.4934   -2031747.23344   -253477.13761
  21855792.321     3609439.039 5   2825014.67621
  20113544.7824  -24800258.94348 -19198674.59964
  20183658.032   -25231373.539 7 -19472298.49223
  23211805.6654   -5597245.54745  -4304530.75561
 92  4 17 22 14 44.9970000  0  5G13G19G 2G 6G15
  23111490.3684   -2096697.60744   -304087.56261
  21861529.845     3639602.040 5   2848518.23521
  20112624.8214  -24805092.20548 -19202440.77363
  20179441.954   -25253537.670 7 -19489569.22023
  23208011.392    -5617170.977 5  -4320056.98021
 92  4 17 22 14 59.9970000  0  5G13G19G 2G 6G15
  23099138.3454   -2161612.74744   -354670.48161
  21867284.282     3669839.843 5   2872080.08421
  20111713.8454  -24809878.09548 -19206170.03163
  20175235.228   -25275645.453 7 -19506796.04423
  23204247.0644   -5636977.16945  -4335490.33361
 92  4 17 22 15 14.9970000  0  5G13G19G 2G 6G15
  23086792.3924   -2226492.21144   -405225.66061
  21873053.110     3700152.208 5   2895700.02221
  20110812.1734  -24814614.25648 -19209860.53763
  20171037.993   -25297696.682 7 -19523978.80023
  23200494.829    -5656662.391 5  -4350829.40621
 92  4 17 22 15 29.9970000  0  5G13G19G 2G 6G15
  23074454.103    -2291336.681 4   -455753.50721
  21878834.704     3730539.745 5   2919378.53921
  20109922.0714  -24819299.90548 -19213511.68863
  20166851.798   -25319691.973 7 -19541117.96723
  23196775.3374   -5676228.18845  -4366075.40861
 92  4 17 22 15 44.9970000  0  5G13G19G 2G 6G15
  23062116.5564   -2356148.18144   -506255.74361
  21884632.868     3760999.515 5   2943113.35121
  20109038.5014  -24823938.38948 -19217126.08763
  20162677.517   -25341633.723 7 -19558215.42023
  23193070.8454   -5695679.36645  -4381232.13961
 92  4 17 22 15 59.9970000  0  5G13G19G 2G 6G15
  23049790.360    -2420927.570 4   -556732.87821
  21890439.892     3791528.606 6   2966902.17221
  20108163.6574  -24828532.24948 -19220705.71463
  20158512.024   -25363522.917 7 -19575271.91923
  23189392.407    -5715019.718 5  -4396302.48321
 92  4 17 22 16 14.9970000  0  5G13G19G 2G 6G15
  23037467.2124   -2485674.37444   -607184.66261
  21896266.001     3822126.301 6   2990744.44621
  20107298.7744  -24833079.87148 -19224249.31063
  20154356.095   -25385358.770 7 -19592286.85223
  23185735.290    -5734248.412 5  -4411285.82921
 92  4 17 22 16 29.9970000  0  5G13G19G 2G 6G15
  23025151.657    -2550390.677 4   -657612.62921
  21902098.7354    3852790.66046   3014638.66961
  20106443.0014  -24837584.13048 -19227759.12063
  20150210.103   -25407143.982 7 -19609262.32223
  23182092.228    -5753367.199 5  -4426183.53021
 92  4 17 22 16 44.9970000  0  5G13G19G 2G 6G15
  23012845.564    -2615075.931 4   -708016.46421
  21907946.439     3883518.711 5   3038582.52721
  20105593.8684  -24842043.91748 -19231234.27663
  20146074.642   -25428878.020 7 -19626197.91723
  23178477.2354   -5772373.58145  -4440993.64861
 92  4 17 22 16 59.9970000  0  5G13G19G 2G 6G15
  23000541.899    -2679729.526 4   -758395.59321
  21913806.6814    3914309.39445   3062575.18661
  20104753.1894  -24846457.94648 -19234673.77763
  20141948.712   -25450560.471 7 -19643093.31423
  23174883.782    -5791267.218 5  -4455715.91921
 92  4 17 22 17 14.9970000  0  5G13G19G 2G 6G15
  22988246.728    -2744353.678 4   -808751.73421
  21919677.7594    3945157.37145   3086612.48661
  20103921.1734  -24850828.11148 -19238079.09863
  20137833.360   -25472193.838 7 -19659950.46523
  23171310.8064   -5810051.21645  -4470352.74261
 92  4 17 22 17 29.9970000  0  5G13G19G 2G 6G15
  22975951.0094   -2808952.92145   -859088.51061
  21925558.103     3976058.510 5   3110691.21421
  20103097.4314  -24855158.67748 -19241453.55863
  20133723.720   -25493782.858 7 -19676773.05923
  23167754.5644   -5828730.67145  -4484908.09861
 92  4 17 22 17 44.9970000  0  5G13G19G 2G 6G15
  22963663.0404   -2873521.59545   -909401.47161
  21931447.774     4007016.243 5   3134814.04821
  20102282.6034  -24859447.60948 -19244795.57863
  20129623.657   -25515321.909 7 -19693556.71523
  23164220.9624   -5847300.60745  -4499378.11061
 92  4 17 22 17 59.9970000  0  5G13G19G 2G 6G15
  22951383.407    -2938056.443 5   -959688.09821
  21937348.439     4038032.215 5   3158982.25421
  20101473.9314  -24863691.31548 -19248102.35863
  20125535.329   -25536807.820 7 -19710298.96623
  23160705.806    -5865756.600 5  -4513759.35221
 92  4 17 22 18 14.9970000  0  5G13G19G 2G 6G15
  22939108.0014   -3002563.44045  -1009952.98261
  21943263.337     4069099.205 5   3183190.21321
  20100673.6104  -24867896.48048 -19251379.10763
  20121455.993   -25558246.865 7 -19727004.70123
  23157218.6034   -5884102.50745  -4528054.80061
 92  4 17 22 18 29.9970000  0  5G13G19G 2G 6G15
  22926837.251    -3067037.436 5  -1060192.14221
  21949186.1814    4100223.19945   3207442.58561
  20099881.3144  -24872058.66748 -19254622.36563
  20117386.759   -25579634.195 7 -19743670.14023
  23153749.8994   -5902330.38045  -4542258.28261
 92  4 17 22 18 44.9970000  0  5G13G19G 2G 6G15
  22914576.7204   -3131478.36545  -1110405.53961
  21955120.9704    4131404.28345   3231739.44261
  20099096.9074  -24876179.06948 -19257833.06163
  20113325.985   -25600969.393 7 -19760294.95823
  23150302.7824   -5920440.85345  -4556370.27261
 92  4 17 22 18 59.9970000  0  5G13G19G 2G 6G15
  22902317.743    -3195883.926 5  -1160591.40521
  21961060.517     4162642.401 5   3256080.75821
  20098322.4394  -24880255.79948 -19261009.72963
  20109276.446   -25622250.814 7 -19776877.86623
  23146878.2984   -5938435.17145  -4570391.75561
 92  4 17 22 19 14.9970000  0  5G13G19G 2G 6G15
  22890069.720    -3260252.197 5  -1210748.18021
  21967022.064     4193942.128 5   3280470.06721
  20097554.8454  -24884287.34148 -19264151.18363
  20105237.626   -25643476.485 7 -19793417.33023
  23143476.056    -5956312.640 5  -4584322.17921
 92  4 17 22 19 29.9970000  0  5G13G19G 2G 6G15
  22877826.0794   -3324583.84945  -1260876.43461
  21972985.0794    4225303.11345   3304907.11161
  20096796.2904  -24888273.35048 -19267257.15963
  20101208.001   -25664647.101 7 -19809913.90423
  23140093.8994   -5974074.18645  -4598162.28061
 92  4 17 22 19 44.9970000  0  5G13G19G 2G 6G15
  22865590.298    -3388880.254 5  -1310977.23021
  21978966.0644    4256725.19045   3329391.75861
  20096045.0714  -24892219.31648 -19270331.93663
  20097190.767   -25685764.376 7 -19826368.91023
  23136738.314    -5991720.955 5  -4611912.94721
 92  4 17 22 19 59.9970000  0  5G13G19G 2G 6G15
  22853362.0644   -3453140.17045  -1361049.57461
  21984955.2594    4288208.44345   3353924.07361
  20095302.6734  -24896122.95748 -19273373.73163
  20093183.118   -25706827.053 7 -19842781.37323
  23133402.8604   -6009253.31645  -4625574.46461
 92  4 17 22 20 14.9970000  0  5G13G19G 2G 6G15
  22841142.8064   -3517363.66745  -1411093.54161
  21990962.5484    4319753.38145   3378504.45561
  20094568.1424  -24899981.72148 -19276380.55863
  20089185.204   -25727835.429 7 -19859151.52023
  23130084.978    -6026672.423 5  -4639147.73721
 92  4 17 22 20 29.9970000  0  5G13G19G 2G 6G15
  22828928.392    -3581542.794 5  -1461102.93121
  21996977.704     4351368.382 5   3403139.44521
  20093843.8764  -24903788.01648 -19279346.49363
  20085198.681   -25748781.701 7 -19875473.27823
  23126795.9704   -6043970.56945  -4652626.75261
 92  4 17 22 20 44.9970000  0  5G13G19G 2G 6G15
  22816721.915    -3645680.315 5  -1511079.92321
  22003002.962     4383050.589 5   3427826.79321
  20093129.2354  -24907544.47448 -19282273.59863
  20081224.001   -25769668.913 7 -19891749.01423
  23123529.212    -6061152.533 5  -4666015.23721
 92  4 17 22 20 59.9970000  0  5G13G19G 2G 6G15
  22804525.4314   -3709771.20045  -1561020.55661
  22009048.298     4414803.202 5   3452569.00421
  20092424.5244  -24911247.32048 -19285158.92863
  20077260.8764  -25790492.26347 -19907974.99263
  23120275.3144   -6078214.69345  -4679310.35661
 92  4 17 22 21 14.9970000  0  5G13G19G 2G 6G15
  22792337.470    -3773819.502 5  -1610928.01621
  22015103.431     4446623.212 5   3477363.73421
  20091728.8064  -24914902.67648 -19288007.25263
  20073309.353   -25811255.757 7 -19924154.32323
  23117053.642    -6095157.662 5  -4692512.62021
 92  4 17 22 21 29.9970000  0  5G13G19G 2G 6G15
  22780159.7904   -3837817.43245  -1660796.23161
  22021172.118     4478518.523 5   3502217.13721
  20091042.6734  -24918505.25248 -19290814.44863
  20069371.814   -25831951.878 7 -19940281.15923
  23113851.0014   -6111972.81145  -4705615.27861
 92  4 17 22 21 44.9970000  0  5G13G19G 2G 6G15
  22767992.4624   -3901766.08145  -1710626.03361
  22027256.6814    4510486.07145   3527126.82361
  20090366.8294  -24922059.96648 -19293584.35163
  20065447.0874  -25852581.77847 -19956356.39763
  23110677.704    -6128664.237 5  -4718621.52621
 92  4 17 22 21 59.9970000  0  5G13G19G 2G 6G15
  22755832.579    -3965661.793 5  -1760414.57121
  22033354.665     4542527.903 5   3552094.40021
  20089700.3924  -24925563.34648 -19296314.25363
  20061535.079   -25873141.953 7 -19972377.30023
  23107524.603    -6145228.844 5  -4731528.96221
 92  4 17 22 22 14.9970000  0  5G13G19G 2G 6G15
  22743685.4234   -4029507.20145  -1810163.93761
  22039466.3764    4574641.50045   3577117.89461
  20089043.1734  -24929015.58048 -19299004.30463
  20057634.923   -25893635.247 7 -19988346.08223
  23104394.689    -6161668.503 5  -4744339.03421
 92  4 17 22 22 29.9970000  0  5G13G19G 2G 6G15
  22731540.8144   -4093301.94245  -1859873.83961
  22045588.0094    4606827.54745   3602197.84061
  20088394.3214  -24932419.51148 -19301656.71863
  20053747.837   -25914061.259 7 -20004262.44423
  23101293.9394   -6177980.13445  -4757049.33361
 92  4 17 22 22 44.9970000  0  5G13G19G 2G 6G15
  22719412.103    -4157046.744 5  -1909544.82221
  22051728.610     4639085.467 5   3627333.79321
  20087755.2594  -24935778.74848 -19304274.29863
  20049873.704   -25934420.943 7 -20020127.11723
  23098212.024    -6194163.517 5  -4769659.72321
 92  4 17 22 22 59.9970000  0  5G13G19G 2G 6G15
  22707289.954    -4220739.684 5  -1959175.40021
  22057881.376     4671415.291 5   3652525.77321
  20087125.2354  -24939092.21548 -19306856.21963
  20046013.009   -25954712.600 7 -20035938.78523
  23095157.1964   -6210217.69145  -4782169.40661
 92  4 17 22 23 14.9970000  0  5G13G19G 2G 6G15
  22695177.3374   -4284384.79845  -2008768.69861
  22064047.3064    4703812.25745   3677770.08161
  20086502.2204  -24942363.69648 -19309405.42363
  20042162.853   -25974940.527 7 -20051700.79123
  23092126.642    -6226144.889 5  -4794580.16921
 92  4 17 22 23 29.9970000  0  5G13G19G 2G 6G15
  22683076.4704   -4347976.42045  -2058320.30961
  22070221.9074    4736280.60445   3703070.00261
  20085890.1104  -24945585.17948 -19311915.66464
  20038327.103   -25995099.315 7 -20067408.92323
  23089120.993    -6241941.175 5  -4806888.91021
 92  4 17 22 23 44.9970000  0  5G13G19G 2G 6G15
  22670988.540    -4411511.434 5  -2107827.83821
  22076416.0404    4768820.86845   3728425.96261
  20085287.3374  -24948750.40148 -19314382.06663
  20034503.751   -26015185.723 7 -20083060.65223
  23086139.962    -6257606.062 5  -4819095.26621
 92  4 17 22 23 59.9970000  0  5G13G19G 2G 6G15
  22658909.712    -4474987.540 5  -2157289.44821
  22082619.8844    4801434.91045   3753839.40661
  20084696.2124  -24951854.83948 -19316801.10863
  20030696.220   -26035197.718 7 -20098654.40223
  23083186.720    -6273133.553 5  -4831194.52921
 92  4 17 22 24 14.9970000  0  5G13G19G 2G 6G15
  22646842.767    -4538405.652 5  -2206705.88021
  22088843.9704    4834121.47745   3779309.36561
  20084117.6894  -24954897.90048 -19319172.31763
  20026902.087   -26055136.288 7 -20114190.93523
  23080259.3064   -6288521.32945  -4843184.95561
 92  4 17 22 24 29.9970000  0  5G13G19G 2G 6G15
  22634784.399    -4601772.134 5  -2256082.09021
  22095075.4854    4866873.55245   3804830.37261
  20083548.2674  -24957887.64148 -19321501.98563
  20023121.532   -26075007.955 7 -20129675.33823
  23077352.6964   -6303776.03845  -4855071.67261
 92  4 17 22 24 44.9970000  0  5G13G19G 2G 6G15
  22622733.9394   -4665087.75045  -2305418.63061
  22101320.6734    4899689.42145   3830401.08061
  20082990.1654  -24960824.81748 -19323790.69063
  20019351.1104  -26094813.63747 -20145108.32863
  23074478.3064   -6318899.46545  -4866856.07361
 92  4 17 22 24 59.9970000  0  5G13G19G 2G 6G15
  22610693.8374   -4728346.58545  -2354710.95661
  22107577.4464    4932573.53745   3856024.96861
  20082442.2984  -24963702.58848 -19326033.11063
  20015595.454   -26114547.637 7 -20160485.46223
  23071624.5564   -6333886.29445  -4878534.06461
 92  4 17 22 25 14.9970000  0  5G13G19G 2G 6G15
  22598665.3064   -4791555.08245  -2403964.08961
  22113849.4854    4965521.11245   3881698.30661
  20081904.5644  -24966527.06948 -19328234.00263
  20011852.2744  -26134216.71547 -20175812.00563
  23068797.6424   -6348741.34545  -4890109.37461
 92  4 17 22 25 29.9970000  0  5G13G19G 2G 6G15
  22586647.704    -4854715.628 5  -2453179.81921
  22120128.4704    4998528.72145   3907418.42061
  20081377.0014  -24969300.38748 -19330395.02963
  20008122.6424  -26153822.89947 -20191089.54063
  23065995.1264   -6363466.56345  -4901583.49061
 92  4 17 22 25 44.9970000  0  5G13G19G 2G 6G15
  22574637.142    -4917826.720 5  -2502357.05221
  22126422.3294    5031597.45045   3933186.16961
  20080859.5644  -24972023.11448 -19332516.63263
  20004402.798   -26173364.995 7 -20206317.14023
  23063213.595    -6378064.155 5  -4912958.18321
 92  4 17 22 25 59.9970000  0  5G13G19G 2G 6G15
  22562637.774    -4980885.603 5  -2551493.59121
  22132726.4394    5064731.22445   3959004.60161
  20080350.8924  -24974695.18348 -19334598.76463
  20000696.9544  -26192840.71647 -20221493.01463
  23060467.2744   -6392530.05045  -4924230.24261
 92  4 17 22 26 14.9970000  0  5G13G19G 2G 6G15
  22550646.5094   -5043893.04445  -2600590.03661
  22139044.5324    5097930.44745   3984874.03261
  20079851.4934  -24977320.48548 -19336644.45163
  19997003.118   -26212250.587 7 -20236617.57723
  23057738.485    -6406865.823 5  -4935400.91721
 92  4 17 22 26 29.9970000  0  5G13G19G 2G 6G15
  22538668.251    -5106849.404 5  -2649646.68421
  22145374.2824    5131197.02245   4010795.94461
  20079360.6184  -24979900.26748 -19338654.67063
  19993323.1574  -26231595.56747 -20251691.57263
  23055031.3604   -6421075.23345  -4946473.12761
 92  4 17 22 26 44.9970000  0  5G13G19G 2G 6G15
  22526692.7514   -5169757.08845  -2698665.40061
  22151718.8844    5164529.35145   4036769.08261
  20078877.5644  -24982435.79548 -19340630.40663
  19989652.9624  -26250877.88747 -20266716.75063
  23052352.7044   -6435162.06845  -4957449.83461
 92  4 17 22 26 59.9970000  0  5G13G19G 2G 6G15
  22514733.7514   -5232609.45045  -2747641.03261
  22158073.3534    5197934.73045   4062799.15261
  20078404.4934  -24984922.06148 -19342567.75863
  19985997.0174  -26270090.94547 -20281687.95163
  23049695.556    -6449121.130 6  -4968326.97721
 92  4 17 22 27 14.9970000  0  5G13G19G 2G 6G15
  22502784.806    -5295410.340 5  -2796576.54121
  22164445.4314    5231409.16545   4088883.03461
  20077939.4394  -24987365.55948 -19344471.78363
  19982353.5954  -26289238.99047 -20296608.49763
  23047061.7744   -6462957.62345  -4979108.62261
 92  4 17 22 27 29.9970000  0  5G13G19G 2G 6G15
  22490843.439    -5358158.404 5  -2845470.91021
  22170829.064     5264951.428 5   4115019.75221
  20077482.7434  -24989764.60448 -19346341.16963
  19978721.5954  -26308320.78047 -20311477.41663
  23044453.931    -6476673.298 5  -4989796.12721
 92  4 17 22 27 44.9970000  0  5G13G19G 2G 6G15
  22478914.8764   -5420851.04145  -2894322.06461
  22177225.048     5298561.985 5   4141209.70121
  20077036.8924  -24992116.84748 -19348174.08563
  19975103.4394  -26327333.79647 -20326292.73763
  23041864.1964   -6490269.34845  -5000390.42461
 92  4 17 22 27 59.9970000  0  5G13G19G 2G 6G15
  22466996.1894   -5483490.78445  -2943132.00361
  22183631.564     5332240.996 5   4167452.98021
  20076596.5954  -24994423.23348 -19349971.26963
  19971497.618   -26346280.671 7 -20341056.52423
  23039300.8684   -6503746.88545  -5010892.37461
 92  4 17 22 28 14.9970000  0  5G13G19G 2G 6G15
  22455083.5404   -5546075.65545  -2991899.22861
  22190057.3144    5365990.67545   4193751.33761
  20076167.5954  -24996681.90548 -19351731.27563
  19967905.9154  -26365159.59447 -20355767.36563
  23036759.603    -6517101.638 5  -5021298.64721
 92  4 17 22 28 29.9970000  0  5G13G19G 2G 6G15
  22443185.032    -5608611.874 5  -3040628.50021
  22196489.056     5399803.141 5   4220098.60821
  20075744.6654  -24998897.80848 -19353457.95263
  19964326.1424  -26383976.80547 -20370430.11763
  23034239.2674   -6530341.17645  -5031615.16461
 92  4 17 22 28 44.9970000  0  5G13G19G 2G 6G15
  22431294.5564   -5671093.53745  -3089315.31061
  22202938.845     5433682.496 5   4246498.00221
  20075332.5714  -25001063.92048 -19355145.83263
  19960756.0874  -26402726.57347 -20385040.31863
  23031746.4934   -6543458.55245  -5041836.47161
 92  4 17 22 28 59.9970000  0  5G13G19G 2G 6G15
  22419410.431    -5733522.093 5  -3137960.68021
  22209395.923     5467623.234 5   4272945.22821
  20074929.5564  -25003184.59948 -19356798.30463
  19957201.470   -26421410.598 7 -20399599.28423
  23029271.532    -6556455.874 5  -5051964.24321
 92  4 17 22 29 14.9970000  0  5G13G19G 2G 6G15
  22407543.2984   -5795893.83445  -3186561.83061
  22215866.196     5501628.089 5   4299442.41421
  20074534.1964  -25005257.29448 -19358413.39363
  19953659.9154  -26440025.41347 -20414104.32963
  23026818.2984   -6569328.06545  -5061994.49561
 92  4 17 22 29 29.9970000  0  5G13G19G 2G 6G15
  22395687.1964   -5858213.77145  -3235122.59461
  22222349.157     5535690.422 5   4325984.39121
  20074148.7514  -25007284.67948 -19359993.17363
  19950130.6814  -26458575.88247 -20428559.22963
  23024394.9394   -6582078.31745  -5071929.72661
 92  4 17 22 29 44.9970000  0  5G13G19G 2G 6G15
  22383836.282    -5920476.756 5  -3283638.96721
  22228840.009     5569814.600 5   4352574.56121
  20073773.4314  -25009263.23848 -19361534.90763
  19946612.001   -26477057.370 7 -20442960.38023
  23021992.1734   -6594701.63445  -5081766.07461
 92  4 17 22 29 59.9970000  0  5G13G19G 2G 6G15
  22371999.9784   -5982683.13545  -3332111.27561
  22235347.189     5604000.760 5   4379213.02721
  20073404.4234  -25011195.87348 -19363040.85463
  19943107.8604  -26495470.15447 -20457307.99363
  23019614.470    -6607197.565 5  -5091503.14121
 92  4 17 22 30 14.9970000  0  5G13G19G 2G 6G15
  22360171.0324   -6044833.60745  -3380539.99161
  22241863.0644    5638247.30545   4405898.54961
  20073044.7514  -25013085.34748 -19364513.17163
  19939617.2124  -26513815.21047 -20471602.83263
  23017261.0644   -6619564.46745  -5101139.66461
 92  4 17 22 30 29.9970000  0  5G13G19G 2G 6G15
  22348356.212    -6106929.500 5  -3428926.17621
  22248390.884     5672549.892 5   4432627.72721
  20072692.6894  -25014936.00148 -19365955.23863
  19936139.6424  -26532093.76247 -20485845.84863
  23014931.540    -6631805.476 5  -5110678.10121
 92  4 17 22 30 44.9970000  0  5G13G19G 2G 6G15
  22336547.228    -6168969.464 5  -3477268.79821
  22254930.564     5706908.932 5   4459400.90721
  20072347.8764  -25016747.49848 -19367366.79063
  19932674.853   -26550304.739 7 -20500036.20723
  23012625.978    -6643920.363 6  -5120118.23621
 92  4 17 22 30 59.9970000  0  5G13G19G 2G 6G15
  22324753.4544   -6230951.84445  -3525566.52961
  22261482.915     5741325.774 5   4486219.11421
  20072010.9854  -25018519.06448 -19368747.23163
  19929222.3994  -26568446.72347 -20514172.81263
  23010345.7284   -6655907.08046  -5129458.51361
 92  4 17 22 31 14.9970000  0  5G13G19G 2G 6G15
  22312969.0794   -6292883.24745  -3573824.57961
  22268040.0174    5775793.39945   4513076.90261
  20071680.9154  -25020256.81348 -19370101.31463
  19925780.220   -26586526.455 7 -20528260.90223
  23008086.6034   -6667772.14346  -5138703.98261
 92  4 17 22 31 29.9970000  0  5G13G19G 2G 6G15
  22301193.439    -6354763.417 5  -3622042.65621
  22274607.587     5810313.256 5   4539975.38321
  20071356.1814  -25021958.33048 -19371427.17363
  19922352.9934  -26604543.48447 -20542300.13263
  23005851.6494   -6679514.03346  -5147853.47561
 92  4 17 22 31 44.9970000  0  5G13G19G 2G 6G15
  22289426.853    -6416592.160 5  -3670220.68921
  22281186.751     5844885.566 5   4566914.73921
  20071039.0174  -25023625.02348 -19372725.89263
  19918935.6574  -26622498.04547 -20556290.68863
  23003641.4854   -6691134.50445  -5156908.36261
 92  4 17 22 31 59.9970000  0  5G13G19G 2G 6G15
  22277669.962    -6478369.390 5  -3718358.57821
  22287775.556     5879510.400 5   4593895.02821
  20070729.0404  -25025257.19948 -19373997.71763
  19915530.267   -26640390.166 7 -20570232.58823
  23001455.5714   -6702631.93346  -5165867.35561
 92  4 17 22 32 14.9970000  0  5G13G19G 2G 6G15
  22265925.384    -6540091.617 5  -3766453.62721
  22294377.314     5914192.639 5   4620920.04121
  20070426.2594  -25026847.69248 -19375237.05963
  19912138.6964  -26658216.66647 -20584123.35763
  22999290.4854   -6714000.68146  -5174726.08361
 92  4 17 22 32 29.9970000  0  5G13G19G 2G 6G15
  22254192.485    -6601760.935 5  -3814507.41521
  22300984.9544    5948931.27145   4647988.99061
  20070130.3844  -25028399.18848 -19376446.01363
  19908757.657   -26675979.464 7 -20597964.48223
  22997149.6734   -6725244.00645  -5183487.08361
 92  4 17 22 32 44.9970000  0  5G13G19G 2G 6G15
  22242466.7594   -6663378.30745  -3862520.73261
  22307608.649     5983727.441 5   4675102.78121
  20069842.9784  -25029911.47648 -19377624.41363
  19905390.345   -26693679.691 7 -20611756.85023
  22995032.4464   -6736363.50845  -5192151.59561
 92  4 17 22 32 59.9970000  0  5G13G19G 2G 6G15
  22230750.048    -6724945.404 5  -3910494.91021
  22314242.610     6018579.658 5   4702260.24021
  20069563.0644  -25031385.85548 -19378773.27963
  19902032.407   -26711319.205 7 -20625501.91123
  22992940.290    -6747359.837 5  -5200720.12021
 92  4 17 22 33 14.9970000  0  5G13G19G 2G 6G15
  22219041.814    -6786461.023 5  -3958428.94121
  22320883.517     6053489.060 5   4729462.26321
  20069288.6104  -25032821.33148 -19379891.83263
  19898689.485   -26728897.144 7 -20639198.98923
  22990872.345    -6758231.153 5  -5209191.23621
 92  4 17 22 33 29.9970000  0  5G13G19G 2G 6G15
  22207346.5174   -6847924.14445  -4006322.08161
  22327536.134     6088456.410 5   4756709.43521
  20069023.8374  -25034217.32548 -19380979.61963
  19895354.501   -26746412.380 7 -20652847.20623
  22988829.759    -6768974.819 5  -5217562.88921
 92  4 17 22 33 44.9970000  0  5G13G19G 2G 6G15
  22195660.376    -6909332.055 5  -4054172.20321
  22334203.298     6123484.867 5   4784004.22221
  20068763.8924  -25035575.07148 -19382037.60063
  19892036.509   -26763862.546 7 -20666444.72523
  22986809.118    -6779589.969 5  -5225834.38221
 92  4 17 22 33 59.9970000  0  5G13G19G 2G 6G15
  22183985.2284   -6970690.42846  -4101983.72461
  22340879.907     6158567.345 5   4811341.10521
  20068512.6964  -25036899.20148 -19383069.38663
  19888724.735   -26781253.309 7 -20679995.94923
  22984813.8604   -6790081.06245  -5234009.21961
 92  4 17 22 34 14.9970000  0  5G13G19G 2G 6G15
  22172321.173    -7031990.106 6  -4149749.51321
  22347568.6814    6193711.93945   4838726.39861
  20068270.3374  -25038179.58348 -19384067.08063
  19885428.649   -26798575.561 7 -20693493.78723
  22982840.712    -6800439.715 5  -5242080.84621
 92  4 17 22 34 29.9970000  0  5G13G19G 2G 6G15
  22160665.6034   -7093228.57245  -4197467.60161
  22354263.462     6228918.722 5   4866160.14621
  20068034.0714  -25039415.36948 -19385030.02563
  19882147.173   -26815826.811 7 -20706936.30023
  22980893.517    -6810667.515 5  -5250050.51221
 92  4 17 22 34 44.9970000  0  5G13G19G 2G 6G15
  22149023.821    -7154409.696 6  -4245141.01421
  22360976.993     6264179.837 5   4893636.23821
  20067807.3994  -25040611.57948 -19385962.13363
  19878875.290   -26833011.453 7 -20720326.90723
  22978969.142    -6820768.705 5  -5257921.51421
 92  4 17 22 34 59.9970000  0  5G13G19G 2G 6G15
  22137392.923    -7215530.348 6  -4292767.29821
  22367694.696     6299496.932 5   4921155.93821
  20067586.6814  -25041763.73748 -19386859.91663
  19875618.970   -26850126.462 7 -20733663.26223
  22977076.868    -6830738.750 5  -5265690.33921
 92  4 17 22 35 14.9970000  0  5G13G19G 2G 6G15
  22125771.5874   -7276591.85546  -4340347.50861
  22374427.540     6334865.880 5   4948716.05121
  20067376.4314  -25042873.04648 -19387724.30963
  19872375.626   -26867173.217 7 -20746946.42423
  22975201.470    -6840579.894 5  -5273358.70421
 92  4 17 22 35 29.9970000  0  5G13G19G 2G 6G15
  22114165.345    -7337588.585 6  -4387877.23621
  22381171.1734    6370291.20045   4976320.08161
  20067175.6734  -25043934.76748 -19388551.62163
  19869144.993   -26884146.184 7 -20760172.09723
  22973352.1964   -6850287.59445  -5280923.08761
 92  4 17 22 35 44.9970000  0  5G13G19G 2G 6G15
  22102570.532    -7398520.874 6  -4435356.75821
  22387921.1344    6405771.41845   5003966.90261
  20066981.1814  -25044949.87148 -19389342.61063
  19865930.009   -26901045.713 7 -20773340.54623
  22971532.6734   -6859864.61145  -5288385.64461
 92  4 17 22 35 59.9970000  0  5G13G19G 2G 6G15
  22090989.454    -7459386.403 6  -4482784.24721
  22394683.243     6441310.730 5   5031659.75521
  20066798.1894  -25045916.68548 -19390095.97263
  19862728.814   -26917869.426 7 -20786449.91523
  22969733.845    -6869311.327 5  -5295746.66921
 92  4 17 22 36 14.9970000  0  5G13G19G 2G 6G15
  22079422.1574   -7520179.09646  -4530155.00061
  22401460.1654    6476913.09245   5059401.74161
  20066624.2904  -25046828.25348 -19390806.28063
  19859542.329   -26934611.702 7 -20799495.82723
  22967965.571    -6878620.286 5  -5303000.35521
